     2              OBSERVATION DATA                        RINEX VERSION / TYPE
ASHCAN V. 1.90 20000421 17:45:13UTC                         PGM / RUN BY / DATE
AGMT ARGOS_MTN____                                          MARKER NAME
JEG                                                         OBSERVER / AGENCY
LP03033 ASHTECH Z-XII3 CC00 1D02                            REC # / TYPE / VERS
CR519991758 ASH701945B_M SCIT                               ANT # / TYPE
 -2339949.5888 -4707754.1596  3601700.0775                  APPROX POSITION XYZ
        0.0083        0.0000        0.0000                  ANTENNA: DELTA H/E/N
     1     1                                                WAVELENGTH FACT L1/2
     5    L1    L2    C1    P1    P2                        # / TYPES OF OBSERV
  2000     4    17     0     0   30.000000                  TIME OF FIRST OBS
  2000     4    17    21     0    0.000000                  TIME OF LAST OBS
    30                                                      INTERVAL
                                                            END OF HEADER
 00  4 17  0  0 30.0000000  0  8 26 23 17 30  6 22 21 10             0.000000000
 -17325988.587 9 -13273970.67048  21700866.929    21700866.9124   21700876.8514
 -20475658.696 9 -15929670.25049  21075191.697    21075191.0694   21075201.5514
 -24862602.205 9 -18894925.96349  20809837.008    20809836.2304   20809845.8234
  -1779387.343 8  -1126649.07845  25012849.521    25012849.4944   25012875.4254
 -23802665.310 9 -18536892.27549  20737683.772    20737683.4804   20737692.9674
  -6020994.102 9  -4682472.83746  23697111.880    23697110.9024   23697125.9634
  -7350812.559 9  -4553002.50446  24109497.101    24109496.3844   24109518.0444
   1590551.69217   1486417.32954  25439550.806    25439549.0515          0.0005
 00  4 17  0  1  0.0000000  0  8 26 23 17 30  6 22 21 10             0.000000076
 -17322925.063 9 -13271583.47948  21701449.905    21701449.8694   21701459.8064
 -20513531.578 9 -15959181.48749  21067984.619    21067983.9984   21067994.4894
 -24872894.700 9 -18902946.06349  20807878.362    20807877.5964   20807887.1494
  -1681567.377 8  -1050426.11145  25031464.345    25031464.2974   25031490.2704
 -23750697.482 9 -18496397.90949  20747572.932    20747572.6444   20747582.1784
  -6019725.738 9  -4681484.52046  23697353.218    23697352.2744   23697367.2284
  -7434245.224 9  -4618014.35646  24093619.971    24093619.2554   24093640.7904
   1693460.56719   1566606.33853         0.000           0.0005          0.0005
 00  4 17  0  1 30.0000000  0  8 26 23 17 30  6 22 21 10             0.000000086
 -17319256.683 9 -13268724.97848  21702148.016    21702147.9564   21702157.8674
 -20551037.080 9 -15988406.45449  21060847.511    21060846.8894   21060857.3334
 -24882996.636 9 -18910817.67749  20805955.996    20805955.2174   20805964.7914
  -1583907.589 8   -974327.94945  25050048.684    25050048.6324   25050074.7764
 -23698240.642 9 -18455522.49348  20757555.120    20757554.8544   20757564.3964
  -6017944.815 9  -4680096.79046  23697692.100    23697691.1204   23697706.0744
  -7517493.803 9  -4682882.78946  24077777.782    24077777.1634   24077798.4324
   1796266.89119   1646715.24953         0.000           0.0005          0.0005
 00  4 17  0  2  0.0000000  0  8 26 23 17 30  6 22 21 10             0.000000088
 -17314976.633 9 -13265389.85548  21702962.478    21702962.4324   21702972.3214
 -20588154.557 9 -16017329.06849  21053784.254    21053783.5994   21053793.9994
 -24892922.294 9 -18918551.93549  20804067.208    20804066.4354   20804075.9984
  -1486405.828 8   -898352.94845  25068602.944    25068602.8164   25068629.1374
 -23645293.076 9 -18414264.69248  20767630.678    20767630.4394   20767640.0084
  -6015665.207 9  -4678320.47946  23698125.956    23698124.9894   23698139.8514
  -7600565.404 9  -4747613.31246  24061969.293    24061968.6964   24061989.8304
   1898980.51518   1726751.87353         0.000           0.0005          0.0005
 00  4 17  0  2 30.0000000  0  8 26 23 17 30  6 22 21 10             0.000000079
 -17310073.739 9 -13261569.39548  21703895.432    21703895.3764   21703905.2794
 -20624856.957 9 -16045928.24149  21046799.915    21046799.2744   21046809.6354
 -24902669.449 9 -18926147.09849  20802212.359    20802211.6184   20802221.1604
  -1389045.421 8   -822488.09845  25087130.297    25087130.3004   25087156.4814
 -23591851.747 9 -18372622.14148  20777800.228    20777799.9984   20777809.5924
  -6012889.991 9  -4676157.98046  23698654.105    23698653.1944   23698667.9564
  -7683453.616 9  -4812200.95446  24046195.698    24046195.1074   24046216.0874
   2001611.21118   1091295.26552         0.000           0.0005          0.0005
 00  4 17  0  3  0.0000000  0  8 26 23 17 30  6 22 21 10             0.000000069
 -17304535.001 9 -13257253.46748  21704949.380    21704949.3164   21704959.2434
 -20661127.125 9 -16074190.61549  21039897.862    21039897.2224   21039907.5414
 -24912233.033 9 -18933599.21849  20800392.433    20800391.6894   20800401.2124
  -1291825.856 8   -746732.97645  25105630.841    25105630.9234   25105657.2804
 -23537934.911 9 -18330609.06548  20788060.298    20788060.0554   20788069.6694
  -6009604.128 9  -4673597.57446  23699279.470    23699278.5714   23699293.2524
  -7766145.613 9  -4876635.70446  24030459.512    24030458.9904   24030479.6334
   2104199.45318   1171368.63652         0.000           0.0005          0.0005
 00  4 17  0  3 30.0000000  0  8 26 23 17 30  6 22 21 10             0.000000060
 -17298352.424 9 -13252435.85248  21706125.846    21706125.7924   21706135.6814
 -20696959.486 9 -16102111.84049  21033079.107    21033078.4734   21033088.7504
 -24921617.025 9 -18940911.40049  20798606.708    20798605.9554   20798615.4594
  -1194753.275 8   -671092.36845  25124103.396    25124103.5254   25124129.8784
 -23483553.460 9 -18288233.95348  20798408.728    20798408.4814   20798418.1164
  -6005812.600 9  -4670643.15346  23700001.006    23700000.0524   23700014.8324
  -7848643.500 9  -4940919.20746  24014760.342    24014759.8184   24014780.2074
   2206738.232 8   1251403.62452         0.000           0.0004          0.0005
 00  4 17  0  4  0.0000000  0  7 26 23 17 30  6 22 21                0.000000045
 -17291530.054 9 -13247119.69348  21707424.092    21707424.0334   21707433.9274
 -20732343.700 9 -16129683.86049  21026345.644    21026345.0144   21026355.2524
 -24930824.879 9 -18948086.32549  20796854.511    20796853.7584   20796863.2344
  -1097829.543 8   -595567.75845  25142547.626    25142547.7964   25142574.3644
 -23428704.127 9 -18245494.25948  20808846.219    20808845.9664   20808855.6204
  -6001510.276 9  -4667290.69246  23700819.683    23700818.7454   23700833.5404
  -7930946.923 9  -5005051.20646  23999098.094    23999097.5114   23999117.7994
 00  4 17  0  4 30.0000000  0  7 26 23 17 30  6 22 21                0.000000039
 -17284073.510 9 -13241309.37148  21708843.031    21708842.9814   21708852.9074
 -20767298.123 9 -16156920.97749  21019693.941    21019693.3094   21019703.5504
 -24939841.165 9 -18955111.97949  20795138.762    20795138.0064   20795147.4794
  -1001057.265 8   -520161.14245  25160963.088    25160963.1974   25160989.8534
 -23373391.738 9 -18202393.74148  20819371.850    20819371.5894   20819381.2384
  -5996679.225 9  -4663526.24346  23701739.037    23701738.1184   23701752.8334
  -8013041.182 9  -5069020.20846  23983475.713    23983475.1274   23983495.2164
 00  4 17  0  5  0.0000000  0  7 26 23 17 30  6 22 21                0.000000039
 -17275997.391 9 -13235016.26048  21710379.857    21710379.8174   21710389.7194
 -20801841.852 9 -16183838.07549  21013120.413    21013119.7804   21013130.0024
 -24948662.670 9 -18961985.85749  20793460.046    20793459.2884   20793468.7604
   -904444.726 8   -444879.00845  25179348.109    25179348.3394   25179375.0714
 -23317623.402 9 -18158937.94448  20829984.278    20829984.0024   20829993.6344
  -5991323.055 9  -4659352.62346  23702758.234    23702757.3124   23702772.1074
  -8094924.714 9  -5132825.04046  23967893.366    23967892.7244   23967912.7224
 00  4 17  0  5 30.0000000  0  7 26 23 17 30  6 22 21                0.000000041
 -17267300.762 9 -13228239.63848  21712034.787    21712034.7114   21712044.6214
 -20835987.925 9 -16210445.30849  21006622.566    21006621.9184   21006632.1354
 -24957290.479 9 -18968708.80449  20791818.209    20791817.4644   20791826.9364
   -807985.621 8   -369716.43245  25197703.951    25197704.1624   25197731.0654
 -23261390.909 9 -18115120.45748  20840685.009    20840684.7444   20840694.3604
  -5985456.155 9  -4654781.02546  23703874.643    23703873.7704   23703888.4694
  -8176610.184 9  -5196475.54846  23952348.700    23952348.0654   23952367.8674
 00  4 17  0  6  0.0000000  0  7 26 23 17 30  6 22 21                0.000000043
 -17257977.142 9 -13220974.46148  21713808.936    21713808.9034   21713818.8274
 -20869745.657 9 -16236749.94349  21000198.583    21000197.9464   21000208.1744
 -24965711.008 9 -18975270.23449  20790215.838    20790215.0744   20790224.5384
   -711679.101 8   -294672.74245  25216030.756    25216030.9454   25216058.0104
 -23204696.670 9 -18070943.17648  20851473.622    20851473.3454   20851482.9624
  -5979088.345 9  -4649819.11046  23705086.365    23705085.4714   23705100.1804
  -8258105.128 9  -5259977.60446  23936840.319    23936839.6124   23936859.3254
 00  4 17  0  6 30.0000000  0  8 26 23 17 30  6 22 21 10             0.000000047
 -17248028.990 9 -13213222.62548  21715701.963    21715701.8834   21715711.8534
 -20903132.516 9 -16262765.58949  20993845.189    20993844.5544   20993854.7734
 -24973909.282 9 -18981658.47549  20788655.759    20788654.9944   20788664.4554
   -615520.524 8   -219744.34845  25234329.424    25234329.5564   25234356.8314
 -23147547.113 9 -18026411.10248  20862348.856    20862348.5774   20862358.2064
  -5972222.277 9  -4644468.93146  23706392.949    23706392.0864   23706406.8164
  -8339411.448 9  -5323332.69846  23921367.713    23921367.0434   23921386.7084
   -158684.50818   -134792.78152         0.000           0.0005          0.0005
 00  4 17  0  7  0.0000000  0  8 26 23 17 30  6 22 21 10             0.000000046
 -17237450.655 9 -13204979.73448  21717714.866    21717714.7894   21717724.7494
 -20936137.016 9 -16288483.29249  20987564.529    20987563.9124   20987574.0984
 -24981894.548 9 -18987880.73149  20787136.173    20787135.4164   20787144.8614
   -519514.684 8   -144934.95845  25252599.045    25252599.1694   25252626.4164
 -23089927.719 9 -17981512.92148  20873313.499    20873313.2164   20873322.8904
  -5964866.827 9  -4638737.43446  23707792.646    23707791.7084   23707806.5304
  -8420537.331 9  -5386547.21246  23905929.532    23905928.9514   23905948.4274
    -56603.474 9    -55220.12952         0.000           0.0004          0.0005
 00  4 17  0  7 30.0000000  0  7 26 23 17 30  6 22 21                0.000000048
 -17226234.694 9 -13196239.99347  21719849.164    21719849.1014   21719859.0194
 -20968759.004 9 -16313902.93849  20981356.726    20981356.1094   20981366.2614
 -24989678.926 9 -18993946.45449  20785654.842    20785654.0914   20785663.5524
   -423673.922 8    -70254.20545  25270837.228    25270837.4634   25270864.5964
 -23031836.592 9 -17936247.16348  20884367.904    20884367.6234   20884377.3174
  -5957023.036 9  -4632625.40546  23709285.279    23709284.2844   23709299.1764
  -8501482.520 9  -5449620.94146  23890525.839    23890525.2444   23890544.5384
 00  4 17  0  8  0.0000000  0  7 26 23 17 30  6 22 21                0.000000045
 -17214396.177 9 -13187015.14847  21722101.926    21722101.8824   21722111.7824
 -21000992.385 9 -16339019.77149  20975222.879    20975222.2664   20975232.3754
 -24997264.851 9 -18999857.54549  20784211.255    20784210.5004   20784219.9554
   -328006.746 9      4291.31645  25289042.374    25289042.5994   25289069.6834
 -22973269.604 9 -17890610.59348  20895512.876    20895512.5984   20895522.3254
  -5948695.191 9  -4626136.19246  23710869.936    23710868.8974   23710884.0114
  -8582232.646 9  -5512542.67746  23875159.236    23875158.6424   23875177.7934
 00  4 17  0  8 30.0000000  0  7 26 23 17 30  6 22 21                0.000000033
 -17201938.523 9 -13177307.84947  21724472.539    21724472.5004   21724482.3834
 -21032816.856 9 -16363817.97549  20969166.807    20969166.1784   20969176.2674
 -25004662.960 9 -19005622.28049  20782803.399    20782802.6454   20782812.1164
   -232501.916 8     78710.32145  25307216.600    25307216.9574   25307243.9794
 -22914217.861 9 -17844596.30148  20906750.038    20906749.7384   20906759.5004
  -5939883.215 9  -4619269.74546  23712546.692    23712545.6564   23712560.8144
  -8662777.045 9  -5575304.11846  23859831.738    23859831.1644   23859850.2624
 00  4 17  0  9  0.0000000  0  7 26 23 17 30  6 22 21                0.000000015
 -17188840.054 9 -13167101.21247  21726965.033    21726965.0054   21726974.8764
 -21064200.304 9 -16388272.52349  20963194.682    20963194.0634   20963204.1134
 -25011881.509 9 -19011247.10049  20781429.736    20781428.9864   20781438.4514
   -137159.035 8    153003.13345  25325360.041    25325360.2584   25325387.4914
 -22854684.177 9 -17798206.47048  20918078.912    20918078.6354   20918088.4404
  -5930590.805 9  -4612028.92246  23714314.986    23714313.9724   23714329.0954
  -8743103.959 9  -5637896.10346  23844545.704    23844545.1654   23844564.0834
 00  4 17  0  9 30.0000000  0  7 26 23 17 30  6 22 21               -0.000000014
 -17175092.807 9 -13156389.04647  21729581.047    21729581.0044   21729590.8394
 -21095127.220 9 -16412371.33549  20957309.443    20957308.8174   20957318.8434
 -25018901.648 9 -19016717.31349  20780093.866    20780093.0914   20780102.5394
    -41975.036 8    227172.16445  25343473.244    25343473.4084   25343500.5604
 -22794684.486 9 -17751453.51448  20929496.498    20929496.2314   20929506.0394
  -5920822.952 9  -4604417.63946  23716173.751    23716172.8354   23716187.8844
  -8823203.333 9  -5700310.78546  23829302.983    23829302.4084   23829321.2224
 00  4 17  0 10  0.0000000  0  7 26 23 17 30  6 22 21               -0.000000050
 -17160687.464 9 -13145164.07448  21732322.283    21732322.2264   21732332.0084
 -21125578.328 9 -16436099.39049  20951514.722    20951514.0994   20951524.1004
 -25025708.752 9 -19022021.52749  20778798.486    20778797.7184   20778807.1784
     53063.432 8    301227.81045  25361558.640    25361558.6184   25361586.2224
 -22734212.062 9 -17704332.19248  20941004.074    20941003.7954   20941013.5894
  -5910561.643 9  -4596421.84046  23718126.487    23718125.5534   23718140.5544
  -8903061.953 9  -5762537.87646  23814106.092    23814105.5284   23814124.3084
 00  4 17  0 10 30.0000000  0  7 26 23 17 30  6 22 21               -0.000000074
 -17145612.889 9 -13133417.62648  21735190.882    21735190.8114   21735200.5724
 -21155564.051 9 -16459464.80649  20945808.555    20945807.9394   20945817.9514
 -25032305.538 9 -19027161.85749  20777543.163    20777542.3974   20777551.8484
    147955.643 8    375169.43945  25379616.287    25379616.3264   25379643.7594
 -22673267.409 9 -17656842.90048  20952601.512    20952601.2264   20952611.0204
  -5899790.004 9  -4588028.37946  23720176.318    23720175.4244   23720190.3714
  -8982679.259 9  -5824576.92246  23798955.111    23798954.5574   23798973.1794
 00  4 17  0 11  0.0000000  0  7 26 23 17 30  6 22 21               -0.000000077
 -17129883.828 9 -13121161.19048  21738184.082    21738183.9984   21738193.7254
 -21185123.566 9 -16482498.11449  20940183.478    20940182.8634   20940192.8524
 -25038702.968 9 -19032146.84949  20776325.718    20776324.9604   20776334.4184
    242670.071 8    448972.58445  25397640.122    25397640.2794   25397667.5994
 -22611847.791 9 -17608983.50348  20964289.336    20964289.0554   20964298.8284
  -5888510.436 9  -4579239.14846  23722322.845    23722321.9384   23722336.8374
  -9062057.893 9  -5886429.99246  23783849.532    23783849.0054   23783867.4734
 00  4 17  0 11 30.0000000  0  7 26 23 17 30  6 22 21               -0.000000063
 -17113534.898 9 -13108421.73948  21741295.162    21741295.1044   21741304.8444
 -21214301.692 9 -16505234.23749  20934631.038    20934630.4174   20934640.3854
 -25044909.672 9 -19036983.22349  20775144.582    20775143.8374   20775153.2894
    337190.927 8    522624.86245  25415627.090    25415627.1484   25415654.8084
 -22549948.139 9 -17560750.06148  20976068.525    20976068.2504   20976077.9824
  -5876727.771 9  -4570057.88146  23724565.085    23724564.1764   23724579.0204
  -9141217.474 9  -5948112.37746  23768785.708    23768785.1234   23768803.4574
 00  4 17  0 12  0.0000000  0  7 26 23 17 30  6 22 21               -0.000000027
 -17096589.438 9 -13095217.45848  21744519.767    21744519.6824   21744529.4704
 -21243136.249 9 -16527702.64449  20929143.945    20929143.3064   20929153.2474
 -25050950.766 9 -19041690.55149  20773994.983    20773994.2534   20774003.6914
    431507.990 8    596118.32745  25433575.158    25433575.3414   25433603.2584
 -22487565.253 9 -17512140.06948  20987939.659    20987939.3824   20987949.0944
  -5864442.660 9  -4560485.10646  23726902.946    23726901.9874   23726916.9004
  -9220169.831 9  -6009633.28846  23753761.283    23753760.6454   23753778.8724
 00  4 17  0 12 30.0000000  0  7 26 23 17 30  6 22 21                0.000000022
 -17079067.168 9 -13081563.71648  21747854.161    21747854.0844   21747863.8324
 -21271664.569 9 -16549932.42849  20923715.130    20923714.4844   20923724.3994
 -25056833.284 9 -19046274.31249  20772875.527    20772874.7984   20772884.2154
    525600.062 8    669436.48145  25451480.554    25451480.8674   25451508.6814
 -22424719.836 9 -17463169.66548  20999898.830    20999898.5234   20999908.2194
  -5851684.781 9  -4550543.92946  23729330.640    23729329.7674   23729344.6454
  -9298937.144 9  -6071010.00946  23738771.963    23738771.4214   23738789.5904
 00  4 17  0 13  0.0000000  0  8  3 26 23 17 30  6 22 21             0.000000059
   -653970.13018   -207912.96952         0.000           0.0005          0.0005
 -17060974.245 9 -13067465.32048  21751297.131    21751297.0604   21751306.7914
 -21299877.663 9 -16571916.58049  20918346.293    20918345.6614   20918355.5604
 -25062549.927 9 -19050728.82149  20771787.681    20771786.9614   20771796.3684
    619453.826 8    742568.92245  25469340.648    25469340.7524   25469368.9074
 -22361434.289 9 -17413856.30248  21011941.709    21011941.3964   21011951.1224
  -5838481.371 9  -4540255.60046  23731843.159    23731842.3274   23731857.2444
  -9377532.255 9  -6132252.53846  23723815.520    23723814.9354   23723833.0254
 00  4 17  0 13 30.0000000  0  7 26 23 17 30  6 22 21                0.000000078
 -17042292.884 9 -13052908.39748  21754852.087    21754852.0294   21754861.7274
 -21327744.653 9 -16593631.04349  20913043.319    20913042.7024   20913052.5664
 -25068078.731 9 -19055036.96449  20770735.565    20770734.8304   20770744.2324
    713084.674 8    815527.67145  25487158.287    25487158.5654   25487186.5924
 -22297721.540 9 -17364210.06348  21024065.850    21024065.5624   21024075.3094
  -5824834.654 9  -4529621.83746  23734440.124    23734439.1404   23734454.1614
  -9455946.254 9  -6193353.95046  23708893.516    23708892.9664   23708910.9824
 00  4 17  0 14  0.0000000  0  8  3 26 23 17 30  6 22 21             0.000000084
   -862205.15718   -370173.97454         0.000           0.0005   24854708.2065
 -17023003.454 9 -13037877.65848  21758522.689    21758522.6584   21758532.3834
 -21355241.315 9 -16615056.93549  20907810.843    20907810.2144   20907820.0614
 -25073410.626 9 -19059191.67249  20769720.960    20769720.2124   20769729.6054
    806489.198 8    888310.05845  25504932.852    25504932.9234   25504961.1424
 -22233587.253 9 -17314235.35248  21036270.213    21036269.9334   21036279.7164
  -5810739.644 9  -4518638.75546  23737122.232    23737121.3534   23737136.4074
  -9534160.969 9  -6254300.06446  23694009.426    23694008.8404   23694026.8144
 00  4 17  0 14 30.0000000  0  8  3 26 23 17 30  6 22 21             0.000000067
   -966182.75718   -451195.26945  24834907.866    24834906.7225   24834923.0524
 -17003092.645 9 -13022362.72748  21762311.593    21762311.5264   21762321.2834
 -21382330.519 9 -16636165.33449  20902655.868    20902655.2434   20902665.0554
 -25078532.066 9 -19063182.39049  20768746.367    20768745.6174   20768754.9954
    899668.286 8    960916.82945  25522664.547    25522664.5364   25522692.9524
 -22169025.463 9 -17263927.52748  21048555.931    21048555.6384   21048565.4694
  -5796199.814 9  -4507309.04746  23739888.982    23739888.2074   23739903.3294
  -9612159.754 9  -6315077.92746  23679166.388    23679165.8354   23679183.7654
 00  4 17  0 15  0.0000000  0  8  3 26 23 17 30  6 22 21             0.000000030
  -1070021.102 8   -532108.07145  24815148.121    24815147.5514   24815162.4644
 -16982546.006 9 -13006352.34348  21766221.440    21766221.3884   21766231.1444
 -21408975.642 9 -16656927.69349  20897585.414    20897584.7834   20897594.5764
 -25083437.790 9 -19067005.01249  20767812.819    20767812.0834   20767821.4634
    992639.938 8   1033361.93645  25540356.783    25540356.6874   25540385.1694
 -22104023.360 9 -17213276.59848  21060925.480    21060925.1954   21060935.0454
  -5781193.897 9  -4495616.17146  23742744.516    23742743.7714   23742758.8924
  -9689924.600 9  -6375673.50946  23664367.922    23664367.3704   23664385.2484
 00  4 17  0 15 30.0000000  0  8  3 26 23 17 30  6 22 21            -0.000000005
  -1173699.015 8   -612895.83345  24795418.851    24795419.6394   24795433.1944
 -16961357.253 9 -12989841.61247  21770253.472    21770253.4174   21770263.1724
 -21435170.507 9 -16677339.20249  20892600.647    20892600.0144   20892609.7714
 -25088127.543 9 -19070659.34849  20766920.388    20766919.6614   20766929.0344
   1085420.140 8   1105657.87145  25558012.494    25558012.5274   25558040.6534
 -22038562.646 9 -17162268.31048  21073382.249    21073381.9714   21073391.8464
  -5765683.125 9  -4483529.89746  23745696.144    23745695.3574   23745710.5604
  -9767453.149 9  -6436084.95246  23649614.428    23649613.8244   23649631.5824
 00  4 17  0 16  0.0000000  0  8  3 26 23 17 30  6 22 21            -0.000000034
  -1277221.830 8   -693562.72845  24775719.126    24775718.9674   24775733.2644
 -16939533.658 9 -12972836.20547  21774406.346    21774406.2824   21774416.0234
 -21460918.734 9 -16697402.68549  20887700.861    20887700.2364   20887709.9494
 -25092612.983 9 -19074154.47649  20766066.844    20766066.1224   20766075.4864
   1178010.767 8   1177806.07445  25575632.151    25575631.9984   25575660.5104
 -21972636.791 9 -17110897.57448  21085927.504    21085927.2464   21085937.1734
  -5749645.910 9  -4471033.41146  23748747.993    23748747.1054   23748762.3384
  -9844752.795 9  -6496318.03746  23634904.472    23634903.8574   23634921.5894
 00  4 17  0 16 30.0000000  0  8  3 26 23 17 30  6 22 21            -0.000000053
  -1380613.836 8   -774127.70045  24756044.143    24756043.9884   24756058.3754
 -16917077.102 9 -12955337.57247  21778679.656    21778679.5944   21778689.3214
 -21486228.560 9 -16717124.55749  20882884.508    20882883.8714   20882893.5584
 -25096896.981 9 -19077492.63949  20765251.634    20765250.8964   20765260.2644
   1270415.313 8   1249809.25245  25593216.451    25593216.1154   25593244.8124
 -21906244.929 9 -17059163.71848  21098561.465    21098561.2104   21098571.1544
  -5733079.213 9  -4458124.34046  23751900.658    23751899.7824   23751914.9924
  -9921832.514 9  -6556379.75446  23620236.388    23620235.7624   23620253.4164
 00  4 17  0 17  0.0000000  0  8  3 26 23 17 30  6 22 21            -0.000000051
  -1483912.143 8   -854619.64245  24736386.981    24736386.7274   24736401.2664
 -16893988.532 9 -12937346.47447  21783073.211    21783073.1924   21783082.9214
 -21511131.332 9 -16736529.24749  20878145.568    20878144.9414   20878154.6294
 -25100981.558 9 -19080675.40749  20764474.328    20764473.5844   20764482.9584
   1362623.042 8   1321659.08045  25610763.311    25610763.2354   25610791.4904
 -21839402.780 9 -17007078.98948  21111281.154    21111280.8944   21111290.8564
  -5715974.844 9  -4444796.30846  23755155.608    23755154.7194   23755169.8294
  -9998710.313 9  -6616284.12846  23605606.749    23605606.1704   23605623.6374
 00  4 17  0 17 30.0000000  0  8  3 26 23 17 30  6 22 21            -0.000000029
  -1587145.333 8   -935060.89545  24716742.272    24716741.8964   24716756.6184
 -16870289.451 9 -12918879.64847  21787582.960    21787582.9404   21787592.6454
 -21535658.291 9 -16755641.09449  20873478.190    20873477.5724   20873487.2514
 -25104886.933 9 -19083718.53649  20763731.137    20763730.4094   20763739.7844
   1454606.820 8   1393334.39045  25628267.460    25628267.6794   25628295.8904
 -21772115.753 9 -16954647.60048  21124085.517    21124085.2404   21124095.2204
  -5698354.809 9  -4431066.45746  23758508.596    23758507.7274   23758522.7814
 -10075394.909 9  -6676037.97046  23591013.835    23591013.2624   23591030.5794
 00  4 17  0 18  0.0000000  0  8  3 26 23 17 30  6 22 21             0.000000001
  -1690335.572 8  -1015468.67745  24697105.700    24697105.4104   24697119.9314
 -16845991.081 9 -12899945.85247  21792206.818    21792206.7794   21792216.4744
 -21559829.343 9 -16774475.61249  20868878.558    20868877.9274   20868887.5864
 -25108616.622 9 -19086624.76649  20763021.388    20763020.6604   20763030.0084
   1546346.590 8   1464819.60644  25645725.254    25645725.0154   25645753.7704
 -21704394.255 9 -16901877.66548  21136972.531    21136972.2684   21136982.2734
  -5680268.769 9  -4416973.49246  23761950.260    23761949.4344   23761964.4624
 -10151876.898 9  -6735633.93646  23576459.535    23576458.9084   23576476.0874
 00  4 17  0 18 30.0000000  0  8  3 26 23 17 30  6 22 21             0.000000029
  -1793478.232 8  -1095839.39545  24677478.170    24677477.6984   24677492.2934
 -16821088.848 9 -12880541.50947  21796945.591    21796945.5494   21796955.2314
 -21583649.724 9 -16793036.88049  20864345.648    20864345.0154   20864354.6594
 -25112162.745 9 -19089387.95849  20762346.592    20762345.8374   20762355.2004
   1637841.356 8   1536113.88844  25663136.422    25663136.2614   25663164.9724
 -21636249.562 9 -16848777.96748  21149940.098    21149939.8214   21149949.8724
  -5661747.302 9  -4402541.22046  23765474.916    23765473.9254   23765489.0114
 -10228159.837 9  -6795074.78646  23561943.096    23561942.4574   23561959.5074
 00  4 17  0 19  0.0000000  0  8  3 26 23 17 30  6 22 21             0.000000040
  -1896550.638 8  -1176155.40545  24657864.078    24657863.5474   24657878.0094
 -16795583.790 9 -12860667.43147  21801799.040    21801798.9994   21801808.6464
 -21607104.048 9 -16811312.91149  20859882.361    20859881.7244   20859891.3654
 -25115514.817 9 -19091999.94049  20761708.648    20761707.9094   20761717.2414
   1729107.100 8   1607229.65144  25680503.979    25680503.6374   25680532.6354
 -21567682.262 9 -16795348.96848  21162988.057    21162987.7784   21162997.8374
  -5642807.049 9  -4387782.63346  23769079.123    23769078.2004   23769093.2964
 -10304233.918 9  -6854352.90446  23547466.386    23547465.7894   23547482.6944
 00  4 17  0 19 30.0000000  0  8  3 26 23 17 30  6 22 21             0.000000030
  -1999530.542 8  -1256399.33045  24638267.511    24638266.9144   24638281.4884
 -16769465.117 9 -12840315.21147  21806769.181    21806769.1884   21806778.8304
 -21630168.787 9 -16829285.36949  20855493.271    20855492.6434   20855502.2474
 -25118651.538 9 -19094444.12049  20761111.717    20761110.9824   20761120.3054
   1820164.729 8   1678183.28944  25697831.927    25697831.7014   25697861.1084
 -21498679.387 9 -16741580.55348  21176118.923    21176118.6384   21176128.6984
  -5623450.348 9  -4372699.54646  23772762.640    23772761.6404   23772776.8654
 -10380078.210 9  -6913451.96846  23533033.404    23533032.8114   23533049.5904
 00  4 17  0 20  0.0000000  0  8  3 26 23 17 30  6 22 21             0.000000038
  -2102439.863 8  -1336588.28945  24618684.376    24618683.7804   24618698.4304
 -16742734.613 9 -12819486.24847  21811855.816    21811855.8164   21811865.4634
 -21652857.825 9 -16846965.07349  20851175.603    20851174.9724   20851184.5584
 -25121574.514 9 -19096721.74449  20760555.515    20760554.7674   20760564.0674
   1911000.331 8   1748963.86644  25715117.642    25715117.3444   25715146.5144
 -21429268.641 9 -16687494.32048  21189327.445    21189327.1644   21189337.1914
  -5603686.719 9  -4357299.35146  23776523.542    23776522.5364   23776537.7924
 -10455715.550 9  -6972389.76746  23518639.770    23518639.1864   23518655.8944
 00  4 17  0 20 30.0000000  0  8  3 26 23 17 30  6 22 21            -0.000000011
  -2205223.516 8  -1416679.31745  24599125.121    24599124.6614   24599139.1034
 -16715356.090 9 -12798152.33147  21817065.742    21817065.7404   21817075.3684
 -21675121.983 9 -16864313.70549  20846938.821    20846938.2054   20846947.7654
 -25124243.681 9 -19098801.59849  20760047.564    20760046.8194   20760056.1304
   2001664.141 8   1819610.53844  25732370.658    25732370.3514   25732399.1474
 -21359407.343 9 -16633057.01148  21202621.669    21202621.3704   21202631.4244
  -5583441.152 9  -4341523.65046  23780376.106    23780375.1994   23780390.4064
 -10531117.410 9  -7031144.08946  23504290.901    23504290.3094   23504306.9874
 00  4 17  0 21  0.0000000  0  8  3 26 23 17 30  6 22 21            -0.000000056
  -2307877.896 8  -1496669.63345  24579590.536    24579590.1244   24579604.3754
 -16687336.710 9 -12776319.04647  21822397.658    21822397.6394   21822407.2674
 -21696955.894 9 -16881327.07749  20842783.952    20842783.3224   20842792.8744
 -25126660.198 9 -19100684.58349  20759587.720    20759586.9774   20759596.2804
   2092148.612 8   1890117.42644  25749589.618    25749589.1524   25749618.5724
 -21289074.283 9 -16578252.08948  21216005.644    21216005.3554   21216015.4374
  -5562698.336 9  -4325360.46146  23784323.298    23784322.4964   23784337.6704
 -10606274.724 9  -7089707.86646  23489988.697    23489988.1104   23490004.6114
 00  4 17  0 21 30.0000000  0  8  3 26 23 17 30  6 22 21            -0.000000079
  -2410394.800 8  -1576552.82345  24560082.117    24560081.8394   24560095.9344
 -16658668.727 9 -12753980.35747  21827853.027    21827853.0124   21827862.6124
 -21718361.709 9 -16898006.87049  20838710.492    20838709.8614   20838719.3844
 -25128832.459 9 -19102377.23849  20759174.357    20759173.6034   20759182.9264
   2182439.413 7   1960473.35544  25766771.731    25766771.4724   25766801.1064
 -21218250.873 9 -16523065.08248  21229482.938    21229482.6554   21229492.7544
  -5541439.701 9  -4308795.35346  23788368.821    23788367.8954   23788383.1334
 -10681184.740 9  -7148078.94846  23475733.553    23475732.9194   23475749.3764
 00  4 17  0 22  0.0000000  0  8  3 26 23 17 30  6 22 21            -0.000000102
  -2512808.593 8  -1656355.65445  24540593.309    24540593.0214   24540607.1954
 -16629407.763 9 -12731179.60247  21833421.229    21833421.1774   21833430.7894
 -21739390.137 9 -16914392.59349  20834708.859    20834708.2324   20834717.7394
 -25130831.935 9 -19103935.25849  20758793.858    20758793.0974   20758802.4354
   2272476.85617   2030631.80354  25783905.633    25783906.1615   25783935.9065
 -21146980.975 9 -16467530.16648  21243045.199    21243044.9264   21243055.0654
  -5519714.005 9  -4291866.29346  23792503.066    23792502.1934   23792517.4794
 -10755903.306 9  -7206300.85146  23461514.811    23461514.1824   23461530.4584
 00  4 17  0 22 30.0000000  0  8  3 26 23 17 30  6 22 21            -0.000000104
  -2615084.221 8  -1736050.82145  24521130.849    24521130.3854   24521144.6874
 -16599536.215 9 -12707903.07047  21839105.619    21839105.6024   21839115.1674
 -21760023.173 9 -16930470.22249  20830782.463    20830781.8404   20830791.3364
 -25132659.567 9 -19105359.37649  20758446.040    20758445.2974   20758454.6414
   2362274.66117   2100603.51644  25800994.022    25800994.2645   25801023.7374
 -21075253.268 9 -16411638.51448  21256694.595    21256694.3174   21256704.4554
  -5497516.285 9  -4274569.42946  23796727.060    23796726.1694   23796741.6904
 -10830410.832 9  -7264358.33146  23447336.281    23447335.6084   23447351.7704
 00  4 17  0 23  0.0000000  0  8  3 26 23 17 30  6 22 21            -0.000000078
  -2717228.695 8  -1815643.78745  24501693.292    24501692.8724   24501707.1724
 -16569046.644 9 -12684144.96447  21844907.633    21844907.5754   21844917.1484
 -21780285.727 9 -16946259.16349  20826926.608    20826925.9894   20826935.4764
 -25134332.681 9 -19106663.09549  20758127.692    20758126.9384   20758136.2844
   2451809.837 8   2170370.52144  25818032.368    25818032.2304   25818062.5114
 -21003088.801 9 -16355406.52948  21270427.096    21270426.8204   21270436.9464
  -5474880.907 9  -4256931.51446  23801034.462    23801033.5484   23801049.0974
 -10904706.845 9  -7322250.99846  23433197.924    23433197.2264   23433213.2914
 00  4 17  0 23 30.0000000  0  7  3 26 23 17  6 22 21               -0.000000029
  -2819248.013 8  -1895139.20745  24482279.478    24482279.1114   24482293.3684
 -16537942.873 9 -12659908.25247  21850826.462    21850826.3884   21850836.0184
 -21800207.131 9 -16961782.27349  20823135.662    20823135.0344   20823144.5034
 -25135862.727 9 -19107855.33249  20757836.511    20757835.7494   20757845.1094
 -20930526.697 9 -16298864.69748  21284235.255    21284234.9614   21284245.1054
  -5451832.184 9  -4238971.53146  23805420.412    23805419.5014   23805435.1234
 -10978804.509 9  -7379989.10946  23419097.324    23419096.6484   23419112.6364
 00  4 17  0 24  0.0000000  0  7  3 26 23 17  6 22 21                0.000000028
  -2921149.633 8  -1974542.90445  24462888.116    24462887.7964   24462902.0024
 -16506232.773 9 -12635199.08647  21856860.692    21856860.6604   21856870.2634
 -21819797.912 9 -16977047.75649  20819407.600    20819406.9754   20819416.4184
 -25137244.644 9 -19108932.14649  20757573.509    20757572.7414   20757582.0974
 -20857602.045 9 -16242040.36248  21298112.389    21298112.0944   21298122.2394
  -5428379.056 9  -4220696.43046  23809883.335    23809882.5724   23809898.1654
 -11052711.486 9  -7437578.65146  23405032.971    23405032.2944   23405048.2654
 00  4 17  0 24 30.0000000  0  7  3 26 23 17  6 22 21                0.000000078
  -3022939.686 8  -2053859.64945  24443517.954    24443517.6654   24443531.8764
 -16473928.126 9 -12610026.62747  21863008.078    21863008.0254   21863017.5864
 -21839062.276 9 -16992058.88949  20815741.658    20815741.0324   20815750.4494
 -25138454.733 9 -19109875.06749  20757343.231    20757342.4814   20757351.8074
 -20784331.624 9 -16184946.59348  21312055.306    21312055.0314   21312065.2054
  -5404524.144 9  -4202108.24146  23814422.913    23814422.1184   23814437.6704
 -11126415.427 9  -7495009.99046  23391007.269    23391006.6134   23391022.5094
 00  4 17  0 25  0.0000000  0  7  3 26 23 17  6 22 21                0.000000106
  -3124617.445 8  -2133088.88945  24424169.271    24424168.8704   24424183.1394
 -16441054.739 9 -12584410.99747  21869263.681    21869263.6344   21869273.1754
 -21857984.807 9 -17006803.66349  20812140.772    20812140.1454   20812149.5444
 -25139469.492 9 -19110665.78349  20757150.129    20757149.3844   20757158.6934
 -20710697.148 9 -16127569.15148  21326067.516    21326067.2414   21326077.4704
  -5380252.717 9  -4183195.50446  23819041.734    23819040.9314   23819056.3874
 -11199905.397 9  -7552274.60346  23377022.379    23377021.7254   23377037.5314
 00  4 17  0 25 30.0000000  0  7  3 26 23 17  6 22 21                0.000000099
  -3226178.777 8  -2212227.40245  24404842.671    24404842.2394   24404856.4374
 -16407612.795 9 -12558352.33747  21875627.397    21875627.3984   21875636.9794
 -21876524.985 9 -17021250.50049  20808612.660    20808612.0284   20808621.4054
 -25140260.963 9 -19111282.50749  20756999.520    20756998.7794   20757008.0594
 -20636675.220 9 -16069889.79748  21340153.439    21340153.1894   21340163.4644
  -5355538.481 9  -4163937.72946  23823744.871    23823744.0154   23823759.4084
 -11273164.180 9  -7609359.09146  23363081.495    23363080.8764   23363096.5074
 00  4 17  0 26  0.0000000  0  7  3 26 23 17  6 22 21                0.000000063
  -3327606.908 8  -2291262.11345  24385541.354    24385540.8724   24385555.2464
 -16373590.102 9 -12531841.14647  21882101.655    21882101.6564   21882111.2234
 -21894643.973 9 -17035369.14149  20805164.707    20805164.0754   20805173.4234
 -25140807.111 9 -19111708.07349  20756895.567    20756894.8314   20756904.1284
 -20562237.488 9 -16011886.44248  21354318.525    21354318.2634   21354328.5494
  -5330353.706 9  -4144313.30846  23828537.614    23828536.6374   23828552.0164
 -11346161.768 9  -7666240.05346  23349190.360    23349189.7424   23349205.2214
 00  4 17  0 26 30.0000000  0  8  3 26 23 17 29  6 22 21             0.000000010
  -3428884.146 8  -2370179.26345  24366268.749    24366268.2344   24366282.6214
 -16338975.669 9 -12504868.86747  21888688.571    21888688.5464   21888698.1164
 -21912325.702 9 -17049147.06549  20801799.933    20801799.3044   20801808.6304
 -25141091.872 9 -19111929.96249  20756841.368    20756840.6284   20756849.9444
   -289240.62118   -210220.68152         0.000           0.0005          0.0005
 -20487345.420 9 -15953529.05948  21368570.047    21368569.7974   21368580.0954
  -5304694.473 9  -4124319.19146  23833420.468    23833419.5174   23833434.8074
 -11418884.630 9  -7722906.96247  23335351.463    23335350.8234   23335366.2534
 00  4 17  0 27  0.0000000  0  7  3 26 23 17  6 22 21               -0.000000042
  -3530001.194 9  -2448971.58045  24347026.620    24347026.2944   24347040.4844
 -16303743.046 9 -12477414.88647  21895393.050    21895393.0654   21895402.6274
 -21929565.164 9 -17062580.36549  20798519.321    20798518.6954   20798528.0174
 -25141118.422 9 -19111950.64449  20756836.299    20756835.5724   20756844.8674
 -20411985.104 9 -15894806.81848  21382910.677    21382910.4294   21382920.7494
  -5278549.162 9  -4103946.31646  23838395.894    23838394.8724   23838410.1634
 -11491344.020 9  -7779368.56947  23321562.713    23321562.0594   23321577.4344
 00  4 17  0 27 30.0000000  0  7  3 26 23 17  6 22 21               -0.000000076
  -3630952.910 9  -2527635.05945  24327816.030    24327815.7544   24327829.7674
 -16267861.414 9 -12449455.18147  21902221.173    21902221.1784   21902230.7234
 -21946389.316 9 -17075690.05249  20795317.765    20795317.1424   20795326.4754
 -25140895.398 9 -19111776.85249  20756878.706    20756877.9724   20756887.2584
 -20336175.594 9 -15835734.55048  21397336.819    21397336.5724   21397346.9144
  -5251938.696 9  -4083210.99146  23843459.776    23843458.8464   23843474.0124
 -11563555.444 9  -7835636.96447  23307821.146    23307820.4624   23307835.7954
 00  4 17  0 28  0.0000000  0  7  3 26 23 17  6 22 21               -0.000000089
  -3731728.480 9  -2606161.28745  24308638.969    24308638.6004   24308652.5784
 -16231352.172 9 -12421006.42447  21909168.638    21909168.6284   21909178.1704
 -21962826.226 9 -17088497.99449  20792189.872    20792189.2474   20792198.5564
 -25140442.487 9 -19111423.92649  20756964.910    20756964.1834   20756973.4414
 -20259924.727 9 -15776318.36848  21411846.965    21411846.6874   21411857.0144
  -5224886.729 9  -4062131.61546  23848607.676    23848606.7934   23848621.8624
 -11635539.695 9  -7891728.34247  23294122.786    23294122.1254   23294137.4214
 00  4 17  0 28 30.0000000  0  7  3 26 23 17  6 22 21               -0.000000083
  -3832332.639 9  -2684553.92845  24289494.476    24289494.1134   24289508.0874
 -16194228.996 9 -12392079.27347  21916232.963    21916232.9784   21916242.5254
 -21978902.878 9 -17101025.21049  20789130.571    20789129.9354   20789139.2284
 -25139771.729 9 -19110901.24149  20757092.543    20757091.8144   20757101.0674
 -20183249.392 9 -15716571.42548  21426437.901    21426437.6164   21426447.9434
  -5197412.039 9  -4040722.85046  23853835.932    23853835.0454   23853850.2394
 -11707313.143 9  -7947655.44947  23280464.556    23280463.9114   23280479.1514
 00  4 17  0 29  0.0000000  0  7  3 26 23 17  6 22 21               -0.000000059
  -3932775.465 9  -2762820.85745  24270380.705    24270380.3064   24270394.3604
 -16156506.016 9 -12362684.74747  21923411.424    21923411.3984   21923420.9784
 -21994636.919 9 -17113285.45649  20786136.422    20786135.7984   20786145.0844
 -25138910.723 9 -19110230.31249  20757256.408    20757255.6614   20757264.9214
 -20106169.490 9 -15656509.24548  21441105.796    21441105.5214   21441115.8554
  -5169518.797 9  -4018987.94146  23859143.856    23859142.9894   23859158.2064
 -11778883.277 9  -8003424.13347  23266845.001    23266844.3904   23266859.5884
 00  4 17  0 29 30.0000000  0  7  3 26 23 17  6 22 21               -0.000000028
  -4033069.393 9  -2840971.76645  24251295.212    24251294.8184   24251308.9284
 -16118213.834 9 -12332846.67547  21930698.194    21930698.1944   21930707.8174
 -22010035.293 9 -17125284.14149  20783206.202    20783205.5864   20783214.8714
 -25137876.970 9 -19109424.76949  20757453.072    20757452.3254   20757461.6004
 -20028692.082 9 -15596137.31648  21455849.347    21455849.0554   21455859.4014
  -5141224.619 9  -3996940.60346  23864528.156    23864527.2214   23864542.5004
 -11850244.024 9  -8059029.65947  23253265.278    23253264.6504   23253279.8034
 00  4 17  0 30  0.0000000  0  7  3 26 23 17  6 22 21               -0.000000005
  -4133221.172 9  -2919011.91345  24232236.866    24232236.3924   24232250.5684
 -16079376.794 9 -12302584.04947  21938088.679    21938088.6674   21938098.2864
 -22025083.269 9 -17137009.78849  20780342.610    20780341.9894   20780351.2684
 -25136669.073 9 -19108483.52949  20757682.912    20757682.1564   20757691.4114
 -19950819.992 9 -15535457.84148  21470667.933    21470667.6564   21470677.9994
  -5112504.151 9  -3974561.09846  23869993.507    23869992.5484   23870007.8614
 -11921386.584 9  -8114465.16247  23239727.022    23239726.4634   23239741.4934
 00  4 17  0 30 30.0000000  0  8  3 26 23 17 29  6 22 21             0.000000012
  -4233242.156 9  -2996950.15346  24213203.299    24213202.8894   24213217.0454
 -16039971.149 9 -12271878.34447  21945587.338    21945587.3064   21945596.9624
 -22039775.146 9 -17148457.95549  20777546.790    20777546.1744   20777555.4614
 -25135278.157 9 -19107399.68049  20757947.613    20757946.8534   20757956.0954
   -204791.95818   -141869.91852         0.000           0.0005          0.0005
 -19872563.865 9 -15474479.12048  21485559.676    21485559.3774   21485569.7414
  -5083343.335 9  -3951838.46846  23875542.573    23875541.6874   23875557.1064
 -11992311.001 9  -8169730.68447  23226230.356    23226229.7864   23226244.6944
 00  4 17  0 31  0.0000000  0  7  3 26 23 17  6 22 21                0.000000018
  -4333141.114 9  -3074793.31346  24194193.015    24194192.6294   24194206.5824
 -15999985.099 9 -12240720.37747  21953196.445    21953196.4084   21953206.0414
 -22054097.202 9 -17159617.94849  20774821.346    20774820.7314   20774830.0074
 -25133698.161 9 -19106168.49749  20758248.226    20758247.4744   20758256.7104
 -19793914.806 9 -15413194.21648  21500526.104    21500525.8464   21500536.2184
  -5053746.333 9  -3928775.94046  23881174.691    23881173.8284   23881189.3254
 -12063025.946 9  -8224832.98047  23212773.560    23212772.9824   23212787.8124
 00  4 17  0 31 30.0000000  0  8  3 26 23 17 29  6 22 21             0.000000010
  -4432906.166 9  -3152532.12146  24175208.252    24175207.8824   24175221.8234
 -15959400.811 9 -12209096.25347  21960919.337    21960919.2824   21960928.9194
 -22068033.753 9 -17170477.54549  20772169.256    20772168.6474   20772177.9124
 -25131905.626 9 -19104771.69849  20758589.315    20758588.5784   20758597.8074
   -420466.335 8   -309923.72952         0.000           0.0004          0.0005
 -19714880.042 9 -15351608.76248  21515565.986    21515565.7344   21515576.1574
  -5023716.293 9  -3905375.99646  23886889.166    23886888.2614   23886903.9554
 -12133519.453 9  -8279762.73647  23199358.871    23199358.3294   23199373.1094
 00  4 17  0 32  0.0000000  0  8  3 26 23 17 29  6 22 21            -0.000000006
  -4532511.293 9  -3230146.32846  24156253.941    24156253.5234   24156267.4044
 -15918198.564 9 -12176990.59947  21968759.856    21968759.8144   21968769.4234
 -22081576.435 9 -17181030.23349  20769592.144    20769591.5314   20769600.7774
 -25129879.014 9 -19103192.49949  20758974.956    20758974.2214   20758983.4384
   -528353.29018   -129837.54152         0.000           0.0005          0.0005
 -19635464.606 9 -15289726.67948  21530678.312    21530678.0424   21530688.5074
  -4993251.709 9  -3881637.43646  23892686.443    23892685.5284   23892701.2594
 -12203787.098 9  -8334516.47547  23185987.208    23185986.6364   23186001.3704
 00  4 17  0 32 30.0000000  0  7  3 26 23 17  6 22 21               -0.000000018
  -4631950.941 9  -3307631.59746  24137331.072    24137330.7244   24137344.4894
 -15876366.232 9 -12144393.97547  21976720.264    21976720.2034   21976729.8444
 -22094732.279 9 -17191281.49049  20767088.640    20767088.0344   20767097.2724
 -25127619.670 9 -19101431.95349  20759404.900    20759404.1734   20759413.3644
 -19555652.030 9 -15227535.13948  21545866.147    21545865.8974   21545876.4044
  -4962376.453 9  -3857578.87546  23898561.913    23898560.9304   23898576.6284
 -12273823.963 9  -8389090.39547  23172659.435    23172658.8734   23172673.5624
 00  4 17  0 33  0.0000000  0  7  3 26 23 17  6 22 21               -0.000000032
  -4731214.172 9  -3384979.39946  24118441.783    24118441.4714   24118455.1904
 -15833925.810 9 -12111323.51447  21984796.355    21984796.3124   21984805.9514
 -22107504.718 9 -17201233.98849  20764658.109    20764657.4974   20764666.7204
 -25125126.592 9 -19099489.27549  20759879.328    20759878.5854   20759887.7844
 -19475443.124 9 -15165034.76648  21561129.459    21561129.2014   21561139.7014
  -4931103.109 9  -3833210.11546  23904513.136    23904512.1904   23904527.8294
 -12343616.413 9  -8443473.85847  23159378.171    23159377.6074   23159392.2434
 00  4 17  0 33 30.0000000  0  7  3 26 23 17  6 22 21               -0.000000048
  -4830278.614 9  -3462172.30846  24099590.309    24099590.0324   24099603.6154
 -15790897.127 9 -12077794.66347  21992984.432    21992984.3844   21992994.0314
 -22119893.508 9 -17210887.53749  20762300.542    20762299.9294   20762309.1504
 -25122397.458 9 -19097362.66149  20760398.683    20760397.9164   20760407.1184
 -19394840.002 9 -15102227.21048  21576467.788    21576467.4924   21576478.0344
  -4899424.941 9  -3808525.91746  23910541.370    23910540.5174   23910556.0854
 -12413152.606 9  -8497657.63747  23146145.699    23146145.0984   23146159.7144
 00  4 17  0 34  0.0000000  0  7  3 26 23 17  6 22 21               -0.000000060
  -4929148.825 9  -3539213.86346  24080775.766    24080775.4074   24080789.0014
 -15747292.591 9 -12043817.10647  22001282.084    22001282.0504   22001291.7204
 -22131905.473 9 -17220247.45849  20760014.689    20760014.0714   20760023.2804
 -25119435.168 9 -19095054.37449  20760962.349    20760961.5954   20760970.8204
 -19313823.601 9 -15039097.62648  21591884.737    21591884.4494   21591895.0204
  -4867335.367 9  -3783521.14046  23916647.912    23916647.0504   23916662.5944
 -12482440.535 9  -8551647.97647  23132960.474    23132959.8264   23132974.3744
 00  4 17  0 34 30.0000000  0  7  3 26 23 17  6 22 21               -0.000000069
  -5027842.579 9  -3616117.92746  24061994.858    24061994.4284   24062008.0104
 -15703117.257 9 -12009394.76547  22009688.410    22009688.3504   22009698.0094
 -22143546.695 9 -17229318.48649  20757799.438    20757798.8054   20757808.0034
 -25116248.743 9 -19092571.43849  20761568.699    20761567.9364   20761577.1594
 -19232384.959 9 -14975639.01848  21607381.992    21607381.7314   21607392.2934
  -4834835.286 9  -3758196.49646  23922832.575    23922831.6984   23922847.2714
 -12551490.125 9  -8605452.59047  23119820.539    23119819.9124   23119834.3554
 00  4 17  0 35  0.0000000  0  7  3 26 23 17  6 22 21               -0.000000081
  -5126348.369 9  -3692875.52046  24043249.741    24043249.2754   24043262.8904
 -15658374.541 9 -11974530.31247  22018202.645    22018202.5964   22018212.2444
 -22154806.264 9 -17238092.12349  20755656.776    20755656.1484   20755665.3214
 -25112837.699 9 -19089913.47249  20762217.795    20762217.0564   20762226.2384
 -19150534.438 9 -14911859.46848  21622957.627    21622957.3784   21622967.9834
  -4801918.169 9  -3732546.89046  23929096.538    23929095.6224   23929111.3044
 -12620314.054 9  -8659081.36447  23106723.590    23106722.9794   23106737.3474
 00  4 17  0 35 30.0000000  0  7  3 26 23 17  6 22 21               -0.000000084
  -5224661.957 9  -3769483.36146  24024541.163    24024540.7274   24024554.0934
 -15613054.418 9 -11939215.93247  22026826.774    22026826.7254   22026836.3694
 -22165684.098 9 -17246568.30349  20753586.782    20753586.1514   20753595.2954
 -25109207.276 9 -19087084.56049  20762908.644    20762907.8984   20762917.0734
 -19068267.799 9 -14847755.67048  21638612.498    21638612.2504   21638622.8794
  -4768575.806 9  -3706565.92246  23935441.412    23935440.4504   23935456.1534
 -12688913.705 9  -8712535.37447  23093669.303    23093668.6964   23093682.9904
 00  4 17  0 36  0.0000000  0  7  3 26 23 17  6 22 21               -0.000000073
  -5322798.488 9  -3845953.21746  24005866.243    24005865.7964   24005879.0724
 -15567141.893 9 -11903439.93647  22035563.663    22035563.6274   22035573.2834
 -22176199.479 9 -17254762.05649  20751585.739    20751585.1074   20751594.2334
 -25105368.499 9 -19084093.29449  20763639.111    20763638.3624   20763647.5344
 -18985593.609 9 -14783334.29748  21654344.941    21654344.6894   21654355.3294
  -4734827.266 9  -3680268.45346  23941863.604    23941862.6534   23941878.4094
 -12757298.037 9  -8765821.60647  23080655.987    23080655.3854   23080669.6514
 00  4 17  0 36 30.0000000  0  7  3 26 23 17  6 22 21               -0.000000060
  -5420755.760 9  -3922283.40846  23987225.524    23987224.9804   23987238.2714
 -15520642.159 9 -11867206.37947  22044412.262    22044412.2214   22044421.8964
 -22186350.228 9 -17262671.68349  20749654.051    20749653.4144   20749662.5414
 -25101325.098 9 -19080942.58149  20764408.494    20764407.7704   20764416.9404
 -18902537.444 9 -14718615.28048  21670150.070    21670149.8374   21670160.5174
  -4700685.628 9  -3653664.66946  23948360.660    23948359.6264   23948375.4544
 -12825465.828 9  -8818939.10547  23067683.875    23067683.2854   23067697.5374
 00  4 17  0 37  0.0000000  0  7  3 26 23 17  6 22 21               -0.000000046
  -5518525.236 9  -3998467.26246  23968620.451    23968619.9404   23968633.2314
 -15473562.832 9 -11830521.19947  22053371.206    22053371.1584   22053380.8184
 -22196135.880 9 -17270296.82149  20747791.864    20747791.2334   20747800.3474
 -25097071.740 9 -19077628.26449  20765217.884    20765217.1494   20765226.3084
 -18819110.341 9 -14653607.22448  21686025.804    21686025.5374   21686036.2454
  -4666141.137 9  -3626746.96946  23954934.337    23954933.2654   23954949.1424
 -12893406.159 9  -8871879.35847  23054755.069    23054754.4464   23054768.6724
 00  4 17  0 37 30.0000000  0  7  3 26 23 17  6 22 21               -0.000000032
  -5616112.688 9  -4074509.28046  23950050.059    23950049.5664   23950062.8814
 -15425902.964 9 -11793383.64047  22062440.567    22062440.5104   22062450.2084
 -22205566.663 9 -17277645.44049  20745997.173    20745996.5464   20746005.6624
 -25092601.086 9 -19074144.62649  20766068.639    20766067.9004   20766077.0624
 -18735323.732 9 -14588319.03448  21701969.930    21701969.6584   21701980.4004
  -4631196.491 9  -3599517.45946  23961584.109    23961583.1804   23961598.9154
 -12961102.312 9  -8924629.34947  23041872.727    23041872.0654   23041886.2444
 00  4 17  0 38  0.0000000  0  7  3 26 23 17  6 22 21               -0.000000023
  -5713523.014 9  -4150413.28546  23931513.385    23931512.8394   23931526.2614
 -15377670.043 9 -11755799.55847  22071618.987    22071618.9264   22071628.6514
 -22214644.133 9 -17284718.75349  20744269.736    20744269.1114   20744278.2244
 -25087907.585 9 -19070487.34349  20766961.791    20766961.0424   20766970.1914
 -18651181.650 9 -14522753.84848  21717981.720    21717981.4444   21717992.1774
  -4595853.883 9  -3571977.85346  23968309.650    23968308.7154   23968324.5314
 -13028553.929 9  -8977188.79547  23029036.915    23029036.2704   23029050.3574
 00  4 17  0 38 30.0000000  0  7  3 26 23 17  6 22 21               -0.000000020
  -5810738.650 9  -4226165.58646  23913013.694    23913013.1964   23913026.4874
 -15328880.317 9 -11717781.60247  22080903.394    22080903.3494   22080913.0164
 -22223363.163 9 -17291512.76249  20742610.545    20742609.9104   20742619.0204
 -25082985.929 9 -19066652.27549  20767898.385    20767897.6144   20767906.7944
 -18566680.167 9 -14456908.61048  21734061.884    21734061.6224   21734072.3654
  -4560096.594 9  -3544115.11546  23975114.082    23975113.2044   23975129.0644
 -13095754.836 9  -9029552.88347  23016248.819    23016248.1734   23016262.1664
 00  4 17  0 39  0.0000000  0  7  3 26 23 17  6 22 21               -0.000000012
  -5907756.720 9  -4301763.93346  23894551.666    23894551.1574   23894564.4064
 -15279533.863 9 -11679329.83247  22090293.729    22090293.6584   22090303.3044
 -22231736.297 9 -17298037.24749  20741017.155    20741016.5234   20741025.6284
 -25077838.526 9 -19062641.30249  20768877.905    20768877.1364   20768886.3104
 -18481817.207 9 -14390781.71248  21750210.886    21750210.5924   21750221.3654
  -4523926.948 9  -3515931.07246  23981997.009    23981996.1294   23982012.0094
 -13162708.690 9  -9081724.46647  23003507.714    23003507.0944   23003520.9614
 00  4 17  0 39 30.0000000  0  8  3 26 23 17 29  6 22 21            -0.000000001
  -6004573.680 9  -4377205.58246  23876127.918    23876127.3514   23876140.5214
 -15229630.073 9 -11640443.77247  22099790.084    22099790.0144   22099799.6804
 -22239765.032 9 -17304293.36649  20739489.279    20739488.6514   20739497.7444
 -25072479.220 9 -19058465.20849  20769897.704    20769896.9504   20769906.1384
   -146165.71518    -86515.65552         0.000           0.0005          0.0005
 -18396593.986 9 -14324374.09548  21766428.416    21766428.1454   21766438.8984
  -4487362.971 9  -3487439.76346  23988955.085    23988954.1724   23988970.0054
 -13229423.173 9  -9133709.53647  22990812.229    22990811.6134   22990825.3534
 00  4 17  0 40  0.0000000  0  8  3 26 23 17 29  6 22 21             0.000000014
  -6101187.207 9  -4452488.70546  23857742.796    23857742.2394   23857755.4554
 -15179179.649 9 -11601131.77147  22109390.415    22109390.3584   22109400.0424
 -22247454.405 9 -17310285.04349  20738026.018    20738025.3844   20738034.4684
 -25066911.153 9 -19054126.44649  20770957.282    20770956.5264   20770965.6954
   -254670.022 8   -171065.49752         0.000           0.0004          0.0005
 -18311006.824 9 -14257682.88348  21782715.167    21782714.8804   21782725.5994
  -4450404.687 9  -3458641.19946  23995988.115    23995987.1944   23996002.9924
 -13295914.273 9  -9185520.53147  22978159.195    22978158.5824   22978172.2594
 00  4 17  0 40 30.0000000  0  7  3 26 23 17  6 22 21                0.000000031
  -6197589.251 9  -4527607.04846  23839397.971    23839397.5284   23839410.7064
 -15128172.941 9 -11561386.29547  22119096.643    22119096.6184   22119106.2874
 -22254807.865 9 -17316014.97149  20736626.697    20736626.0734   20736635.1444
 -25061130.067 9 -19049621.69249  20772057.364    20772056.6054   20772065.7654
 -18225071.652 9 -14190720.49748  21799068.095    21799067.8594   21799078.5654
  -4413064.627 9  -3429545.14946  24003093.776    24003092.8644   24003108.7554
 -13362186.076 9  -9237160.65247  22965547.951    22965547.3434   22965560.9314
 00  4 17  0 41  0.0000000  0  7  3 26 23 17  6 22 21                0.000000042
  -6293785.047 9  -4602564.68146  23821092.435    23821091.9324   23821104.9634
 -15076602.154 9 -11521201.28647  22128910.308    22128910.2644   22128919.8934
 -22261818.167 9 -17321477.50649  20735292.632    20735292.0164   20735301.0714
 -25055134.361 9 -19044949.70549  20773198.309    20773197.5654   20773206.7134
 -18138796.571 9 -14123493.24648  21815485.752    21815485.5034   21815496.2374
  -4375363.055 9  -3400167.40046  24010268.202    24010267.2884   24010283.2994
 -13428240.388 9  -9288631.31147  22952978.020    22952977.3844   22952990.9744
 00  4 17  0 41 30.0000000  0  7  3 26 23 17  6 22 21                0.000000048
  -6389765.882 9  -4677354.80346  23802827.781    23802827.3154   23802840.2564
 -15024471.964 9 -11480580.38247  22138830.338    22138830.3074   22138839.9844
 -22268485.220 9 -17326672.57149  20734023.932    20734023.3144   20734032.3194
 -25048906.598 9 -19040096.89349  20774383.419    20774382.6744   20774391.7944
 -18052167.119 9 -14055989.87048  21831970.857    21831970.6114   21831981.3444
  -4337299.554 9  -3370507.63546  24017511.521    24017510.6434   24017526.5634
 -13494073.082 9  -9339929.28747  22940450.274    22940449.6584   22940463.1994
 00  4 17  0 42  0.0000000  0  7  3 26 23 17  6 22 21                0.000000051
  -6485527.501 9  -4751974.12046  23784604.895    23784604.4314   23784617.3694
 -14971791.872 9 -11439530.97447  22148855.059    22148855.0174   22148864.7304
 -22274819.913 9 -17331608.65249  20732818.497    20732817.8694   20732826.8564
 -25042431.883 9 -19035051.65349  20775615.530    20775614.7714   20775623.9034
 -17965183.865 9 -13988210.80048  21848523.305    21848523.0624   21848533.8264
  -4298875.088 9  -3340566.59846  24024823.553    24024822.6614   24024838.5214
 -13559681.764 9  -9391052.71047  22927965.222    22927964.5714   22927978.0474
 00  4 17  0 42 30.0000000  0  8  3 26 23 17 29  6 22 21             0.000000018
  -6581072.423 9  -4826424.56546  23766423.146    23766422.7384   23766435.6404
 -14918562.547 9 -11398053.59847  22158984.237    22158984.1944   22158993.9384
 -22280811.793 9 -17336277.60449  20731678.242    20731677.6084   20731686.5644
 -25035715.705 9 -19029818.25649  20776893.578    20776892.8264   20776901.9364
   -426324.88918   -316526.72755         0.000           0.0005   24372991.7045
 -17877842.231 9 -13920152.47948  21865143.968    21865143.7164   21865154.5074
  -4260103.844 9  -3310355.33746  24032201.520    24032200.6644   24032216.5564
 -13625058.942 9  -9441995.74347  22915524.181    22915523.5444   22915536.9294
 00  4 17  0 43  0.0000000  0  8  3 26 23 17 29  6 22 21             0.000000021
  -6676390.528 9  -4900698.28046  23748284.655    23748284.2654   23748297.0714
 -14864800.775 9 -11356161.32747  22169214.747    22169214.6824   22169224.4904
 -22286436.210 9 -17340660.22649  20730607.923    20730607.2994   20730616.2134
 -25028758.407 9 -19024396.97949  20778217.503    20778216.7404   20778225.8274
   -534803.68818   -401054.85345  24352326.392    24352325.7365   24352349.7634
 -17790114.966 9 -13851793.66648  21881838.011    21881837.7194   21881848.5454
  -4220975.355 9  -3279865.70246  24039647.572    24039646.6394   24039662.5934
 -13690197.836 9  -9492753.10247  22903128.413    22903127.8254   22903141.1494
 00  4 17  0 43 30.0000000  0  8  3 26 23 17 29  6 22 21             0.000000019
  -6771472.099 9  -4974787.67146  23730191.095    23730190.7124   23730203.4714
 -14810511.013 9 -11313857.62847  22179545.731    22179545.6504   22179555.4584
 -22291696.615 9 -17344759.19849  20729606.879    20729606.2424   20729615.1294
 -25021553.698 9 -19018782.90949  20779588.508    20779587.7314   20779596.8344
   -643264.754 8   -485569.21145  24331686.779    24331686.3644   24331709.8174
 -17702001.916 9 -13783134.23948  21898605.404    21898605.1414   21898616.0074
  -4181468.396 9  -3249081.14846  24047165.652    24047164.6644   24047180.6264
 -13755096.250 9  -9543323.08147  22890778.492    22890777.9154   22890791.1804
 00  4 17  0 44  0.0000000  0  8  3 26 23 17 29  6 22 21             0.000000004
  -6866321.381 9  -5048696.06246  23712141.803    23712141.3574   23712154.1434
 -14755679.043 9 -11271131.43347  22189979.979    22189979.8974   22189989.6814
 -22296570.398 9 -17348556.90749  20728679.409    20728678.7744   20728687.6654
 -25014111.775 9 -19012983.99749  20781004.646    20781003.8804   20781012.9824
   -751722.055 8   -570080.62345  24311047.864    24311047.5734   24311070.5004
 -17613520.584 9 -13714187.84247  21915442.924    21915442.6654   21915453.5384
  -4141582.825 9  -3218001.57546  24054755.585    24054754.6304   24054770.6304
 -13819749.427 9  -9593701.97047  22878475.234    22878474.6224   22878487.8204
 00  4 17  0 44 30.0000000  0  8  3 26 23 17 29  6 22 21            -0.000000024
  -6960925.628 9  -5122413.50046  23694139.135    23694138.7394   23694151.3944
 -14700285.743 9 -11227967.84047  22200520.962    22200520.8794   22200530.6644
 -22301032.551 9 -17352033.86649  20727830.238    20727829.6024   20727838.4994
 -25006422.662 9 -19006992.46749  20782467.843    20782467.0574   20782476.1474
   -860186.400 8   -654597.53945  24290407.629    24290407.1324   24290430.0084
 -17524667.359 9 -13644951.65947  21932351.187    21932350.9204   21932361.8204
  -4101295.180 9  -3186608.69746  24062422.216    24062421.2224   24062437.1814
 -13884146.563 9  -9643881.34547  22866220.696    22866220.1164   22866233.2524
 00  4 17  0 45  0.0000000  0  8  3 26 23 17 29  6 22 21            -0.000000045
  -7055273.896 9  -5195931.48746  23676185.162    23676184.7884   23676197.3794
 -14644311.601 9 -11184351.63847  22211172.502    22211172.4354   22211182.2164
 -22305098.211 9 -17355201.86749  20727056.512    20727055.8784   20727064.7784
 -24998469.068 9 -19000794.85349  20783981.361    20783980.5804   20783989.6684
   -968643.814 8   -739109.02645  24269768.517    24269767.9804   24269790.8704
 -17435441.142 9 -13575424.83147  21949330.447    21949330.1754   21949341.0954
  -4060577.749 9  -3154880.91546  24070170.427    24070169.5094   24070185.4434
 -13948289.100 9  -9693862.34647  22854014.644    22854014.0364   22854027.1364
 00  4 17  0 45 30.0000000  0  8  3 26 23 17 29  6 22 21            -0.000000051
  -7149385.914 9  -5269265.38346  23658276.151    23658275.7474   23658288.2954
 -14587743.693 9 -11140272.76147  22221936.930    22221936.9234   22221946.7494
 -22308808.685 9 -17358093.10449  20726350.391    20726349.7674   20726358.6444
 -24990252.254 9 -18994392.13049  20785544.956    20785544.1874   20785553.2904
  -1077102.372 8   -823621.41745  24249129.109    24249128.6484   24249151.4364
 -17345868.330 9 -13505627.92947  21966375.648    21966375.3554   21966386.3344
  -4019447.965 9  -3122831.83046  24077997.259    24077996.3304   24078012.2574
 -14012187.002 9  -9743652.72747  22841855.136    22841854.5234   22841867.5824
 00  4 17  0 46  0.0000000  0  8  3 26 23 17 29  6 22 21            -0.000000045
  -7243268.082 9  -5342420.16646  23640410.831    23640410.4654   23640422.9444
 -14530583.794 9 -11095732.59447  22232814.123    22232814.0934   22232823.8424
 -22312167.369 9 -17360710.21749  20725711.218    20725710.5894   20725719.4514
 -24981781.160 9 -18987791.26949  20787156.909    20787156.1514   20787165.2504
  -1185557.689 8   -908131.30245  24228490.348    24228490.1164   24228512.5054
 -17255953.010 9 -13435564.13647  21983486.051    21983485.7894   21983496.7794
  -3977928.333 9  -3090478.97146  24085898.205    24085897.3204   24085913.3234
 -14075839.895 9  -9793252.19247  22829742.218    22829741.5694   22829754.5774
 00  4 17  0 46 30.0000000  0  8  3 26 23 17 29  6 22 21            -0.000000031
  -7336937.192 9  -5415408.93746  23622586.120    23622585.7544   23622598.1384
 -14472859.964 9 -11050752.99947  22243798.607    22243798.5994   22243808.3974
 -22315222.012 9 -17363090.41849  20725129.970    20725129.3324   20725138.1574
 -24973082.790 9 -18981013.30849  20788812.144    20788811.3854   20788820.5144
  -1294002.089 8   -992632.69345  24207853.596    24207853.2534   24207875.6494
 -17165710.922 9 -13365245.71947  22000658.614    22000658.3114   22000669.3374
  -3936032.668 9  -3057833.11046  24093870.772    24093869.8714   24093885.8754
 -14139267.889 9  -9842676.41447  22817672.105    22817671.4854   22817684.4464
 00  4 17  0 47  0.0000000  0  8  3 26 23 17 29  6 22 21             0.000000007
  -7430407.359 9  -5488242.67546  23604799.229    23604798.7784   23604811.1254
 -14414592.897 9 -11005350.10347  22254886.538    22254886.5324   22254896.2784
 -22318007.813 9 -17365261.12649  20724599.827    20724599.1794   20724607.9894
 -24964179.869 9 -18974075.95949  20790506.312    20790505.5524   20790514.6734
  -1402418.701 8  -1077112.42745  24187222.112    24187221.7854   24187243.9734
 -17075157.391 9 -13294684.62147  22017890.408    22017890.1124   22017901.1914
  -3893803.300 9  -3024927.20346  24101906.855    24101905.9884   24101921.9254
 -14202479.965 9  -9891932.39847  22805643.081    22805642.4834   22805655.3904
 00  4 17  0 47 30.0000000  0  8  3 26 23 17 29  6 22 21             0.000000034
  -7523677.062 9  -5560920.20546  23587050.504    23587050.0854   23587062.3444
 -14355816.798 9 -10959550.55947  22266071.256    22266071.2494   22266080.9954
 -22320514.278 9 -17367214.17049  20724122.845    20724122.1894   20724131.0074
 -24955087.970 9 -18966991.35549  20792236.439    20792235.6654   20792244.8014
  -1510827.059 8  -1161585.75245  24166592.225    24166591.9284   24166613.8644
 -16984309.738 9 -13223894.34347  22035178.223    22035177.9044   22035189.0594
  -3851271.797 9  -2991785.89146  24110000.382    24109999.4644   24110015.5764
 -14265465.769 9  -9941012.06847  22793657.108    22793656.5404   22793669.4204
 00  4 17  0 48  0.0000000  0  8  3 26 23 17 29  6 22 21             0.000000048
  -7616731.499 9  -5633429.98046  23569342.736    23569342.2844   23569354.5024
 -14296546.045 9 -10913365.56847  22277350.253    22277350.1914   22277359.8824
 -22322716.523 9 -17368930.16349  20723703.732    20723703.0794   20723711.8804
 -24945811.005 9 -18959762.54149  20794001.758    20794000.9834   20794010.1284
  -1619204.212 8  -1246034.76845  24145968.254    24145967.9754   24145989.6514
 -16893152.575 9 -13152862.89447  22052524.951    22052524.6254   22052535.8024
  -3808419.632 9  -2958394.71846  24118154.978    24118154.1094   24118170.1724
 -14328205.449 9  -9989899.95347  22781717.976    22781717.3864   22781730.2654
 00  4 17  0 48 30.0000000  0  8  3 26 23 17 29  6 22 21             0.000000049
  -7709568.448 9  -5705770.28946  23551676.345    23551675.8644   23551688.0064
 -14236783.500 9 -10866797.35847  22288722.703    22288722.6584   22288732.3154
 -22324607.803 9 -17370403.84449  20723343.798    20723343.1484   20723351.9334
 -24936327.998 9 -18952373.18149  20795806.226    20795805.4644   20795814.6214
  -1727543.411 8  -1330454.21145  24125351.624    24125351.1584   24125372.6764
 -16801679.787 9 -13081585.48747  22069931.760    22069931.4244   22069942.5974
  -3765240.485 9  -2924748.73446  24126371.754    24126370.8414   24126387.1184
 -14390696.409 9 -10038594.03947  22769826.208    22769825.5984   22769838.4384
 00  4 17  0 49  0.0000000  0  8  3 26 23 17 29  6 22 21             0.000000026
  -7802166.890 9  -5777924.75246  23534055.353    23534054.9034   23534067.0084
 -14176533.881 9 -10819849.61647  22300187.845    22300187.7424   22300197.4514
 -22326161.856 9 -17371614.75149  20723048.035    20723047.3934   20723056.1624
 -24926604.181 9 -18944796.17549  20797656.603    20797655.8434   20797664.9924
  -1835850.054 8  -1414848.26945  24104741.073    24104740.7074   24104761.8994
 -16709886.133 9 -13010058.06447  22087399.605    22087399.3014   22087410.4524
  -3721734.632 9  -2890848.19346  24134650.767    24134649.8204   24134666.1714
 -14452928.749 9 -10087086.59747  22757983.632    22757983.0174   22757995.8494
 00  4 17  0 49 30.0000000  0  8  3 26 23 17 29  6 22 21            -0.000000003
  -7894495.482 9  -5849868.94746  23516485.682    23516485.2174   23516497.3584
 -14115763.667 9 -10772496.21447  22311751.921    22311751.8764   22311761.6104
 -22327326.589 9 -17372522.29549  20722826.370    20722825.7364   20722834.4804
 -24916595.609 9 -18936997.28249  20799561.169    20799560.4144   20799569.5294
  -1944090.231 9  -1499190.56545  24084143.045    24084142.7964   24084163.7954
 -16617736.236 9 -12938253.04947  22104935.217    22104934.9314   22104946.0984
  -3677847.726 9  -2856650.72946  24143002.212    24143001.3284   24143017.6534
 -14514879.792 9 -10135359.97747  22746194.613    22746193.9884   22746206.7904
 00  4 17  0 50  0.0000000  0  8  3 26 23 17 29  6 22 21            -0.000000034
  -7986566.452 9  -5921612.39146  23498965.003    23498964.5864   23498976.6734
 -14054477.125 9 -10724740.48547  22323414.379    22323414.2824   22323424.1044
 -22328129.045 9 -17373147.54749  20722673.658    20722673.0124   20722681.7404
 -24906314.749 9 -18928986.21249  20801517.559    20801516.7904   20801525.9044
  -2052269.192 8  -1583485.18345  24063556.802    24063556.6084   24063577.2804
 -16525240.157 9 -12866178.28447  22122536.760    22122536.4574   22122547.6394
  -3633593.455 9  -2822167.00546  24151423.655    24151422.7584   24151439.0654
 -14576589.852 9 -10183445.57347  22734451.443    22734450.8084   22734463.5464
 00  4 17  0 50 30.0000000  0  8  3 26 23 17 29  6 22 21            -0.000000071
  -8078365.880 9  -5993144.26046  23481495.974    23481495.5604   23481507.6374
 -13992674.953 9 -10676582.96547  22335174.937    22335174.8704   22335184.7124
 -22328583.074 9 -17373501.29949  20722587.236    20722586.5924   20722595.2944
 -24895759.843 9 -18920761.60249  20803526.082    20803525.3194   20803534.4424
  -2160412.916 9  -1667752.34945  24042977.283    24042977.0554   24042997.7034
 -16432424.630 9 -12793854.59647  22140199.060    22140198.7394   22140209.9224
  -3589003.859 9  -2787421.97846  24159908.897    24159907.9434   24159924.2564
 -14638088.812 9 -10231366.68247  22722748.442    22722747.8104   22722760.4914
 00  4 17  0 51  0.0000000  0  8  3 26 23 17 29  6 22 21            -0.000000095
  -8169862.623 9  -6064440.26546  23464084.611    23464084.1634   23464096.2704
 -13930333.573 9 -10628005.28847  22347038.083    22347038.0184   22347047.8984
 -22328677.683 9 -17373574.98349  20722569.187    20722568.5454   20722577.2194
 -24884937.832 9 -18912328.86149  20805585.449    20805584.7234   20805593.8394
  -2268507.749 9  -1751981.44145  24022407.054    24022406.7254   24022427.2104
 -16339276.331 9 -12721271.60547  22157924.642    22157924.2984   22157935.5384
  -3544061.587 9  -2752402.15046  24168461.228    24168460.2924   24168476.5974
 -14699358.502 9 -10279109.13747  22711089.045    22711088.4514   22711101.1284
 00  4 17  0 51 30.0000000  0  8  3 26 23 17 29  6 22 21            -0.000000100
  -8261053.510 9  -6135497.93846  23446731.414    23446730.9664   23446743.0634
 -13867446.893 9 -10579002.69147  22359005.009    22359004.9534   22359014.7904
 -22328413.059 9 -17373368.73749  20722619.499    20722618.8604   20722627.5444
 -24873876.642 9 -18903709.74149  20807690.342    20807689.5964   20807698.6974
  -2376541.377 9  -1836162.83745  24001848.487    24001848.1284   24001868.3784
 -16245780.211 9 -12648417.58847  22175716.392    22175716.0814   22175727.3704
  -3498777.413 9  -2717115.89046  24177078.554    24177077.6374   24177093.9954
 -14760402.688 9 -10326675.87047  22699472.590    22699472.0134   22699484.6544
 00  4 17  0 52  0.0000000  0  8  3 26 23 17 29  6 22 21            -0.000000092
  -8351934.033 9  -6206313.77546  23429437.281    23429436.8584   23429448.9224
 -13804023.588 9 -10529581.95547  22371074.036    22371073.9984   22371083.8154
 -22327808.115 9 -17372897.31349  20722734.586    20722733.9404   20722742.6184
 -24862582.393 9 -18894909.01649  20809839.575    20809838.8084   20809847.8924
  -2484534.666 9  -1920312.80845  23981297.499    23981297.1654   23981317.1954
 -16151957.565 9 -12575309.13747  22193570.300    22193570.0114   22193581.3174
  -3453175.549 9  -2681582.08346  24185756.391    24185755.3704   24185771.7584
 -14821223.680 9 -10374068.69047  22687898.581    22687898.0254   22687910.5754
 00  4 17  0 52 30.0000000  0  8  3 26 23 17 29  6 22 21            -0.000000081
  -8442520.171 9  -6276900.22646  23412199.192    23412198.7724   23412210.8414
 -13740076.454 9 -10479753.03647  22383242.901    22383242.8434   22383252.6034
 -22326864.380 9 -17372161.89849  20722914.102    20722913.4564   20722922.1304
 -24851058.207 9 -18885929.12449  20812032.539    20812031.8004   20812040.8554
  -2592486.180 9  -2004430.23945  23960754.528    23960754.2364   23960774.0084
 -16057823.410 9 -12501957.94147  22211483.526    22211483.2204   22211494.5314
  -3407259.587 9  -2645803.52546  24194493.936    24194492.9314   24194509.4404
 -14881818.246 9 -10421285.07647  22676367.693    22676367.1384   22676379.6114
 00  4 17  0 53  0.0000000  0  8  3 26 23 17 29  6 22 21            -0.000000073
  -8532833.231 9  -6347273.89946  23395013.052    23395012.6614   23395024.7124
 -13675616.737 9 -10429524.70347  22395509.159    22395509.1214   22395518.8824
 -22325585.891 9 -17371165.63649  20723157.313    20723156.6774   20723165.3584
 -24839305.010 9 -18876770.78449  20814269.110    20814268.3624   20814277.4104
  -2700380.197 9  -2088502.87045  23940222.495    23940222.2104   23940241.9114
 -15963364.046 9 -12428353.34947  22229458.628    22229458.3264   22229469.6704
  -3361026.466 9  -2609777.82446  24203291.865    24203290.8414   24203307.4534
 -14942170.192 9 -10468312.40447  22664882.991    22664882.4394   22664894.8664
 00  4 17  0 53 30.0000000  0  9  3 26 23 17  9 29  6 22 21         -0.000000068
  -8622875.737 9  -6417436.75146  23377878.406    23377878.0024   23377890.0114
 -13610650.223 9 -10378901.45547  22407871.906    22407871.8524   22407881.5454
 -22323973.416 9 -17369909.12249  20723464.143    20723463.5054   20723472.1674
 -24827301.839 9 -18867417.65249  20816553.263    20816552.5114   20816561.5634
  -1630334.09518  -1252272.07552         0.000           0.0005          0.0005
  -2808203.325 9  -2172520.27746  23919703.939    23919703.7354   23919723.2064
 -15868585.794 9 -12354500.27047  22247494.383    22247494.0804   22247505.4674
  -3314483.527 9  -2573510.71246  24212148.670    24212147.6294   24212164.4064
 -15002282.770 9 -10515153.21247  22653443.850    22653443.2684   22653455.6354
 00  4 17  0 54  0.0000000  0  8  3 26 23 17 29  6 22 21            -0.000000063
  -8712653.450 9  -6487393.26646  23360794.168    23360793.7594   23360805.8054
 -13545169.872 9 -10327877.83247  22420332.484    22420332.4464   22420342.1224
 -22322037.267 9 -17368400.40049  20723832.556    20723831.9104   20723840.5664
 -24815026.292 9 -18857852.28449  20818889.218    20818888.4834   20818897.4974
  -2915960.085 8  -2256485.95045  23899198.064    23899197.7514   23899217.1414
 -15773509.033 9 -12280414.59047  22265586.945    22265586.6554   22265598.0704
  -3267611.084 9  -2536986.85246  24221068.213    24221067.2844   24221084.1704
 -15062148.164 9 -10561801.41047  22642051.802    22642051.2144   22642063.4884
 00  4 17  0 54 30.0000000  0  8  3 26 23 17 29  6 22 21            -0.000000056
  -8802164.172 9  -6557141.75146  23343760.717    23343760.2914   23343772.3294
 -13479182.834 9 -10276459.37647  22432889.428    22432889.3844   22432899.0164
 -22319780.352 9 -17366641.72349  20724262.014    20724261.3724   20724270.0264
 -24802504.582 9 -18848095.10549  20821272.014    20821271.2844   20821280.2714
  -3023642.852 9  -2340393.98745  23878706.290    23878706.0174   23878725.1694
 -15678118.472 9 -12206084.39247  22283739.251    22283738.9684   22283750.4154
  -3220407.739 9  -2500205.14146  24230050.835    24230049.8954   24230066.7834
 -15121758.133 9 -10608250.58047  22630708.331    22630707.7274   22630719.9284
 00  4 17  0 55  0.0000000  0  9  3 26 23 17  9 29  6 22 21         -0.000000043
  -8891402.310 9  -6626677.83346  23326779.178    23326778.7284   23326790.7084
 -13412691.261 9 -10224647.78047  22445542.378    22445542.3744   22445551.9674
 -22317213.813 9 -17364641.78049  20724750.386    20724749.7544   20724758.4114
 -24789759.272 9 -18838163.68549  20823697.385    20823696.6354   20823705.6164
  -1597579.44118  -1234655.11352         0.000           0.0005          0.0005
  -3131259.308 9  -2424250.37445  23858227.134    23858226.8544   23858245.7534
 -15582418.197 9 -12131512.85547  22301950.489    22301950.1814   22301961.6284
  -3172877.470 9  -2463168.68146  24239095.672    24239094.6844   24239111.6224
 -15181112.181 9 -10654500.32947  22619413.513    22619412.9464   22619425.0464
 00  4 17  0 55 30.0000000  0  8  3 26 23 17 29  6 22 21            -0.000000020
  -8980364.878 9  -6695999.19646  23309850.101    23309849.6874   23309861.6384
 -13345690.145 9 -10172439.14847  22458292.320    22458292.2884   22458301.8494
 -22314349.267 9 -17362409.63349  20725295.467    20725294.8374   20725303.4674
 -24776806.655 9 -18828070.73649  20826162.173    20826161.4584   20826170.4014
  -3238824.803 9  -2508067.05345  23837757.669    23837757.3254   23837776.1324
 -15486426.144 9 -12056713.96947  22320217.176    22320216.9154   22320228.3434
  -3125017.092 9  -2425875.00146  24248203.253    24248202.3594   24248219.2414
 -15240222.052 9 -10700559.81947  22608165.183    22608164.6244   22608176.6264
 00  4 17  0 56  0.0000000  0  8  3 26 23 17 29  6 22 21             0.000000008
  -9069053.225 9  -6765106.87746  23292973.190    23292972.8014   23292984.6684
 -13278195.489 9 -10119845.92747  22471136.105    22471136.0964   22471145.7034
 -22311197.418 9 -17359953.60349  20725895.223    20725894.6024   20725903.2074
 -24763660.205 9 -18817826.74048  20828663.886    20828663.1474   20828672.0874
  -3346346.215 8  -2591849.36245  23817296.568    23817296.2404   23817314.8714
 -15390138.675 9 -11981684.88147  22338540.165    22338539.8914   22338551.3504
  -3076840.163 9  -2388334.65045  24257371.158    24257370.1814   24257387.0814
 -15299101.919 9 -10746440.08647  22596960.630    22596960.0704   22596972.0024
 00  4 17  0 56 30.0000000  0  8  3 26 23 17 29  6 22 21             0.000000033
  -9157464.657 9  -6833998.78146  23276148.985    23276148.5784   23276160.4664
 -13210229.950 9 -10066885.78747  22484069.522    22484069.4334   22484079.1424
 -22307757.635 9 -17357273.21049  20726549.801    20726549.1694   20726557.7664
 -24750318.723 9 -18807430.77748  20831202.648    20831201.8994   20831210.8704
  -3453817.385 8  -2675592.53845  23796845.018    23796844.6984   23796863.1494
 -15293554.864 9 -11906424.87547  22356919.539    22356919.2974   22356930.7294
  -3028362.657 9  -2350560.08745  24266596.228    24266595.3064   24266612.1854
 -15357760.564 9 -10792147.95647  22585798.153    22585797.5484   22585809.4444
 00  4 17  0 57  0.0000000  0  8  3 26 23 17 29  6 22 21             0.000000052
  -9245605.697 9  -6902679.99246  23259376.200    23259375.8194   23259387.5824
 -13141799.568 9 -10013563.43547  22497091.353    22497091.3574   22497101.0404
 -22304030.214 9 -17354368.68349  20727259.055    20727258.4284   20727267.0194
 -24736741.839 9 -18796851.38148  20833786.226    20833785.4814   20833794.4724
  -3561230.001 9  -2759290.09345  23776404.587    23776404.2494   23776422.4544
 -15196688.850 9 -11830944.97647  22375352.609    22375352.3464   22375363.8414
  -2979581.923 9  -2312549.24245  24275878.956    24275877.9894   24275894.9434
 -15416209.025 9 -10837692.05847  22574675.569    22574674.9984   22574686.8934
 00  4 17  0 57 30.0000000  0  8  3 26 23 17 29  6 22 21             0.000000064
  -9333464.206 9  -6971141.04346  23242657.224    23242656.8344   23242668.5304
 -13072911.023 9  -9959884.07247  22510200.485    22510200.4424   22510210.1324
 -22300019.302 9 -17351243.26049  20728022.232    20728021.5894   20728030.1944
 -24722894.042 9 -18786060.89448  20836421.359    20836420.6164   20836429.6134
  -3668572.606 9  -2842933.08345  23755977.567    23755977.2704   23755995.2824
 -15099538.474 9 -11755243.50147  22393839.784    22393839.5274   22393851.0514
  -2930515.604 9  -2274315.87045  24285216.075    24285215.0564   24285232.0564
 -15474454.921 9 -10883078.30747  22563591.582    22563591.0424   22563602.9744
 00  4 17  0 58  0.0000000  0  8  3 26 23 17 29  6 22 21             0.000000061
  -9421032.960 9  -7039376.31446  23225993.361    23225992.9504   23226004.6334
 -13003573.688 9  -9905854.99547  22523394.877    22523394.7984   22523404.5614
 -22295711.198 9 -17347886.25549  20728841.996    20728841.3424   20728849.9644
 -24708753.551 9 -18775042.32148  20839112.158    20839111.3934   20839120.4084
  -3775823.938 9  -2926504.94545  23735567.824    23735567.7094   23735585.4154
 -15002108.340 9 -11679324.01847  22412380.128    22412379.8624   22412391.4694
  -2881174.529 9  -2235868.39146  24294605.464    24294604.4354   24294621.5464
 -15532490.940 9 -10928301.01247  22552547.557    22552546.9874   22552558.9414
 00  4 17  0 58 30.0000000  0  8  3 26 23 17 29  6 22 21             0.000000047
  -9508299.503 9  -7107376.09946  23209386.973    23209386.5564   23209398.1904
 -12933777.095 9  -9851468.06747  22536676.737    22536676.6744   22536686.4504
 -22291093.512 9 -17344288.02349  20729720.669    20729720.0034   20729728.6134
 -24694307.978 9 -18763786.02849  20841861.083    20841860.3104   20841869.3124
  -3882976.059 9  -3009999.53245  23715177.037    23715176.8764   23715194.4214
 -14904405.693 9 -11603192.20147  22430972.418    22430972.1304   22430983.7714
  -2831546.232 9  -2197197.12446  24304049.515    24304048.5574   24304065.6094
 -15590299.391 9 -10973346.39947  22541546.816    22541546.2234   22541558.2174
 00  4 17  0 59  0.0000000  0  8  3 26 23 17 29  6 22 21             0.000000031
  -9595259.091 9  -7175136.70846  23192839.052    23192838.5824   23192850.2314
 -12863498.252 9  -9796705.35547  22550050.396    22550050.3454   22550060.1124
 -22286160.937 9 -17340444.42749  20730659.269    20730658.6144   20730667.2324
 -24679568.218 9 -18752300.49849  20844666.007    20844665.2284   20844674.2024
  -3990025.458 9  -3093414.07046  23694805.771    23694805.6694   23694823.0304
 -14806431.239 9 -11526848.58347  22449616.429    22449616.1344   22449627.7924
  -2781628.126 9  -2158300.03146  24313548.628    24313547.6914   24313564.6504
 -15647867.752 9 -11018204.69347  22530591.741    22530591.1664   22530603.1754
 00  4 17  0 59 30.0000000  0  8  3 26 23 17 29  6 22 21             0.000000012
  -9681904.004 9  -7242652.09646  23176351.007    23176350.4874   23176362.1374
 -12792726.349 9  -9741558.44847  22563517.853    22563517.8424   22563527.5344
 -22280901.656 9 -17336346.25849  20731660.033    20731659.3814   20731667.9694
 -24664552.055 9 -18740599.58749  20847523.466    20847522.7004   20847531.6504
  -4096984.346 9  -3176758.09546  23674451.739    23674451.6194   23674468.8444
 -14708191.311 9 -11450298.10347  22468310.931    22468310.6624   22468322.3314
  -2731416.511 9  -2119174.22346  24323103.701    24323102.7674   24323119.7274
 -15705194.120 9 -11062874.43247  22519682.777    22519682.1784   22519694.1794
 00  4 17  1  0  0.0000000  0  8  3 26 23 17 29  6 22 21            -0.000000007
  -9768238.553 9  -7309925.66247  23159921.975    23159921.5004   23159933.1394
 -12721454.171 9  -9686021.71747  22577080.414    22577080.4324   22577090.1504
 -22275300.318 9 -17331981.54849  20732725.926    20732725.2834   20732733.8334
 -24649274.642 9 -18728695.10649  20850430.677    20850429.8984   20850438.8714
  -4203858.055 9  -3260035.73846  23654113.888    23654113.7294   23654130.7704
 -14609682.529 9 -11373538.11847  22487056.645    22487056.3744   22487068.0544
  -2680882.641 9  -2079797.31346  24332720.120    24332719.1484   24332736.1244
 -15762267.061 9 -11107346.68847  22508822.050    22508821.4674   22508833.4424
 00  4 17  1  0 30.0000000  0  8  3 26 23 17 29  6 22 21            -0.000000018
  -9854257.742 9  -7376953.48047  23143552.926    23143552.5024   23143564.0814
 -12649673.220 9  -9630088.53947  22590740.004    22590739.9764   22590749.6774
 -22269364.370 9 -17327356.10249  20733855.503    20733854.8614   20733863.3744
 -24633750.611 9 -18716598.45549  20853384.772    20853384.0034   20853392.9674
  -4310659.776 9  -3343257.30546  23633789.751    23633789.5994   23633806.6154
 -14510890.632 9 -11296557.53447  22505856.170    22505855.9504   22505867.5884
  -2630021.275 9  -2040165.21246  24342398.752    24342397.7984   24342414.8334
 -15819084.473 9 -11151619.83047  22498009.945    22498009.3524   22498021.3094
 00  4 17  1  1  0.0000000  0  9  3 26 23 17  9 29  6 22 21         -0.000000022
  -9939966.469 9  -7443739.38347  23127243.004    23127242.6234   23127254.1664
 -12577386.205 9  -9573761.03147  22604495.759    22604495.7334   22604505.5204
 -22263100.168 9 -17322474.87449  20735047.493    20735046.8464   20735055.3724
 -24617981.520 9 -18704310.84749  20856385.490    20856384.7354   20856393.7154
  -1581461.71118  -1221288.29852         0.000           0.0005          0.0005
  -4417401.566 9  -3426432.19146  23613477.011    23613476.8424   23613493.7314
 -14411815.803 9 -11219356.47647  22524709.638    22524709.3484   22524720.9884
  -2578837.364 9  -2000281.78546  24352138.907    24352137.9954   24352154.9604
 -15875652.759 9 -11195698.84847  22487245.228    22487244.6554   22487256.5124
 00  4 17  1  1 30.0000000  0  8  3 26 23 17 29  6 22 21            -0.000000023
 -10025363.167 9  -7510282.14647  23110992.427    23110992.0744   23111003.5834
 -12504607.109 9  -9517050.06447  22618345.169    22618345.1364   22618354.9794
 -22256509.993 9 -17317339.64149  20736301.504    20736300.8684   20736309.4004
 -24601955.437 9 -18691822.98849  20859435.113    20859434.3844   20859443.3534
  -4524080.192 9  -3509557.87446  23593176.282    23593176.0654   23593192.9654
 -14312458.751 9 -11141935.50347  22543616.717    22543616.3994   22543628.0804
  -2527335.291 9  -1960150.44746  24361939.629    24361938.7104   24361955.6274
 -15931981.525 9 -11239591.23647  22476526.139    22476525.5464   22476537.3334
 00  4 17  1  2  0.0000000  0  8  3 26 23 17 29  6 22 21            -0.000000020
 -10110441.349 9  -7576576.70947  23094802.490    23094802.1024   23094813.6514
 -12431347.569 9  -9459964.73247  22632286.003    22632285.9944   22632295.7604
 -22249605.141 9 -17311959.20749  20737615.466    20737614.8284   20737623.3624
 -24585673.465 9 -18679135.73449  20862533.497    20862532.7394   20862541.6984
  -4630672.838 9  -3592616.57046  23572891.948    23572891.6484   23572908.5714
 -14212810.547 9 -11064287.65847  22562579.249    22562578.9314   22562590.5754
  -2475535.010 9  -1919786.72946  24371797.036    24371796.1064   24371813.0224
 -15988061.508 9 -11283289.75747  22465854.373    22465853.7844   22465865.4734
 00  4 17  1  2 30.0000000  0  9  3 26 23 17  9 29  6 22 21         -0.000000017
 -10195198.398 9  -7642621.05047  23078673.630    23078673.2574   23078684.7674
 -12357617.088 9  -9402512.44347  22646316.485    22646316.4724   22646326.3134
 -22242395.308 9 -17306341.12449  20738987.441    20738986.7984   20738995.3004
 -24569130.413 9 -18666245.04149  20865681.537    20865680.7904   20865689.7184
  -1551739.84419  -1192824.71652         0.000           0.0005          0.0005
  -4737163.935 9  -3675596.15846  23552626.957    23552626.5974   23552643.4304
 -14112886.842 9 -10986425.13647  22581594.209    22581593.8884   22581605.5124
  -2423464.606 9  -1879212.53246  24381705.738    24381704.8474   24381721.8294
 -16043892.991 9 -11326794.65047  22455229.881    22455229.2794   22455240.9004
 00  4 17  1  3  0.0000000  0  8  3 26 23 17 29  6 22 21            -0.000000018
 -10279637.011 9  -7708417.25947  23062605.377    23062605.0114   23062616.5024
 -12283420.468 9  -9344696.92547  22660435.688    22660435.6974   22660445.4984
 -22234873.317 9 -17300479.80249  20740418.828    20740418.1874   20740426.6774
 -24552312.924 9 -18653140.50149  20868881.793    20868881.0244   20868889.9764
  -4843526.762 9  -3758475.78846  23532386.257    23532386.0504   23532402.6914
 -14012702.039 9 -10908359.17247  22600658.796    22600658.5194   22600670.2164
  -2371130.874 9  -1838433.16046  24391664.572    24391663.6834   24391680.7344
 -16099482.247 9 -11370110.79947  22444651.490    22444650.9024   22444662.4534
 00  4 17  1  3 30.0000000  0  8  3 26 23 17 29  6 22 21            -0.000000015
 -10363744.611 9  -7773955.52847  23046600.177    23046599.7514   23046611.2384
 -12208762.030 9  -9286521.55147  22674642.743    22674642.7714   22674652.5354
 -22227039.644 9 -17294375.60849  20741909.480    20741908.8254   20741917.3084
 -24535231.137 9 -18639830.01549  20872132.353    20872131.5844   20872140.5604
  -4949726.221 9  -3841228.14446  23512176.794    23512176.5604   23512193.1264
 -13912256.595 9 -10830090.09147  22619773.060    22619772.7674   22619784.4614
  -2318539.143 9  -1797452.74445  24401672.507    24401671.6334   24401688.6614
 -16154830.425 9 -11413239.09647  22434119.022    22434118.4234   22434129.9364
 00  4 17  1  4  0.0000000  0  8  3 26 23 17 29  6 22 21            -0.000000005
 -10447509.246 9  -7839226.55047  23030660.140    23030659.7564   23030671.2234
 -12133651.170 9  -9227993.64247  22688935.898    22688935.9074   22688945.7514
 -22218906.716 9 -17288038.22649  20743457.116    20743456.4744   20743464.9344
 -24517900.795 9 -18626325.84949  20875430.154    20875429.4014   20875438.3844
  -5055758.122 9  -3923849.93646  23491999.236    23491999.0084   23492015.3904
 -13811548.768 9 -10751616.57847  22638937.191    22638936.9004   22638948.6864
  -2265695.981 9  -1756276.39345  24411728.315    24411727.4824   24411744.5094
 -16209936.998 9 -11456179.13047  22423632.451    22423631.8734   22423643.3464
 00  4 17  1  4 30.0000000  0  9  3 26 23 17  9 29  6 22 21          0.000000013
 -10530938.285 9  -7904236.06647  23014784.078    23014783.7164   23014795.0834
 -12058088.045 9  -9169113.30747  22703315.104    22703315.0724   22703324.9094
 -22210480.832 9 -17281472.56749  20745060.501    20745059.8544   20745068.3054
 -24500323.931 9 -18612629.58649  20878774.915    20878774.1564   20878783.1844
  -1587564.53318  -1229066.85052         0.000           0.0005          0.0005
  -5161642.609 9  -4006356.88846  23471849.699    23471849.4184   23471865.6874
 -13710585.055 9 -10672943.65947  22658150.088    22658149.7594   22658161.5394
  -2212593.890 9  -1714898.28045  24421833.392    24421832.4784   24421849.6664
 -16264822.583 9 -11498946.97347  22413187.961    22413187.3934   22413198.8274
 00  4 17  1  5  0.0000000  0  8  3 26 23 17 29  6 22 21             0.000000040
 -10614030.212 9  -7968982.90447  22998972.148    22998971.7634   22998983.0784
 -11982075.104 9  -9109882.46747  22717779.891    22717779.8594   22717789.7624
 -22201769.883 9 -17274684.77849  20746718.113    20746717.4764   20746725.9204
 -24482510.776 9 -18598749.20148  20882164.686    20882163.9094   20882172.9044
  -5267399.622 9  -4088764.51546  23451724.366    23451724.1704   23451740.2844
 -13609360.444 9 -10594067.45447  22677412.623    22677412.2544   22677424.0644
  -2159228.302 9  -1673314.85045  24431988.705    24431987.7364   24432004.8374
 -16319497.853 9 -11541550.93347  22402783.513    22402782.9164   22402794.3334
 00  4 17  1  5 30.0000000  0  9  3 26 23 17  9 29  6 22 21          0.000000075
 -10696781.253 9  -8033464.10247  22983225.063    22983224.6354   22983235.9234
 -11905621.390 9  -9050308.16947  22732328.612    22732328.5574   22732338.4494
 -22192793.976 9 -17267690.52849  20748426.121    20748425.4744   20748433.9164
 -24464475.134 9 -18584695.45348  20885596.721    20885595.9634   20885604.9284
  -1724624.10618  -1335866.07455         0.000           0.0005   24983479.2045
  -5373054.571 9  -4171092.62946  23431618.564    23431618.3494   23431634.2874
 -13507875.560 9 -10514988.42747  22696724.553    22696724.2554   22696736.0904
  -2105608.391 9  -1631533.24445  24442192.418    24442191.3534   24442208.5134
 -16373959.246 9 -11583988.24147  22392419.725    22392419.1514   22392430.5094
 00  4 17  1  6  0.0000000  0  9  3 26 23 17  9 29  6 22 21          0.000000103
 -10779205.251 9  -8097690.45847  22967540.166    22967539.7534   22967551.0214
 -11828732.795 9  -8990395.00647  22746960.085    22746960.0184   22746969.8834
 -22183557.651 9 -17260493.35649  20750183.726    20750183.0774   20750191.5014
 -24446201.061 9 -18570455.91148  20889074.137    20889073.3754   20889082.3534
  -1793011.96518  -1389155.18145  24970448.968    24970450.9575   24970464.8854
  -5478646.720 9  -4253371.79246  23411524.624    23411524.5004   23411540.2694
 -13406138.537 9 -10435712.93547  22716084.523    22716084.2224   22716096.0934
  -2051745.302 9  -1589562.15645  24452442.278    24452441.2874   24452458.5184
 -16428201.003 9 -11626254.41047  22382097.784    22382097.1774   22382108.4894
 00  4 17  1  6 30.0000000  0  9  3 26 23 17  9 29  6 22 21          0.000000122
 -10861312.909 9  -8161670.31147  22951915.472    22951915.0604   22951926.3244
 -11751399.451 9  -8930135.29147  22761676.053    22761676.0504   22761685.9034
 -22174054.111 9 -17253087.96749  20751992.184    20751991.5354   20751999.9444
 -24427672.788 9 -18556018.29448  20892599.932    20892599.1654   20892608.1934
  -1861318.508 8  -1442380.94145  24957452.023    24957452.4954   24957465.1954
  -5584176.177 9  -4335602.12846  23391442.711    23391442.4924   23391458.2444
 -13304157.539 9 -10356247.32947  22735490.864    22735490.6274   22735502.5654
  -1997631.499 9  -1547395.69845  24462739.782    24462738.9084   24462756.1414
 -16482220.407 9 -11668347.31547  22371818.135    22371817.5134   22371828.7594
 00  4 17  1  7  0.0000000  0  9  3 26 23 17  9 29  6 22 21          0.000000128
 -10943104.580 9  -8225403.94247  22936350.940    22936350.5354   22936361.7364
 -11673631.594 9  -8869536.99547  22776474.782    22776474.7854   22776484.6034
 -22164277.411 9 -17245469.72849  20753852.598    20753851.9574   20753860.3574
 -24408876.316 9 -18541371.69248  20896176.766    20896176.0084   20896185.0254
  -1929544.211 8  -1495543.66745  24944469.600    24944469.6134   24944482.4564
  -5689616.751 9  -4417763.20446  23371377.699    23371377.4234   23371393.1354
 -13201941.727 9 -10276598.76547  22754941.969    22754941.7414   22754953.6734
  -1943273.100 9  -1505038.64645  24473084.068    24473083.0674   24473100.4604
 -16535993.734 9 -11710248.47348  22361585.352    22361584.7274   22361595.8804
 00  4 17  1  7 30.0000000  0  9  3 26 23 17  9 29  6 22 21          0.000000113
 -11024568.841 9  -8288882.45247  22920848.694    22920848.3074   22920859.5174
 -11595436.487 9  -8808605.76947  22791354.778    22791354.8034   22791364.6494
 -22154212.998 9 -17237627.29449  20755767.736    20755767.0924   20755775.4784
 -24389797.218 9 -18526504.86148  20899807.396    20899806.6454   20899815.6664
  -1997679.833 8  -1548636.24745  24931504.144    24931504.3394   24931516.9484
  -5794944.142 9  -4499836.09446  23351334.292    23351333.9794   23351349.5884
 -13099493.106 9 -10196768.77847  22774437.379    22774437.1054   22774449.0844
  -1888670.485 9  -1462491.30845  24483474.682    24483473.6644   24483491.1084
 -16589500.452 9 -11751941.88948  22351403.264    22351402.6464   22351413.7414
 00  4 17  1  8  0.0000000  0  9  3 26 23 17  9 29  6 22 21          0.000000082
 -11105700.466 9  -8352101.76447  22905409.733    22905409.3364   22905420.5034
 -11516813.283 9  -8747340.96546  22806316.321    22806316.2964   22806326.1444
 -22143837.813 9 -17229542.70649  20757742.008    20757741.3654   20757749.7644
 -24370419.126 9 -18511405.04848  20903494.924    20903494.1624   20903503.2244
  -2065702.360 8  -1601640.66845  24918560.039    24918560.0104   24918572.7554
  -5900127.457 9  -4581796.71646  23331318.221    23331317.9454   23331333.4364
 -12996799.793 9 -10116748.14147  22793979.344    22793979.0574   22793991.1144
  -1833810.304 9  -1419743.26845  24493914.259    24493913.2764   24493930.7234
 -16642730.824 9 -11793419.97148  22341273.705    22341273.0994   22341284.1614
 00  4 17  1  8 30.0000000  0  9  3 26 23 17  9 29  6 22 21          0.000000045
 -11186480.266 9  -8415046.92947  22890037.745    22890037.3574   22890048.4904
 -11437761.365 9  -8685742.11046  22821359.364    22821359.3524   22821369.3264
 -22133145.841 9 -17221211.27349  20759776.567    20759775.9264   20759784.3234
 -24350745.501 9 -18496074.95048  20907238.685    20907237.9504   20907246.9974
  -2133593.494 8  -1654542.71745  24905640.837    24905640.8144   24905653.3824
  -6005128.443 9  -4663615.27246  23311336.916    23311336.6284   23311352.0294
 -12893854.013 9 -10036530.76147  22813569.418    22813569.1054   22813581.1824
  -1778685.157 9  -1376788.74845  24504404.407    24504403.3444   24504420.9054
 -16695676.693 9 -11834676.36048  22331198.318    22331197.7144   22331208.7574
 00  4 17  1  9  0.0000000  0  9  3 26 23 17  9 29  6 22 21          0.000000001
 -11266885.497 9  -8477700.22747  22874737.014    22874736.6194   22874747.7084
 -11358289.821 9  -8623816.25746  22836482.287    22836482.3424   22836492.2864
 -22122136.664 9 -17212632.66449  20761871.525    20761870.8964   20761879.2924
 -24330773.275 9 -18480512.17448  20911039.336    20911038.5694   20911047.6094
  -2201342.615 8  -1707334.13445  24892748.656    24892748.5694   24892761.1004
  -6109942.531 9  -4745288.19846  23291391.222    23291390.8864   23291406.1654
 -12790649.565 9  -9956111.82847  22833208.672    22833208.3994   22833220.4584
  -1723303.681 9  -1333634.49945  24514943.314    24514942.2884   24514959.7724
 -16748332.379 9 -11875706.63348  22321178.139    22321177.5314   22321188.5984
 00  4 17  1  9 30.0000000  0  9  3 26 23 17  9 29  6 22 21         -0.000000034
 -11346902.007 9  -8540050.62047  22859510.305    22859509.9214   22859520.9164
 -11278383.263 9  -8561551.45246  22851688.019    22851688.0554   22851698.0824
 -22110822.959 9 -17203816.76249  20764024.433    20764023.8154   20764032.1994
 -24310518.769 9 -18464729.43848  20914893.626    20914892.8414   20914901.9034
  -2268941.837 8  -1760008.77245  24879885.089    24879884.8454   24879897.2584
  -6214586.750 9  -4826828.76446  23271477.809    23271477.5224   23271492.5684
 -12687174.590 9  -9875482.09247  22852899.364    22852899.0874   22852911.1994
  -1667663.999 9  -1290279.06145  24525531.298    24525530.1384   24525547.7624
 -16800714.343 9 -11916523.60548  22311210.035    22311209.4314   22311220.5004
 00  4 17  1 10  0.0000000  0  9  3 26 23 17  9 29  6 22 21         -0.000000053
 -11426542.133 9  -8602107.74547  22844355.201    22844354.8124   22844365.8054
 -11198033.604 9  -8498941.35246  22866978.072    22866978.0804   22866988.1574
 -22099224.176 9 -17194778.72349  20766231.582    20766230.9474   20766239.3514
 -24289996.820 9 -18448738.30848  20918798.775    20918798.0184   20918807.1044
  -2336412.047 8  -1812582.85245  24867046.057    24867045.5634   24867057.8064
  -6319083.776 9  -4908254.63346  23251592.430    23251592.1284   23251607.0074
 -12583435.916 9  -9794646.87547  22872640.241    22872639.9514   22872652.1404
  -1611774.846 9  -1246729.23245  24536166.817    24536165.6764   24536183.3864
 -16852853.584 9 -11957151.45248  22301288.146    22301287.5504   22301298.5824
 00  4 17  1 10 30.0000000  0  9  3 26 23 17  9 29  6 22 21         -0.000000053
 -11505808.201 9  -8663873.39847  22829271.279    22829270.8854   22829281.8404
 -11117242.297 9  -8435987.13846  22882352.131    22882352.2074   22882362.3254
 -22087362.856 9 -17185536.11149  20768488.703    20768488.0754   20768496.4714
 -24269216.415 9 -18432545.78448  20922753.175    20922752.4204   20922761.4864
  -2403781.242 8  -1865078.21845  24854225.997    24854225.6474   24854237.8474
  -6423454.831 9  -4989582.34446  23231730.932    23231730.6784   23231745.3494
 -12479464.016 9  -9713629.93246  22892425.376    22892425.2044   22892437.4294
  -1555648.708 9  -1202994.74545  24546847.376    24546846.2224   24546864.0894
 -16904784.964 9 -11997617.32748  22291405.865    22291405.2614   22291416.2544
 00  4 17  1 11  0.0000000  0  9  3 26 23 17  9 29  6 22 21         -0.000000035
 -11584712.007 9  -8725356.76447  22814256.268    22814255.8704   22814266.8424
 -11036009.157 9  -8372688.61846  22897810.384    22897810.3754   22897820.4714
 -22075252.334 9 -17176099.31749  20770793.257    20770792.6194   20770801.0174
 -24248188.936 9 -18416160.73148  20926754.595    20926753.8204   20926762.8644
  -2471073.287 8  -1917513.48545  24841420.697    24841420.4134   24841432.3894
  -6527726.385 9  -5070832.54146  23211888.439    23211888.2354   23211902.7554
 -12375279.015 9  -9632446.93246  22912251.217    22912251.0384   22912263.2564
  -1499289.995 9  -1159079.03445  24557572.164    24557571.0774   24557588.8954
 -16956531.867 9 -12037939.45048  22281558.670    22281558.0684   22281569.0234
 00  4 17  1 11 30.0000000  0  9  3 26 23 17  9 29  6 22 21         -0.000000002
 -11663276.177 9  -8786575.49247  22799305.956    22799305.5494   22799316.4724
 -10954337.317 9  -8309048.25446  22913352.127    22913352.0474   22913362.1464
 -22062899.363 9 -17166473.60249  20773143.932    20773143.2924   20773151.6784
 -24226930.218 9 -18399595.49648  20930799.990    20930799.2394   20930808.2744
  -2538292.731 8  -1969892.17445  24828629.201    24828628.9284   24828640.6844
  -6631902.863 9  -5152008.65246  23192064.068    23192063.8094   23192078.2964
 -12270897.704 9  -9551110.97346  22932114.437    22932114.2484   22932126.5484
  -1442702.534 8  -1114985.07545  24568340.476    24568339.5224   24568357.3444
 -17008111.374 9 -12078131.13648  22271743.280    22271742.6844   22271753.6144
 00  4 17  1 12  0.0000000  0  9  3 26 23 17  9 29  6 22 21          0.000000034
 -11741500.827 9  -8847529.66947  22784420.171    22784419.7554   22784430.6574
 -10872253.102 9  -8245086.57246  22928972.232    22928972.1134   22928982.2814
 -22050295.740 9 -17156652.57449  20775542.282    20775541.6624   20775550.0334
 -24205431.991 9 -18382843.63348  20934890.992    20934890.2374   20934899.2554
  -2605438.606 8  -2022213.51645  24815851.772    24815851.4644   24815863.4144
  -6735965.639 9  -5233096.17946  23172261.345    23172261.1384   23172275.4794
 -12166338.218 9  -9469636.15546  22952011.590    22952011.3734   22952023.6954
  -1385891.315 9  -1070716.75645  24579151.456    24579150.4384   24579168.2664
 -17059525.742 9 -12118194.14548  22261959.359    22261958.7674   22261969.6724
 00  4 17  1 12 30.0000000  0  9  3 26 23 17  9 29  6 22 21          0.000000061
 -11819369.184 9  -8908206.20747  22769602.205    22769601.8334   22769612.6914
 -10789776.607 9  -8180819.19446  22944667.096    22944666.9784   22944677.0674
 -22037435.576 9 -17146631.64149  20777989.503    20777988.8684   20777997.2394
 -24183681.653 9 -18365895.31648  20939029.894    20939029.1524   20939038.1954
  -2672483.567 8  -2074456.22445  24803093.456    24803093.1454   24803105.2394
  -6839886.683 9  -5314073.25846  23152485.503    23152485.2994   23152499.6054
 -12061602.644 9  -9388024.13646  22971942.235    22971942.0454   22971954.2754
  -1328867.038 9  -1026282.43245  24590002.884    24590002.0054   24590019.7824
 -17110753.091 9 -12158111.41548  22252211.032    22252210.4164   22252221.2884
 00  4 17  1 13  0.0000000  0  9  3 26 23 17  9 29  6 22 21          0.000000071
 -11896877.157 9  -8968601.92947  22754852.840    22754852.4344   22754863.3404
 -10706911.947 9  -8116249.37046  22960435.638    22960435.5714   22960445.6824
 -22024305.513 9 -17136400.39949  20780488.041    20780487.4084   20780495.7644
 -24161664.856 9 -18348739.36948  20943219.559    20943218.8214   20943227.8704
  -2739398.919 8  -2126597.95745  24790359.760    24790359.4914   24790371.6224
  -6943646.157 9  -5394924.45246  23132740.411    23132740.2284   23132754.4694
 -11956669.666 9  -9306258.28746  22991910.477    22991910.2424   22991922.4774
  -1271646.214 9   -981694.93945  24600891.689    24600890.9574   24600908.5964
 -17161762.620 9 -12197858.96348  22242504.127    22242503.5064   22242514.3714
 00  4 17  1 13 30.0000000  0  9  3 26 23 17  9 29  6 22 21          0.000000058
 -11974012.032 9  -9028706.92047  22740174.466    22740174.0754   22740184.9654
 -10623670.982 9  -8051386.30246  22976275.997    22976275.9054   22976285.9514
 -22010887.333 9 -17125944.65049  20783041.442    20783040.8004   20783049.1604
 -24139354.988 9 -18331355.05848  20947465.019    20947464.2524   20947473.3034
  -2806152.142 8  -2178613.35845  24777656.855    24777656.5954   24777668.6834
  -7047210.546 9  -5475623.64446  23113032.535    23113032.3124   23113046.5214
 -11851521.581 9  -9224324.84646  23011919.650    23011919.3894   23011931.6964
  -1214233.266 9   -936957.75145  24611817.233    24611816.3844   24611834.2144
 -17212544.300 9 -12237428.96448  22232840.579    22232839.9654   22232850.8104
 00  4 17  1 14  0.0000000  0  9  3 26 23 17  9 29  6 22 21          0.000000022
 -12050750.853 9  -9088503.30947  22725571.489    22725571.0754   22725581.9214
 -10540049.943 9  -7986227.07746  22992188.611    22992188.4304   22992198.4364
 -21997163.542 9 -17115250.76249  20785652.958    20785652.3134   20785660.6864
 -24116728.839 9 -18313724.29348  20951770.593    20951769.8714   20951778.8814
  -2872733.144 8  -2230494.54345  24764986.911    24764986.6374   24764998.7704
  -7150563.826 9  -5556158.34046  23093364.843    23093364.5784   23093378.7334
 -11746154.673 9  -9142220.88046  23031970.376    23031970.1194   23031982.5274
  -1156621.775 9   -892065.85845  24622780.444    24622779.6444   24622797.4494
 -17263073.587 9 -12276802.29248  22223225.100    22223224.4824   22223235.2884
 00  4 17  1 14 30.0000000  0  9  3 26 23 17  9 29  6 22 21         -0.000000026
 -12127089.659 9  -9147987.98447  22711044.625    22711044.1914   22711055.0304
 -10456024.833 9  -7920753.00446  23008177.984    23008177.8894   23008187.9444
 -21983132.131 9 -17104317.17049  20788322.992    20788322.3644   20788330.7394
 -24093773.523 9 -18295837.03848  20956138.864    20956138.1284   20956147.1054
  -2939129.391 8  -2282231.78945  24752352.108    24752351.8144   24752363.8834
  -7253713.649 9  -5636534.49646  23073735.790    23073735.5464   23073749.6564
 -11640554.348 9  -9059935.03746  23052065.536    23052065.2074   23052077.6634
  -1098806.431 9   -847015.11145  24633782.504    24633781.6584   24633799.4494
 -17313328.578 9 -12315961.89048  22213661.733    22213661.1434   22213671.9354
 00  4 17  1 15  0.0000000  0  9  3 26 23 17  9 29  6 22 21         -0.000000072
 -12203034.981 9  -9207166.06447  22696592.667    22696592.2264   22696603.0414
 -10371579.931 9  -7854951.80446  23024247.290    23024247.2254   23024257.2064
 -21968784.912 9 -17093137.49949  20791053.158    20791052.5344   20791060.8914
 -24070497.222 9 -18277699.66148  20960568.181    20960567.4514   20960576.4254
  -3005340.671 8  -2333824.90445  24739752.403    24739752.0464   24739764.0924
  -7356668.539 9  -5716758.76346  23054143.839    23054143.5994   23054157.6484
 -11534715.449 9  -8977463.28946  23072206.094    23072205.7744   23072218.1864
  -1040753.411 9   -801779.18345  24644829.821    24644828.9204   24644846.7954
 -17363310.501 9 -12354908.71348  22204150.383    22204149.7874   22204160.5284
 00  4 17  1 15 30.0000000  0  9  3 26 23 17  9 29  6 22 21         -0.000000099
 -12278578.958 9  -9266031.39947  22682217.070    22682216.6494   22682227.4054
 -10286713.225 9  -7788821.92446  23040396.908    23040396.8554   23040406.8114
 -21954136.902 9 -17081723.44449  20793840.558    20793839.9244   20793848.2974
 -24046919.198 9 -18259327.17248  20965054.907    20965054.1854   20965063.1554
  -3071368.884 8  -2385275.35845  24727187.487    24727187.1744   24727199.1204
  -7459438.239 9  -5796838.73846  23034587.188    23034586.9584   23034600.9224
 -11428650.169 9  -8894815.14346  23092389.707    23092389.3624   23092401.8394
   -982435.341 9   -756336.69445  24655927.507    24655926.6674   24655944.5824
 -17413021.132 9 -12393644.13648  22194690.689    22194690.0864   22194700.7584
 00  4 17  1 16  0.0000000  0  9  3 26 23 17  9 29  6 22 21         -0.000000103
 -12353726.757 9  -9324588.01947  22667916.822    22667916.4384   22667927.1034
 -10201420.273 9  -7722359.91746  23056627.687    23056627.5794   23056637.5884
 -21939208.442 9 -17070090.85649  20796681.328    20796680.6884   20796689.0564
 -24023064.141 9 -18240738.81948  20969594.391    20969593.6624   20969602.6364
  -3137228.626 8  -2436594.52445  24714654.898    24714654.5414   24714666.5274
  -7562051.404 9  -5876796.74746  23015060.252    23015060.0164   23015073.9094
 -11322380.619 9  -8812007.82446  23112612.181    23112611.7924   23112624.3704
   -923852.956 9   -710688.27145  24667075.524    24667074.6794   24667092.6294
 -17462460.585 9 -12432168.26048  22185282.549    22185281.9494   22185292.5504
 00  4 17  1 16 30.0000000  0  9  3 26 23 17  9 29  6 22 21         -0.000000088
 -12428490.290 9  -9382845.22347  22653689.777    22653689.3574   22653699.9754
 -10115718.000 9  -7655578.95846  23072936.318    23072936.1984   23072946.1744
 -21924018.924 9 -17058254.84449  20799571.769    20799571.1374   20799579.4964
 -23998946.171 9 -18221945.59848  20974183.908    20974183.1754   20974192.1414
  -3202922.993 8  -2487784.81145  24702153.449    24702153.1364   24702165.3074
  -7664521.023 9  -5956642.90646  22995560.652    22995560.4454   22995574.2734
 -11215910.152 9  -8729043.94746  23132872.891    23132872.5364   23132885.1504
   -865017.454 9   -664842.60045  24678271.758    24678270.8584   24678288.8334
 -17511645.924 9 -12470494.36248  22175922.775    22175922.1894   22175932.7284
 00  4 17  1 17  0.0000000  0  9  3 26 23 17  9 29  6 22 21         -0.000000059
 -12502868.568 9  -9440802.21447  22639535.980    22639535.5864   22639546.1544
 -10029621.509 9  -7588490.79846  23089319.999    23089319.8864   23089329.7744
 -21908568.469 9 -17046215.50549  20802511.867    20802511.2314   20802519.5994
 -23974573.322 9 -18202953.76948  20978821.934    20978821.1844   20978830.1564
  -3268462.206 8  -2538854.26345  24689681.624    24689681.3404   24689693.5134
  -7766842.620 9  -6036373.73246  22976089.257    22976089.0264   22976102.8304
 -11109253.817 9  -8645935.24646  23153168.927    23153168.6554   23153181.3544
   -805936.198 8   -618805.44145  24689514.625    24689513.6964   24689531.7164
 -17560595.124 9 -12508636.47048  22166607.944    22166607.3474   22166617.8754
 00  4 17  1 17 30.0000000  0  9  3 26 23 17  9 29  6 22 21         -0.000000028
 -12576851.008 9  -9498450.77647  22625457.559    22625457.1624   22625467.6694
  -9943139.792 9  -7521102.47546  23105776.950    23105776.8334   23105786.7884
 -21892873.032 9 -17033985.27349  20805498.593    20805497.9634   20805506.2994
 -23949931.289 9 -18183752.18948  20983511.147    20983510.3884   20983519.3604
  -3333849.430 8  -2589805.26345  24677238.861    24677238.5234   24677250.5314
  -7869016.673 9  -6115989.57546  22956645.886    22956645.6564   22956659.4984
 -11002421.756 9  -8562689.61646  23173498.516    23173498.2614   23173510.9114
   -746654.207 8   -572611.86445  24700795.692    24700794.7454   24700812.8574
 -17609314.903 9 -12546599.81148  22157336.781    22157336.1864   22157346.6864
 00  4 17  1 18  0.0000000  0  9  3 26 23 17  9 29  6 22 21         -0.000000009
 -12650437.102 9  -9555790.48947  22611454.522    22611454.1464   22611464.5634
  -9856280.421 9  -7453419.88446  23122305.734    23122305.6614   23122315.6404
 -21876923.148 9 -17021556.77049  20808533.742    20808533.1124   20808541.4334
 -23925002.242 9 -18164326.95748  20988254.970    20988254.2044   20988263.1734
  -3399090.788 8  -2640642.53845  24664823.772    24664823.3384   24664835.4284
  -7971039.336 9  -6195487.46446  22937231.416    22937231.1264   22937244.8854
 -10895411.376 9  -8479305.03446  23193862.019    23193861.7834   23193874.4694
   -687199.445 8   -526283.66245  24712109.663    24712108.7134   24712126.9014
 -17657806.962 9 -12584385.71148  22148108.973    22148108.3844   22148118.8414
 00  4 17  1 18 30.0000000  0  9  3 26 23 17  9 29  6 22 21          0.000000003
 -12723622.080 9  -9612817.65747  22597527.792    22597527.4084   22597537.7824
  -9769045.382 9  -7385444.56546  23138906.006    23138905.9294   23138916.0044
 -21860718.429 9 -17008929.69849  20811617.385    20811616.7384   20811625.0594
 -23899777.560 9 -18144671.35948  20993055.067    20993054.3214   20993063.2544
  -3464170.756 8  -2691354.11145  24652439.468    24652438.9924   24652450.8844
  -8072879.306 9  -6274843.00446  22917851.697    22917851.4624   22917865.1014
 -10788205.450 9  -8395768.06646  23214262.790    23214262.5104   23214275.2084
   -627581.552 8   -479828.34245  24723454.602    24723453.7194   24723471.8354
 -17706073.802 9 -12621996.11948  22138923.975    22138923.4124   22138933.8334
 00  4 17  1 19  0.0000000  0  9  3 26 23 17  9 29  6 22 21          0.000000014
 -12796401.412 9  -9669528.73547  22583678.256    22583677.8754   22583688.2174
  -9681427.557 9  -7317170.95746  23155579.182    23155579.0864   23155589.1214
 -21844265.645 9 -16996109.32849  20814748.227    20814747.5904   20814755.8864
 -23874260.965 9 -18124788.28848  20997910.696    20997909.9394   20997918.8664
  -3529079.938 8  -2741932.61945  24640087.563    24640087.1744   24640098.8404
  -8174524.839 9  -6354047.02446  22898508.965    22898508.7234   22898522.2674
 -10680799.092 9  -8312074.92946  23234701.557    23234701.3214   23234714.0044
   -567806.926 9   -433250.88945  24734829.473    24734828.6344   24734846.8034
 -17754123.536 9 -12659437.35648  22129780.353    22129779.7824   22129790.1674
 00  4 17  1 19 30.0000000  0  9  3 26 23 17  9 29  6 22 21          0.000000024
 -12868782.348 9  -9725929.37547  22569904.545    22569904.1414   22569914.4594
  -9593432.705 9  -7248603.58946  23172324.081    23172324.0144   23172334.0574
 -21827577.592 9 -16983105.62849  20817923.852    20817923.2224   20817931.4914
 -23848465.715 9 -18104688.09348  21002819.390    21002818.6214   21002827.5444
  -3593819.476 9  -2792378.87745  24627767.866    24627767.3324   24627779.1124
  -8275968.389 9  -6433093.64646  22879204.646    22879204.4274   22879217.9764
 -10573196.126 9  -8228228.60146  23255177.852    23255177.6054   23255190.2984
   -507887.840 8   -386560.86845  24746231.891    24746230.9414   24746249.3414
 -17801957.021 9 -12696710.09248  22120677.804    22120677.2444   22120687.6064
 00  4 17  1 20  0.0000000  0  9  3 26 23 17  9 29  6 22 21          0.000000032
 -12940770.055 9  -9782023.59947  22556205.678    22556205.2844   22556215.5714
  -9505075.857 9  -7179754.13646  23189137.876    23189137.8344   23189147.9224
 -21810649.867 9 -16969915.17249  20821145.084    20821144.4524   20821152.7124
 -23822415.269 9 -18084389.04348  21007776.624    21007775.8694   21007784.7834
  -3658389.842 9  -2842693.33945  24615480.567    24615479.8984   24615491.7884
  -8377197.431 9  -6511973.12346  22859941.166    22859940.9634   22859954.3974
 -10465393.740 9  -8144226.88246  23275692.072    23275691.7734   23275704.5784
   -447807.925 8   -339745.52245  24757664.858    24757663.9254   24757682.3984
 -17849574.160 9 -12733814.24248  22111616.481    22111615.9174   22111626.2524
 00  4 17  1 20 30.0000000  0  9  3 26 23 17  9 29  6 22 21          0.000000045
 -13012355.711 9  -9837804.54347  22542583.358    22542582.9354   22542593.1494
  -9416362.885 9  -7110627.18046  23206019.399    23206019.3674   23206029.4844
 -21793488.325 9 -16956542.52149  20824410.804    20824410.1614   20824418.4284
 -23796126.196 9 -18063904.04848  21012779.266    21012778.5064   21012787.4094
  -3722778.749 8  -2892866.39945  24603227.530    24603226.9514   24603239.0134
  -8478205.099 9  -6590680.09646  22840719.835    22840719.6294   22840733.0214
 -10357396.973 9  -8060073.70646  23296243.225    23296242.9874   23296255.8184
   -387558.681 8   -292798.22945  24769130.021    24769129.1994   24769147.6874
 -17896986.374 9 -12770758.71148  22102594.154    22102593.5834   22102603.8824
 00  4 17  1 21  0.0000000  0  9  3 26 23 17  9 29  6 22 21          0.000000056
 -13083534.590 9  -9893268.51547  22529038.402    22529037.9914   22529048.1594
  -9327306.394 9  -7041232.55746  23222966.371    23222966.2954   23222976.4004
 -21776094.023 9 -16942988.49749  20827720.818    20827720.1794   20827728.4474
 -23769598.214 9 -18043232.89148  21017827.365    21017826.6124   21017835.5244
  -3787001.766 8  -2942910.24245  24591006.291    24591005.7414   24591017.4874
  -8579008.728 9  -6669228.06446  22821537.296    22821537.0994   22821550.4554
 -10249233.615 9  -7975790.70046  23316826.080    23316825.8574   23316838.7404
   -327136.329 8   -245716.06045  24780628.174    24780627.3994   24780645.8434
 -17944189.999 9 -12807540.63848  22093611.504    22093610.9224   22093621.2294
 00  4 17  1 21 30.0000000  0  9  3 26 23 17  9 29  6 22 21          0.000000058
 -13154298.308 9  -9948408.97447  22515572.446    22515572.0244   22515582.1714
  -9237913.446 9  -6971575.73746  23239977.357    23239977.2694   23239987.3904
 -21758457.655 9 -16929245.85049  20831076.897    20831076.2664   20831084.5114
 -23742819.764 9 -18022366.56348  21022923.149    21022922.4044   21022931.3164
  -3851067.285 8  -2992831.31945  24578815.041    24578814.4414   24578826.2184
  -8679611.304 9  -6747619.38746  22802393.020    22802392.8234   22802406.0654
 -10140916.799 9  -7891388.13446  23337438.206    23337437.9784   23337450.8534
   -266536.751 8   -198495.77445  24792160.096    24792159.1564   24792177.6214
 -17991173.924 9 -12844151.37148  22084670.668    22084670.0814   22084680.3604
 00  4 17  1 22  0.0000000  0  9  3 26 23 17  9 29  6 22 21          0.000000052
 -13224636.133 9 -10003217.58047  22502187.483    22502187.0604   22502197.2234
  -9148187.355 9  -6901659.36046  23257051.725    23257051.5594   23257061.7964
 -21740575.948 9 -16915312.02849  20834479.673    20834479.0504   20834487.2984
 -23715763.541 9 -18001283.79148  21028071.777    21028071.0394   21028079.9404
  -3914953.334 8  -3042612.54145  24566657.858    24566657.3674   24566668.9974
  -8780020.996 9  -6825860.39946  22783285.447    22783285.2304   22783298.4704
 -10032444.414 9  -7806864.33246  23358079.985    23358079.7274   23358092.5834
   -205750.766 8   -151130.23945  24803727.327    24803726.3574   24803744.9004
 -18037934.196 9 -12880587.83648  22075772.419    22075771.8114   22075782.0464
 00  4 17  1 22 30.0000000  0  9  3 26 23 17  9 29  6 22 21          0.000000037
 -13294553.070 9 -10057698.22047  22488882.670    22488882.2514   22488892.4324
  -9058116.328 9  -6831474.17346  23274191.718    23274191.5434   23274201.8054
 -21722452.975 9 -16901190.20949  20837928.358    20837927.7134   20837935.9674
 -23688393.679 9 -17979956.61748  21033280.071    21033279.3144   21033288.2334
  -3978646.276 8  -3092243.29745  24554537.382    24554536.9284   24554548.5194
  -8880241.789 9  -6903954.21746  22764213.766    22764213.5734   22764226.7534
  -9923830.126 9  -7722229.96946  23378748.721    23378748.4494   23378761.3174
   -144790.421 8   -103628.83045  24815327.770    24815326.7464   24815345.3404
 -18084462.996 9 -12916843.92448  22066918.212    22066917.6114   22066927.8114
 00  4 17  1 23  0.0000000  0  9  3 26 23 17  9 29  6 22 21          0.000000013
 -13364066.039 9 -10111864.08347  22475654.719    22475654.3094   22475664.4644
  -8967683.979 9  -6761007.45246  23291400.398    23291400.2394   23291410.4664
 -21704076.293 9 -16886870.69449  20841425.307    20841424.6624   20841432.9204
 -23660689.819 9 -17958369.19648  21038551.916    21038551.1744   21038560.0744
  -4042145.213 8  -3141722.91145  24542453.817    24542453.4634   24542464.8934
  -8980270.305 9  -6981898.21246  22745178.779    22745178.5914   22745191.6074
  -9815070.020 9  -7637481.99046  23399445.120    23399444.9014   23399457.8094
    -83659.294 8    -55994.36945  24826960.765    24826959.7434   24826978.4714
 -18130741.694 9 -12952905.13448  22058111.564    22058110.9584   22058121.1474
 00  4 17  1 23 30.0000000  0  9  3 26 23 17  9 29  6 22 21         -0.000000010
 -13433168.261 9 -10165709.87447  22462504.906    22462504.5124   22462514.7014
  -8876877.208 9  -6690248.97246  23308680.300    23308680.2364   23308690.4544
 -21685443.456 9 -16872351.57449  20844970.996    20844970.3374   20844978.5814
 -23632644.617 9 -17936515.78848  21043888.749    21043887.9994   21043896.8764
  -4105426.874 9  -3191033.16045  24530411.742    24530411.3604   24530422.5944
  -9080097.136 9  -7059685.05547  22726182.141    22726181.9024   22726194.9114
  -9706142.206 9  -7552603.32146  23420173.419    23420173.2324   23420186.3234
    -22361.659 8     -8230.14845  24838625.430    24838624.4874   24838643.3394
 -18176775.949 9 -12988775.86248  22049351.412    22049350.8124   22049360.9834
 00  4 17  1 24  0.0000000  0  9  3 26 23 17  9 29  6 22 21         -0.000000028
 -13501861.671 9 -10219237.10947  22449432.957    22449432.5414   22449442.7444
  -8785699.170 9  -6619201.18746  23326030.915    23326030.8154   23326041.0144
 -21666560.214 9 -16857637.33649  20848564.297    20848563.6504   20848571.8964
 -23604265.106 9 -17914401.87548  21049289.200    21049288.4514   21049297.3154
  -4168476.875 9  -3240162.89645  24518413.799    24518413.3064   24518424.7294
  -9179707.194 9  -7137302.97847  22707226.731    22707226.5354   22707239.4294
  -9597047.658 9  -7467594.73946  23440933.517    23440933.2504   23440946.4364
     39104.075 8     39665.06645  24850322.117    24850321.2114   24850340.0824
 -18222568.089 9 -13024457.93248  22040637.396    22040636.7854   22040646.8984
 00  4 17  1 24 30.0000000  0  9  3 26 23 17  9 29  6 22 21         -0.000000039
 -13570142.710 9 -10272443.01047  22436439.439    22436439.0174   22436449.2474
  -8694154.183 9  -6547867.46746  23343451.303    23343451.2454   23343461.3484
 -21647419.646 9 -16842722.58449  20852206.594    20852205.9684   20852214.2154
 -23575578.253 9 -17892048.48148  21054748.080    21054747.3424   21054756.2264
  -4231308.748 8  -3289122.69345  24506457.213    24506456.7034   24506468.0694
  -9279089.539 9  -7214743.48047  22688314.732    22688314.5074   22688327.2854
  -9487782.532 9  -7382453.24146  23461726.095    23461725.7454   23461739.0444
    100738.054 8     87691.36045  24862050.811    24862049.9804   24862068.6674
 -18268125.027 9 -13059956.72748  22031968.087    22031967.4774   22031977.5634
 00  4 17  1 25  0.0000000  0  9  3 26 23 17  9 29  6 22 21         -0.000000032
 -13637998.584 9 -10325317.62147  22423526.833    22423526.3864   22423536.6144
  -8602244.932 9  -6476249.90646  23360941.156    23360941.0374   23360951.1414
 -21628017.615 9 -16827604.09449  20855898.661    20855898.0324   20855906.2834
 -23546611.480 9 -17869476.96848  21060260.284    21060259.5564   21060268.4244
  -4293931.141 9  -3337919.24545  24494540.420    24494540.0434   24494551.2564
  -9378241.192 9  -7292004.19847  22669446.650    22669446.3804   22669459.0984
  -9378338.262 9  -7297172.14346  23482552.729    23482552.3374   23482565.7074
    162549.791 8    135856.18245  24873813.374    24873812.4984   24873831.2104
 -18313464.980 9 -13095286.45048  22023340.130    22023339.5094   22023349.5654
 00  4 17  1 25 30.0000000  0  9  3 26 23 17  9 29  6 22 21         -0.000000014
 -13705409.750 9 -10377845.69747  22410698.825    22410698.3864   22410708.6244
  -8510003.971 9  -6404373.86446  23378494.012    23378493.9254   23378504.0274
 -21608369.240 9 -16812293.64449  20859637.627    20859636.9944   20859645.2154
 -23517375.382 9 -17846695.58648  21065823.764    21065823.0044   21065831.8824
  -4356342.160 8  -3386551.07945  24482663.869    24482663.6454   24482674.7234
  -9477164.649 9  -7369087.13847  22650621.946    22650621.6614   22650634.2374
  -9268729.900 9  -7211763.19846  23503410.582    23503410.2484   23503423.6654
    224535.898 8    184156.86645  24885608.988    24885608.2614   24885626.9584
 -18358606.062 9 -13130461.19348  22014749.988    22014749.3664   22014759.3904
 00  4 17  1 26  0.0000000  0  9  3 26 23 17  9 29  6 22 21          0.000000026
 -13772379.847 9 -10430030.08447  22397954.760    22397954.3294   22397964.5404
  -8417447.377 9  -6332251.87846  23396107.021    23396106.9524   23396117.0654
 -21588469.604 9 -16796787.41149  20863424.393    20863423.7524   20863431.9584
 -23487871.738 9 -17823705.73148  21071438.033    21071437.2884   21071446.1834
  -4418535.855 8  -3435013.57045  24470828.590    24470828.1894   24470839.4164
  -9575853.897 9  -7445987.55847  22631841.765    22631841.5524   22631853.9974
  -9158964.461 9  -7126231.86446  23524298.338    23524297.9684   23524311.4694
    286700.114 8    232596.31445  24897438.468    24897437.7834   24897456.5664
 -18403536.649 9 -13165471.91548  22006199.885    22006199.2764   22006209.2804
 00  4 17  1 26 30.0000000  0  9  3 26 23 17  9 29  6 22 21          0.000000009
 -13838909.497 9 -10481871.27247  22385294.485    22385294.0844   22385304.2724
  -8324574.610 9  -6259883.52646  23413780.150    23413780.0884   23413790.2664
 -21568316.642 9 -16781083.78049  20867259.378    20867258.7474   20867266.9324
 -23458101.297 9 -17800507.98348  21077103.152    21077102.4264   21077111.3434
  -4480520.831 8  -3483313.46745  24459033.170    24459032.7034   24459044.0434
  -9674325.449 9  -7522718.35247  22613103.079    22613102.8454   22613115.2154
  -9049044.080 9  -7040579.79246  23545215.546    23545215.2164   23545228.7204
    349026.849 8    281162.42645  24909299.094    24909298.2224   24909317.0244
 -18448260.310 9 -13200321.40248  21997689.159    21997688.5674   21997698.5144
 00  4 17  1 27  0.0000000  0  9  3 26 23 17  9 29  6 22 21          0.000000005
 -13904962.600 9 -10533341.12447  22372724.915    22372724.5054   22372734.6934
  -8231363.638 9  -6187251.64146  23431517.623    23431517.5584   23431527.7704
 -21547901.216 9 -16765175.63049  20871144.289    20871143.6584   20871151.8384
 -23428025.975 9 -17777072.65948  21082826.311    21082825.5644   21082834.5234
  -4542269.033 9  -3531428.85445  24447282.765    24447282.3194   24447293.5444
  -9772558.327 9  -7599263.16247  22594409.784    22594409.5564   22594421.8014
  -8938962.918 9  -6954802.42546  23566163.413    23566163.1244   23566176.6194
    411522.403 8    329860.08445  24921191.742    24921190.9884   24921209.6214
 -18492748.676 9 -13234987.54048  21989223.203    21989222.6084   21989232.5394
 00  4 17  1 27 30.0000000  0  9  3 26 23 17  9 29  6 22 21          0.000000006
 -13970544.478 9 -10584443.78747  22360245.032    22360244.6054   22360254.7764
  -8137841.264 9  -6114377.09046  23449314.435    23449314.3974   23449324.5064
 -21527240.021 9 -16749075.97549  20875075.935    20875075.3164   20875083.4964
 -23397646.342 9 -17753400.21448  21088607.370    21088606.6314   21088615.5634
  -4603778.751 8  -3579358.40545  24435577.769    24435577.2624   24435588.4524
  -9870562.488 9  -7675629.76247  22575759.982    22575759.7474   22575771.9214
  -8828741.153 9  -6868915.50546  23587138.061    23587137.8344   23587151.2244
    474159.100 9    378667.69945  24933111.339    24933110.4174   24933129.3074
 -18536997.004 9 -13269466.63748  21980802.950    21980802.3274   21980812.2334
 00  4 17  1 28  0.0000000  0  9  3 26 23 17  9 29  6 22 21          0.000000011
 -14035664.010 9 -10635186.17647  22347853.122    22347852.7044   22347862.8244
  -8043995.543 9  -6041250.60146  23467172.594    23467172.5644   23467182.7524
 -21506336.422 9 -16732787.44049  20879053.763    20879053.1424   20879061.3134
 -23366967.382 9 -17729494.52548  21094445.364    21094444.6204   21094453.5504
  -4665058.621 8  -3627108.83245  24423916.461    24423916.1154   24423927.1754
  -9968334.273 9  -7751815.29347  22557154.443    22557154.2084   22557166.3074
  -8718381.243 9  -6782920.94046  23608139.106    23608138.7764   23608152.1674
    536915.723 9    427568.78245  24945053.757    24945052.6094   24945071.7244
 -18581004.438 9 -13303758.02948  21972428.545    21972427.9054   21972437.8164
 00  4 17  1 28 30.0000000  0  9  3 26 23 17  9 29  6 22 21          0.000000024
 -14100320.365 9 -10685567.65447  22335549.379    22335548.9914   22335559.0674
  -7949818.648 9  -5967866.03746  23485093.976    23485093.9274   23485104.1054
 -21485211.044 9 -16716326.08849  20883073.796    20883073.1594   20883081.3144
 -23335987.484 9 -17705354.33748  21100340.604    21100339.8594   21100348.7884
  -4726116.317 8  -3674686.14745  24412297.420    24412297.0884   24412308.1034
 -10065870.920 9  -7827817.59547  22538593.586    22538593.3464   22538605.3884
  -8607894.516 9  -6696827.53946  23629164.193    23629163.8804   23629177.2794
    599778.217 9    476552.35545  24957016.313    24957015.1674   24957034.3254
 -18624784.773 9 -13337872.45848  21964097.298    21964096.6734   21964106.5964
 00  4 17  1 29  0.0000000  0  9  3 26 23 17  9 29  6 22 21          0.000000038
 -14164527.603 9 -10735599.17047  22323331.104    22323330.7204   22323340.7314
  -7855321.664 9  -5894232.04246  23503076.209    23503076.1294   23503086.2034
 -21463886.808 9 -16699709.78249  20887131.671    20887131.0104   20887139.1704
 -23304711.422 9 -17680983.37548  21106292.211    21106291.4584   21106300.3964
  -4786954.750 8  -3722092.61245  24400720.299    24400719.9134   24400730.9194
 -10163167.365 9  -7903632.73147  22520078.515    22520078.3144   22520090.2234
  -8497291.285 9  -6610643.38346  23650211.441    23650211.1104   23650224.5634
    662738.253 8    525611.93945  24968997.304    24968996.3134   24969015.3334
 -18668349.710 9 -13371819.03848  21955807.066    21955806.4524   21955816.3634
 00  4 17  1 29 30.0000000  0  9  3 26 23 17  9 29  6 22 21          0.000000051
 -14228314.309 9 -10785303.00147  22311192.833    22311192.4434   22311202.3884
  -7760495.708 9  -5820341.71646  23521120.979    23521120.9274   23521131.0404
 -21442365.808 9 -16682940.15549  20891226.950    20891226.2954   20891234.4464
 -23273144.170 9 -17656385.51148  21112299.255    21112298.5104   21112307.4684
  -4847568.618 8  -3769324.11745  24389185.645    24389185.3584   24389196.4604
 -10260215.110 9  -7979254.07847  22501610.771    22501610.5404   22501622.3854
  -8386564.090 9  -6524362.62746  23671282.193    23671281.8834   23671295.4594
    725795.910 8    574747.57945  24980996.971    24980996.0164   24981014.8884
 -18711709.492 9 -13405605.75848  21947555.878    21947555.2744   21947565.1514
 00  4 17  1 30  0.0000000  0  9  3 26 23 17  9 29  6 22 21          0.000000059
 -14291687.831 9 -10834684.88347  22299133.235    22299132.8424   22299142.7094
  -7665330.616 9  -5746187.13246  23539230.359    23539230.3204   23539240.4274
 -21420655.611 9 -16666023.10249  20895358.219    20895357.5754   20895365.7294
 -23241282.905 9 -17631558.55148  21118362.255    21118361.5034   21118370.4834
  -4907973.369 8  -3816392.64345  24377691.056    24377690.5964   24377701.8824
 -10357009.163 9  -8054677.75147  22483191.245    22483191.0414   22483202.7894
  -8275706.932 9  -6437980.62446  23692377.603    23692377.3484   23692391.1344
    788955.966 8    623963.01545  24993015.944    24993014.9564   24993034.1584
 -18754874.466 9 -13439240.68348  21939341.761    21939341.1504   21939350.9994
 00  4 17  1 30 30.0000000  0  9  3 26 23 17  9 29  6 22 21          0.000000059
 -14354650.471 9 -10883746.59547  22287151.781    22287151.3664   22287161.2074
  -7569837.792 9  -5671777.16346  23557402.125    23557402.0114   23557412.1754
 -21398759.723 9 -16648961.35949  20899524.815    20899524.1714   20899532.3534
 -23209123.813 9 -17606499.51648  21124481.929    21124481.1864   21124490.1654
  -4968171.541 8  -3863300.22445  24366235.586    24366235.2864   24366246.3954
 -10453559.496 9  -8129911.51047  22464818.105    22464817.9414   22464829.5954
  -8164716.708 9  -6351494.92446  23713498.461    23713498.1864   23713512.1114
    852228.980 8    673266.45845  25005056.506    25005055.5704   25005074.8514
 -18797839.915 9 -13472720.13648  21931165.584    21931164.9914   21931174.8154
 00  4 17  1 31  0.0000000  0  9  3 26 23 17  9 29  6 22 21          0.000000045
 -14417194.696 9 -10932482.27747  22275249.946    22275249.5164   22275259.3574
  -7474032.098 9  -5597123.41646  23575633.312    23575633.1794   23575643.4444
 -21376652.304 9 -16631734.79049  20903731.714    20903731.0784   20903739.2514
 -23176669.837 9 -17581210.69948  21130657.704    21130656.9614   21130665.9444
  -5028154.990 8  -3910040.49145  24354821.038    24354820.8184   24354831.8944
 -10549868.464 9  -8204957.20247  22446490.877    22446490.7184   22446502.3364
  -8053588.065 9  -6264901.37246  23734645.621    23734645.3764   23734659.3834
    915618.487 8    722660.68845  25017119.201    25017118.2704   25017137.5884
 -18840598.598 9 -13506038.46748  21923028.815    21923028.2044   21923037.9854
 00  4 17  1 31 30.0000000  0  9  3 26 23 17  9 29  6 22 21          0.000000021
 -14479300.137 9 -10980876.04547  22263431.589    22263431.1774   22263440.9734
  -7377924.680 9  -5522234.53946  23593921.885    23593921.7784   23593932.0224
 -21354317.292 9 -16614330.87149  20907981.916    20907981.2764   20907989.4374
 -23143906.065 9 -17555680.48148  21136892.430    21136891.6844   21136900.6484
  -5087901.445 9  -3956596.08745  24343451.563    24343451.3294   24343462.4954
 -10645945.235 9  -8279821.95647  22428207.843    22428207.6854   22428219.2674
  -7942315.513 8  -6178195.67546  23755820.166    23755819.9684   23755833.9764
    979130.311 8    772150.24045  25029205.146    25029204.3624   25029223.6164
 -18883129.863 9 -13539179.59548  21914935.305    21914934.7074   21914944.4224
 00  4 17  1 32  0.0000000  0 11  3 26 23 17  9 29  6 22 15 21 31   -0.000000012
 -14540935.538 9 -11028903.55647  22251702.684    22251702.2774   22251712.0474
  -7281538.207 9  -5447128.22746  23612263.578    23612263.5004   23612273.8764
 -21331739.485 9 -16596737.76349  20912278.320    20912277.6814   20912285.8264
 -23110823.033 9 -17529901.49248  21143187.974    21143187.2364   21143196.2004
  -5147389.473 8  -4002950.32645  24332131.497    24332131.2464   24332142.2784
 -10741792.054 9  -8354507.53547  22409968.655    22409968.4134   22409979.9794
  -7830904.828 9  -6091382.35146  23777021.082    23777020.8514   23777034.9014
   1042770.424 8    821739.72545  25041315.538    25041314.6884   25041334.1264
  -1382596.78218  -1068411.20252         0.000           0.0005          0.0005
 -18925410.968 9 -13572125.79648  21906889.426    21906888.8074   21906898.4704
  -1710198.54818  -1321451.33955         0.000           0.0005   24981744.0845
 00  4 17  1 32 30.0000000  0 10  3 26 23 17  9 29  6 22 21 31      -0.000000042
 -14602089.273 9 -11076555.74547  22240065.458    22240065.0444   22240074.8044
  -7184872.055 9  -5371803.98046  23630658.599    23630658.4664   23630668.8034
 -21308902.545 9 -16578942.72849  20916624.045    20916623.3834   20916631.5334
 -23077428.891 9 -17503880.07848  21149542.648    21149541.8974   21149550.8824
  -5206583.538 9  -4049075.46645  24320867.002    24320866.6944   24320877.8914
 -10837399.925 9  -8429006.91847  22391774.816    22391774.5774   22391786.1184
  -7719363.792 9  -6004467.45646  23798246.827    23798246.5764   23798260.6614
   1106543.306 8    871432.69445  25053451.339    25053450.3774   25053469.8274
 -18967431.976 9 -13604869.33348  21898892.991    21898892.3834   21898902.0264
  -1808715.07918  -1398217.43945  24962984.349    24962984.5955   24962995.9884
 00  4 17  1 33  0.0000000  0 11  3 26 23 17  9 29  6 22 15 21 31   -0.000000060
 -14662743.308 9 -11123818.56347  22228523.317    22228522.9044   22228532.6204
  -7087920.416 9  -5296257.29546  23649107.738    23649107.6734   23649118.2194
 -21285805.100 9 -16560944.70849  20921019.342    20921018.7004   20921026.8104
 -23043728.883 9 -17477620.33248  21155955.564    21155954.8174   21155963.8044
  -5265461.785 9  -4094954.57245  24309662.890    24309662.5414   24309673.7364
 -10932762.394 9  -8503315.09647  22373627.769    22373627.5204   22373639.0134
  -7607707.669 9  -5917462.88446  23819494.442    23819494.2174   23819508.2414
   1170441.800 8    921223.53245  25065610.958    25065610.0284   25065629.5214
  -1563258.384 8  -1209181.61752         0.000           0.0004          0.0005
 -19009199.510 9 -13637415.36548  21890944.800    21890944.1954   21890953.8224
  -1906997.836 8  -1474801.37345  24944281.772    24944280.6144   24944293.9844
 00  4 17  1 33 30.0000000  0 10  3 26 23 17  9 29  6 22 21 31      -0.000000061
 -14722898.294 9 -11170692.51447  22217076.097    22217075.6894   22217085.3504
  -6990672.957 9  -5220480.09146  23667613.315    23667613.2724   23667623.7844
 -21262469.852 9 -16542761.38549  20925459.894    20925459.2464   20925467.3534
 -23009728.419 9 -17451126.46148  21162425.657    21162424.8984   21162433.9054
  -5324031.704 9  -4140593.39745  24298517.375    24298516.9974   24298528.1254
 -11027880.172 9  -8577432.60347  22355527.274    22355527.0514   22355538.4804
  -7495959.342 9  -5830386.47946  23840759.681    23840759.2764   23840773.4474
   1234464.299 8    971110.99745  25077794.261    25077793.1744   25077812.9234
 -19050724.357 9 -13669772.28448  21883042.806    21883042.1954   21883051.7594
  -2005029.599 8  -1551189.71945  24925626.898    24925625.5884   24925638.8584
 00  4 17  1 34  0.0000000  0 10  3 26 23 17  9 29  6 22 21 31      -0.000000044
 -14782560.797 9 -11217182.70747  22205722.623    22205722.1994   22205731.8694
  -6893118.616 9  -5144463.75646  23686177.387    23686177.3014   23686187.7974
 -21238907.279 9 -16524400.93149  20929943.706    20929943.0524   20929951.1644
 -22975454.771 9 -17424419.72548  21168947.736    21168947.0034   21168955.9994
  -5382307.616 9  -4186003.12045  24287427.615    24287427.2644   24287438.4614
 -11122734.122 9  -8651344.53847  22337476.953    22337476.7474   22337488.0974
  -7384142.688 9  -5743256.83846  23862037.841    23862037.4854   23862051.7354
   1298600.711 8   1021087.23045  25089999.112    25089998.1954   25090017.8014
 -19092039.364 9 -13701965.69648  21875180.770    21875180.1484   21875189.6634
  -2102807.337 8  -1627380.10445  24907020.294    24907019.2604   24907032.4364
 00  4 17  1 34 30.0000000  0 10  3 26 23 17  9 29  6 22 21 31      -0.000000009
 -14841747.102 9 -11263301.84147  22194459.790    22194459.3264   22194469.0264
  -6795249.581 9  -5068202.19546  23704801.353    23704801.2674   23704811.7024
 -21215144.758 9 -16505884.66749  20934465.524    20934464.8624   20934473.0174
 -22940922.129 9 -17397511.17648  21175519.074    21175518.3244   21175527.3264
  -5440314.177 9  -4231202.97545  24276389.369    24276389.0654   24276400.0524
 -11217324.457 9  -8725051.06547  22319476.832    22319476.6284   22319487.9504
  -7272264.926 9  -5656079.56246  23883327.672    23883327.3564   23883341.5154
   1362838.992 8   1071142.82945  25102223.529    25102222.5134   25102242.2294
 -19133166.800 9 -13734012.95048  21867354.397    21867353.7864   21867363.2624
  -2200352.595 8  -1703389.33645  24888458.008    24888456.7694   24888470.1044
 00  4 17  1 35  0.0000000  0 11  3 26 23 17  9 29  6 22 15 21 31    0.000000031
 -14900465.265 9 -11309056.17847  22183285.977    22183285.5414   22183295.2384
  -6697077.162 9  -4991704.23546  23723482.990    23723482.8754   23723493.2554
 -21191202.613 9 -16487228.43249  20939021.497    20939020.8384   20939029.0524
 -22906128.445 9 -17370399.21648  21182140.103    21182139.3504   21182148.3594
  -5498077.115 9  -4276212.98445  24265397.400    24265396.9764   24265407.9354
 -11311661.680 9  -8798560.35747  22301524.858    22301524.6364   22301535.9154
  -7160335.837 9  -5568862.30646  23904627.296    23904626.9904   23904641.0914
   1427160.819 8   1121263.53045  25114463.806    25114462.7884   25114482.2804
  -1557846.63718  -1202243.49354         0.000           0.0005   24876614.5135
 -19174124.374 9 -13765927.85148  21859560.358    21859559.7624   21859569.2204
  -2297675.766 8  -1779225.48245  24869937.963    24869936.9804   24869950.0624
 00  4 17  1 35 30.0000000  0 11  3 26 23 17  9 29  6 22 15 21 31    0.000000059
 -14958739.158 9 -11354464.33547  22172196.794    22172196.3484   22172206.0354
  -6598620.090 9  -4914984.47646  23742218.726    23742218.6844   23742229.0014
 -21167095.231 9 -16468443.44549  20943608.926    20943608.2624   20943616.5074
 -22871064.830 9 -17343076.92048  21188812.504    21188811.7414   21188820.7384
  -5555612.245 9  -4321045.49245  24254448.689    24254448.3354   24254459.2664
 -11405739.281 9  -8871867.36247  22283622.299    22283622.0604   22283633.2844
  -7048352.539 9  -5481602.80546  23925937.218    23925936.9084   23925951.0094
   1491560.873 8   1171445.17045  25126718.845    25126718.0354   25126737.4974
  -1648573.10518  -1272939.17245  24859332.644    24859333.3025   24859347.6304
 -19214919.775 9 -13797716.38248  21851797.158    21851796.5564   21851806.0174
  -2394790.322 8  -1854899.06345  24851457.615    24851456.7554   24851469.7004
 00  4 17  1 36  0.0000000  0 11  3 26 23 17  9 29  6 22 15 21 31    0.000000076
 -15016559.207 9 -11399518.84847  22161193.910    22161193.4954   22161203.1444
  -6499888.457 9  -4838050.73946  23761006.860    23761006.7274   23761017.0564
 -21142803.672 9 -16449514.94349  20948231.466    20948230.8024   20948239.0494
 -22835706.470 9 -17315524.96048  21195541.011    21195540.2334   21195549.1984
  -5612902.737 9  -4365687.35545  24243546.681    24243546.2724   24243557.2564
 -11499535.167 9  -8944954.84647  22265773.365    22265773.1764   22265784.2734
  -6936279.398 9  -5394273.30946  23947264.254    23947263.8744   23947278.0504
   1556047.117 8   1221693.98245  25138990.376    25138989.5094   25139008.9054
  -1739381.528 8  -1343698.72245  24842052.417    24842052.0354   24842068.4924
 -19255529.863 9 -13829360.53048  21844069.236    21844068.6364   21844078.0704
  -2491687.083 8  -1930402.90445  24833018.759    24833017.9504   24833030.9394
 00  4 17  1 36 30.0000000  0 11  3 26 23 17  9 29  6 22 15 21 31    0.000000074
 -15073928.510 9 -11444222.12748  22150276.862    22150276.4634   22150286.0724
  -6400901.134 9  -4760917.80246  23779843.567    23779843.3774   23779853.7174
 -21118322.216 9 -16430438.46749  20952890.091    20952889.4264   20952897.6744
 -22800032.815 9 -17287727.30648  21202329.470    21202328.7034   21202337.6604
  -5669946.890 9  -4410137.28745  24232691.419    24232691.1174   24232702.0374
 -11593062.520 9  -9017833.08947  22247975.545    22247975.3084   22247986.3834
  -6824091.188 9  -5306854.15545  23968613.081    23968612.7354   23968626.9404
   1620618.444 8   1272009.08945  25151278.009    25151277.1034   25151296.5774
  -1830267.075 8  -1414518.34245  24824757.927    24824756.5394   24824773.5024
 -19295935.102 9 -13860845.05548  21836380.304    21836379.6994   21836389.1134
  -2588372.950 8  -2005742.41545  24814620.050    24814619.4064   24814632.0124
 00  4 17  1 37  0.0000000  0 11  3 26 23 17  9 29  6 22 15 21 31    0.000000050
 -15130833.737 9 -11488563.79448  22139448.109    22139447.6994   22139457.3214
  -6301665.594 9  -4683591.41246  23798727.423    23798727.4834   23798737.6324
 -21093618.170 9 -16411188.54549  20957591.158    20957590.5124   20957598.7354
 -22764024.451 9 -17259668.84348  21209181.593    21209180.8304   21209189.8064
  -5726722.368 9  -4454377.84345  24221887.290    24221887.0474   24221898.0314
 -11686307.669 9  -9090491.42247  22230231.404    22230231.1414   22230242.1694
  -6711774.201 9  -5219334.65645  23989986.505    23989986.1274   23990000.2924
   1685280.993 8   1322395.28545  25163583.045    25163582.0944   25163601.8744
  -1921213.332 8  -1485385.27745  24807451.406    24807450.7494   24807466.5674
 -19336121.658 9 -13892159.18248  21828732.998    21828732.4034   21828741.7974
  -2684829.200 8  -2080902.96845  24796264.920    24796264.3734   24796276.7924
 00  4 17  1 37 30.0000000  0 11  3 26 23 17  9 29  6 22 15 21 31    0.000000014
 -15187262.174 9 -11532533.93648  22128710.106    22128709.6734   22128719.2724
  -6202185.505 9  -4606074.49746  23817657.965    23817657.9484   23817668.2124
 -21068673.038 9 -16391750.76049  20962338.055    20962337.4064   20962345.6194
 -22727672.920 9 -17231342.97548  21216099.059    21216098.3114   21216107.2914
  -5783203.632 9  -4498389.17245  24211139.262    24211138.9674   24211149.9804
 -11779251.716 9  -9162915.14047  22212544.547    22212544.2964   22212555.2704
  -6599305.273 9  -5131696.78445  24011388.783    24011388.3614   24011402.7424
   1750033.712 8   1372851.72545  25175905.249    25175904.3444   25175924.2064
  -2012203.160 8  -1556286.12445  24790136.571    24790135.2874   24790151.6554
 -19376058.455 9 -13923278.69448  21821133.265    21821132.6644   21821142.0204
  -2781045.661 8  -2155876.68945  24777955.502    24777955.0094   24777967.4214
 00  4 17  1 38  0.0000000  0 11  3 26 23 17  9 29  6 22 15 21 31   -0.000000018
 -15243196.562 9 -11576119.10048  22118066.131    22118065.7124   22118075.2554
  -6102449.972 9  -4528358.52546  23836637.010    23836636.9904   23836647.3104
 -21043462.515 9 -16372106.17649  20967135.477    20967134.8254   20967143.0084
 -22690995.833 9 -17202763.42948  21223078.511    21223077.7494   21223086.7114
  -5839371.861 9  -4542156.55245  24200450.940    24200450.5874   24200461.3174
 -11871888.552 9  -9235099.47347  22194916.159    22194915.9104   22194926.8314
  -6486676.594 9  -5043934.40345  24032821.556    24032821.1034   24032835.4844
   1814875.225 8   1423377.36645  25188244.311    25188243.4214   25188263.4524
  -2103227.305 8  -1627213.70545  24772815.142    24772813.8594   24772830.0944
 -19415732.304 9 -13954193.30648  21813583.532    21813582.9314   21813592.2974
  -2877006.984 8  -2230651.58745  24759694.610    24759694.0904   24759706.5484
 00  4 17  1 38 30.0000000  0 11  3 26 23 17  9 29  6 22 15 21 31   -0.000000037
 -15298625.981 9 -11619310.78848  22107518.189    22107517.7844   22107527.2934
  -6002445.718 9  -4450433.14746  23855667.229    23855667.1964   23855677.4084
 -21017987.044 9 -16352255.14449  20971983.309    20971982.6584   20971990.8194
 -22654002.815 9 -17173937.70048  21230118.034    21230117.2764   21230126.2464
  -5895218.247 9  -4585673.14845  24189823.721    24189823.3534   24189834.0304
 -11964218.855 9  -9307044.95347  22177346.111    22177345.8844   22177356.7524
  -6373901.378 8  -4956057.87745  24054282.143    24054281.6574   24054296.2234
   1879800.398 8   1473968.18345  25200599.296    25200598.5584   25200618.2324
  -2194286.410 8  -1698168.56945  24755487.045    24755485.9044   24755501.6164
 -19455145.799 9 -13984905.04848  21806083.277    21806082.6934   21806092.0834
  -2972707.016 8  -2305222.86945  24741483.414    24741482.9184   24741495.5274
 00  4 17  1 39  0.0000000  0 11  3 26 23 17  9 29  6 22 15 21 31   -0.000000063
 -15353585.391 9 -11662136.23448  22097059.761    22097059.3344   22097068.8614
  -5902206.251 9  -4372324.49646  23874742.169    23874742.1494   23874752.3194
 -20992301.159 9 -16332240.14849  20976871.138    20976870.4854   20976878.6484
 -22616734.964 9 -17144897.81248  21237209.839    21237209.0864   21237218.0494
  -5950783.655 9  -4628970.77445  24179249.932    24179249.5854   24179260.2784
 -12056273.030 9  -9378775.27147  22159828.731    22159828.5104   22159839.4154
  -6261044.030 9  -4868117.33545  24075758.261    24075757.7594   24075772.2684
   1944778.218 8   1524600.04245  25212964.238    25212963.4994   25212983.1344
  -2285420.423 8  -1769181.77945  24738144.773    24738143.6004   24738159.3334
 -19494340.698 9 -14015446.45448  21798624.733    21798624.1474   21798633.5614
  -3068165.658 8  -2379606.06445  24723318.206    24723317.7734   24723330.3604
 00  4 17  1 39 30.0000000  0 11  3 26 23 17  9 29  6 22 15 21 31   -0.000000036
 -15407979.208 9 -11704520.96448  22086708.923    22086708.5104   22086717.9964
  -5801638.559 9  -4293960.08646  23893879.591    23893879.5014   23893889.8684
 -20966343.083 9 -16312013.05649  20981810.801    20981810.1354   20981818.2834
 -22579107.264 9 -17115577.53148  21244370.149    21244369.4094   21244378.3914
  -6005986.740 9  -4671986.10545  24168745.048    24168744.6774   24168755.2614
 -12147969.693 9  -9450227.00747  22142379.215    22142379.0204   22142389.8154
  -6148031.390 9  -4780055.80445  24097264.134    24097263.6704   24097278.1384
   2009899.667 8   1575343.81645  25225356.665    25225355.7894   25225375.8074
  -2376548.416 8  -1840190.35645  24720803.346    24720802.4054   24720818.1494
 -19533238.106 9 -14045756.04848  21791222.723    21791222.1214   21791231.5244
  -3163293.069 8  -2453731.16345  24705215.908    24705215.5064   24705227.7674
 00  4 17  1 40  0.0000000  0 11  3 26 23 17  9 29  6 22 15 21 31   -0.000000001
 -15461873.893 9 -11746516.75548  22076453.059    22076452.6404   22076462.0964
  -5700800.196 9  -4215384.74646  23913068.573    23913068.4874   23913078.7444
 -20940197.985 9 -16291640.23449  20986786.029    20986785.3714   20986793.4904
 -22541176.049 9 -17086020.74448  21251588.242    21251587.4724   21251596.4824
  -6060899.408 9  -4714775.11345  24158295.329    24158294.9814   24158305.6574
 -12239388.940 9  -9521462.57447  22124982.508    22124982.2944   22124993.0264
  -6034955.220 9  -4691944.76645  24118782.061    24118781.6344   24118796.0314
   2075109.340 8   1626156.32745  25237765.744    25237765.0084   25237784.8864
  -2467740.172 8  -1911248.62745  24703449.984    24703449.1794   24703464.4974
 -19571931.340 9 -14075906.54948  21783859.576    21783858.9684   21783868.3554
  -3258153.113 8  -2527647.93645  24687164.483    24687163.8434   24687176.3044
 00  4 17  1 40 30.0000000  0 11  3 26 23 17  9 29  6 22 15 21 31    0.000000033
 -15515268.446 9 -11788122.83148  22066292.325    22066291.9044   22066301.3374
  -5599694.238 9  -4136600.91646  23932308.345    23932308.2974   23932318.5824
 -20913893.722 9 -16271143.38649  20991791.589    20991790.9364   20991799.0214
 -22502921.916 9 -17056212.32948  21258867.707    21258866.9734   21258875.9924
  -6115534.831 9  -4757348.08245  24147898.561    24147898.2284   24147908.8474
 -12330543.742 9  -9592492.08147  22107636.084    22107635.9034   22107646.5364
  -5921836.441 9  -4603800.53745  24140308.123    24140307.7134   24140322.0144
   2140401.842 8   1677033.38045  25250190.759    25250189.9674   25250209.8214
  -2558999.529 8  -1982359.59245  24686083.752    24686083.0304   24686098.1794
 -19610430.394 9 -14105905.73548  21776533.357    21776532.7504   21776542.1294
  -3352749.572 8  -2601359.33445  24669163.205    24669162.6244   24669175.0614
 00  4 17  1 41  0.0000000  0 11  3 26 23 17  9 29  6 22 15 21 31    0.000000062
 -15568170.512 9 -11829345.15848  22056225.347    22056224.9334   22056234.3474
  -5498320.990 9  -4057608.80346  23951599.069    23951598.9834   23951609.2824
 -20887437.887 9 -16250528.43249  20996825.940    20996825.2604   20996833.3634
 -22464342.514 9 -17026150.45548  21266209.148    21266208.4004   21266217.4104
  -6169891.969 9  -4799704.22345  24137554.741    24137554.4584   24137565.0124
 -12421433.335 9  -9663314.93947  22090340.240    22090340.0464   22090350.6034
  -5808685.656 9  -4515631.36145  24161840.117    24161839.7664   24161854.1554
   2205780.442 8   1727977.51645  25262632.064    25262631.1244   25262651.3024
  -2650326.960 8  -2053523.61245  24668704.598    24668703.8324   24668718.7544
 -19648740.978 9 -14135758.06648  21769243.065    21769242.4574   21769251.7904
  -3447080.037 8  -2674863.46245  24651212.533    24651211.9824   24651224.5084
 00  4 17  1 41 30.0000000  0 11  3 26 23 17  9 29  6 22 15 21 31    0.000000085
 -15620582.026 9 -11870185.23148  22046251.744    22046251.3184   22046260.7004
  -5396688.140 9  -3978414.39546  23970939.135    23970939.1244   23970949.3534
 -20860823.496 9 -16229789.92849  21001890.468    21001889.8044   21001897.9084
 -22425449.830 9 -16995844.46548  21273610.173    21273609.3974   21273618.4204
  -6223961.115 9  -4841835.94045  24127265.677    24127265.3624   24127275.8204
 -12512061.792 9  -9733934.29747  22073094.085    22073093.8954   22073104.3894
  -5695509.834 9  -4427442.67345  24183376.920    24183376.6574   24183390.9214
   2271217.921 8   1778967.52245  25275084.477    25275083.4334   25275103.6344
  -2741728.818 8  -2124745.64245  24651311.267    24651310.4044   24651325.5714
 -19686872.209 9 -14165470.63548  21761986.857    21761986.2414   21761995.5424
  -3541165.481 8  -2748176.66445  24633308.552    24633308.0164   24633320.4614
 00  4 17  1 42  0.0000000  0 11  3 26 23 17  9 29  6 22 15 21 31    0.000000094
 -15672510.251 9 -11910648.72048  22036370.075    22036369.6694   22036379.0064
  -5294806.930 9  -3899026.44346  23990326.573    23990326.5524   23990336.7894
 -20834032.653 9 -16208913.93349  21006988.575    21006987.9054   21006996.0084
 -22386246.310 9 -16965296.26448  21281070.342    21281069.5624   21281078.5764
  -6277730.985 9  -4883734.47045  24117033.552    24117033.2564   24117043.7554
 -12602412.755 9  -9804337.44847  22055900.722    22055900.5384   22055910.9704
  -5582308.550 8  -4339234.17345  24204918.603    24204918.3234   24204932.7454
   2336701.383 8   1829993.38145  25287545.715    25287544.7874   25287564.9864
  -2833201.716 8  -2196023.02945  24633904.254    24633903.5244   24633918.6054
 -19724816.987 9 -14195037.91548  21754766.156    21754765.5494   21754774.8214
  -3635012.382 8  -2821303.99045  24615449.942    24615449.3794   24615461.9044
 00  4 17  1 42 30.0000000  0 11  3 26 23 17  9 29  6 22 15 21 31    0.000000091
 -15723959.712 9 -11950739.15248  22026579.507    22026579.0874   22026588.4284
  -5192684.223 9  -3819450.33446  24009759.844    24009759.7694   24009770.1314
 -20807045.395 9 -16187884.89049  21012124.065    21012123.4004   21012131.5244
 -22346738.981 9 -16934511.33348  21288588.291    21288587.5284   21288596.5674
  -6331185.367 9  -4925387.15345  24106861.427    24106861.1284   24106871.5484
 -12692460.221 9  -9874504.09347  22038765.090    22038764.8714   22038775.2834
  -5469065.668 8  -4250993.26445  24226468.143    24226467.8854   24226482.4414
   2402228.324 8   1881053.10245  25300015.201    25300014.2944   25300034.6454
  -2924741.758 8  -2267352.74545  24616484.554    24616483.7544   24616498.8184
 -19762554.858 9 -14224443.97348  21747584.844    21747584.2414   21747593.4544
  -3728614.921 8  -2894240.91045  24597637.865    24597637.4104   24597649.8524
 00  4 17  1 43  0.0000000  0 11  3 26 23 17  9 29  6 22 15 21 31    0.000000079
 -15774923.838 9 -11990451.39048  22016881.286    22016880.8914   22016890.2134
  -5090326.185 9  -3739690.82546  24029237.929    24029237.8354   24029248.2274
 -20779839.835 9 -16166685.74449  21017301.061    21017300.4164   21017308.5314
 -22306923.136 9 -16903485.99548  21296164.982    21296164.2024   21296173.2814
  -6384297.266 9  -4966772.95445  24096754.359    24096754.0744   24096764.5684
 -12782181.564 9  -9944416.62547  22021691.534    22021691.3114   22021701.6684
  -5355765.481 8  -4162707.72345  24248028.677    24248028.3884   24248043.1634
   2467806.326 8   1932152.57945  25312494.423    25312493.5644   25312513.8094
  -3016338.541 8  -2338726.63645  24599053.987    24599053.1114   24599068.3624
 -19800075.043 9 -14253680.40948  21740444.951    21740444.3444   21740453.5144
  -3821964.547 9  -2966980.75745  24579873.921    24579873.3584   24579885.8444
 00  4 17  1 43 30.0000000  0 11  3 26 23 17  9 29  6 22 15 21 31    0.000000068
 -15825381.586 9 -12029769.04848  22007279.451    22007279.0684   22007288.3894
  -4987743.720 9  -3659756.44246  24048758.768    24048758.6514   24048769.1384
 -20752417.227 9 -16145317.46849  21022519.386    21022518.7434   21022526.8834
 -22266791.383 9 -16872214.49948  21303801.836    21303801.0364   21303810.1164
  -6437053.877 9  -5007881.92046  24086714.989    24086714.8044   24086725.2944
 -12871565.936 9 -10014066.58747  22004682.080    22004681.8464   22004692.1694
  -5242387.366 8  -4074361.44245  24269604.006    24269603.6534   24269618.5204
   2533428.656 8   1983286.60345  25324982.143    25324981.2804   25325001.4194
  -3107982.871 8  -2410137.57045  24581614.437    24581613.5234   24581628.7354
 -19837380.712 9 -14282749.69048  21733345.839    21733345.2284   21733354.3764
  -3915052.975 8  -3039517.08945  24562159.725    24562159.0914   24562171.5584
 00  4 17  1 44  0.0000000  0 11  3 26 23 17  9 29  6 22 15 21 31    0.000000058
 -15875331.726 9 -12068691.17748  21997774.256    21997773.8484   21997783.1574
  -4884947.253 9  -3579655.33346  24068320.239    24068320.0794   24068330.5264
 -20724787.209 9 -16123787.57849  21027777.194    21027776.5434   21027784.6964
 -22226342.130 9 -16840695.59248  21311499.025    21311498.2474   21311507.3224
  -6489456.765 9  -5048715.24746  24076742.912    24076742.6084   24076753.3014
 -12960603.762 9 -10083446.51447  21987738.616    21987738.3664   21987748.6274
  -5128921.553 8  -3985946.82445  24291196.061    24291195.7944   24291210.6314
   2599114.086 8   2034469.79945  25337481.895    25337480.8164   25337501.2304
  -3199665.805 8  -2481578.56445  24564167.783    24564166.9624   24564181.8104
 -19874463.170 9 -14311645.04448  21726289.201    21726288.5944   21726297.7334
  -4007853.464 8  -3111829.06545  24544500.378    24544499.7364   24544512.0454
 00  4 17  1 44 30.0000000  0 11  3 26 23 17  9 29  6 22 15 21 31    0.000000058
 -15924762.811 9 -12107208.84248  21988367.766    21988367.3504   21988376.6684
  -4781926.166 9  -3499379.16346  24087924.552    24087924.4774   24087934.9184
 -20696970.065 9 -16102111.87949  21033070.603    21033069.9494   21033078.1154
 -22185575.236 9 -16808929.17848  21319256.699    21319255.9164   21319265.0044
  -6541513.565 9  -5089278.90446  24066836.817    24066836.5164   24066847.1074
 -13049305.202 9 -10152564.32547  21970859.119    21970858.8914   21970869.1234
  -5015377.374 8  -3897471.15445  24312803.033    24312802.6174   24312817.6374
   2664859.544 8   2085699.77845  25349993.033    25349992.0054   25350012.7374
  -3291387.255 8  -2553049.57545  24546713.717    24546712.7054   24546727.4814
 -19911332.985 9 -14340374.70048  21719273.090    21719272.4614   21719281.5804
  -4100350.475 8  -3183904.56345  24526898.789    24526898.0224   24526910.3664
 00  4 17  1 45  0.0000000  0 11  3 26 23 17  9 29  6 22 15 21 31    0.000000064
 -15973658.053 9 -12145308.96948  21979063.246    21979062.8424   21979072.1524
  -4678694.527 9  -3418938.94046  24107568.953    24107568.8174   24107579.2154
 -20668985.657 9 -16080305.84849  21038395.813    21038395.1724   21038403.3474
 -22144496.075 9 -16776919.44448  21327073.810    21327073.0454   21327082.0934
  -6593243.029 9  -5129587.48646  24056992.944    24056992.6514   24057003.2974
 -13137683.937 9 -10221430.68547  21954041.039    21954040.8144   21954051.0154
  -4901779.077 8  -3808953.31645  24334420.217    24334419.7624   24334435.0574
   2730648.677 8   2136963.77745  25362512.388    25362511.5294   25362532.3334
  -3383154.404 8  -2624556.17345  24529250.780    24529249.9134   24529264.5444
 -19948011.457 9 -14368955.26148  21712293.366    21712292.7334   21712301.8534
  -4192552.984 8  -3255750.58945  24509353.183    24509352.3494   24509364.7454
 00  4 17  1 45 30.0000000  0 11  3 26 23 17  9 29  6 22 15 21 31    0.000000058
 -16022035.162 9 -12183005.35948  21969857.334    21969856.9254   21969866.2224
  -4575264.230 9  -3338343.91346  24127251.143    24127250.9724   24127261.3874
 -20640855.069 9 -16058385.90449  21043748.885    21043748.2164   21043756.4064
 -22103127.106 9 -16744683.88248  21334946.027    21334945.2654   21334954.3304
  -6644668.547 9  -5169659.23346  24047207.011    24047206.6754   24047217.2124
 -13225751.881 9 -10290054.86647  21937282.114    21937281.8964   21937292.0394
  -4788142.440 8  -3720405.62645  24356044.762    24356044.4114   24356059.6284
   2796462.970 8   2188247.38845  25375036.690    25375035.6584   25375056.5944
  -3474983.753 9  -2696111.23245  24511775.974    24511775.2424   24511789.8454
 -19984511.045 9 -14397396.42548  21705347.659    21705347.0314   21705356.1764
  -4284468.812 9  -3327373.21245  24491862.194    24491861.5074   24491873.6944
 00  4 17  1 46  0.0000000  0 11  3 26 23 17  9 29  6 22 15 21 31    0.000000068
 -16069911.252 9 -12220311.35248  21960746.765    21960746.3624   21960755.6374
  -4471628.555 9  -3257588.83846  24146972.374    24146972.1994   24146982.5544
 -20612566.398 9 -16036342.78049  21049132.014    21049131.3604   21049139.5364
 -22061469.585 9 -16712223.48048  21342873.195    21342872.4474   21342881.5194
  -6695796.872 9  -5209499.39146  24037477.528    24037477.2704   24037487.8154
 -13313521.826 9 -10358446.84447  21920579.912    21920579.6994   21920589.8164
  -4674485.404 8  -3631842.01845  24377673.246    24377672.8284   24377688.1404
   2862291.550 8   2239542.12545  25387563.729    25387562.7064   25387583.6444
  -3566884.699 8  -2767722.08145  24494287.705    24494286.9874   24494301.5694
 -20020822.595 9 -14425691.06848  21698437.759    21698437.1354   21698446.2444
  -4376109.280 9  -3398781.27945  24474423.482    24474422.7804   24474435.0124
 00  4 17  1 46 30.0000000  0 11  3 26 23 17  9 29  6 22 15 21 31    0.000000066
 -16117270.478 9 -12257214.59048  21951734.536    21951734.1314   21951743.4064
  -4367767.936 9  -3176658.49645  24166736.358    24166736.2864   24166746.6414
 -20584101.231 9 -16014162.12649  21054548.765    21054548.1204   21054556.2914
 -22019512.231 9 -16679529.43948  21350857.436    21350856.6994   21350865.7424
  -6746610.027 9  -5249093.96946  24027808.191    24027807.8454   24027818.2594
 -13400988.484 9 -10426602.50247  21903935.365    21903935.1624   21903945.2674
  -4560800.828 8  -3543256.95945  24399306.933    24399306.4204   24399321.9474
   2928123.902 8   2290839.81845  25400091.502    25400090.3234   25400111.4774
  -3658855.517 8  -2839387.36445  24476785.971    24476785.1454   24476799.7554
 -20056950.149 9 -14453842.34148  21691562.888    21691562.2544   21691571.3504
  -4467486.861 9  -3469984.49945  24457034.806    24457034.0784   24457046.3054
 00  4 17  1 47  0.0000000  0 11  3 26 23 17  9 29  6 22 15 21 31    0.000000057
 -16164116.791 9 -12293718.15348  21942819.938    21942819.5124   21942828.7684
  -4263686.008 9  -3095555.70745  24186542.498    24186542.4454   24186552.8374
 -20555439.286 9 -15991828.14349  21060002.956    21060002.2944   21060010.4654
 -21977248.041 9 -16646596.30748  21358900.084    21358899.3614   21358908.3574
  -6797087.417 9  -5288426.91645  24018202.478    24018202.0954   24018212.6314
 -13488151.241 9 -10494521.35347  21887348.722    21887348.5144   21887358.6094
  -4447070.168 8  -3454635.99945  24420949.461    24420949.0994   24420964.5204
   2993964.967 9   2342144.30545  25412620.936    25412619.7194   25412641.0164
  -3750886.726 9  -2911099.68945  24459272.902    24459271.9694   24459286.8224
 -20092873.580 9 -14481834.55548  21684726.838    21684726.2074   21684735.2714
  -4558596.237 8  -3540978.70945  24439697.141    24439696.3304   24439708.7934
 00  4 17  1 47 30.0000000  0 11  3 26 23 17  9 29  6 22 15 21 31    0.000000046
 -16210460.245 9 -12329829.87948  21934001.018    21934000.6074   21934009.8064
  -4159370.050 9  -3014270.57245  24206393.114    24206393.0424   24206403.5734
 -20526570.286 9 -15969332.81549  21065496.568    21065495.9314   21065504.0774
 -21934669.830 9 -16613418.47748  21367002.502    21367001.7324   21367010.6854
  -6847217.030 9  -5327488.86845  24008663.017    24008662.6494   24008673.1974
 -13575016.931 9 -10562208.71947  21870818.597    21870818.3884   21870828.4144
  -4333283.829 8  -3365971.64945  24442602.552    24442602.1374   24442617.6534
   3059825.508 8   2393463.98245  25425153.958    25425152.9624   25425174.1434
  -3842971.531 8  -2982853.80445  24441749.498    24441748.7504   24441763.2254
 -20128571.648 9 -14509651.16248  21677933.661    21677933.0394   21677942.1024
  -4649420.823 8  -3611751.02445  24422413.733    24422412.9164   24422425.2234
 00  4 17  1 48  0.0000000  0 11  3 26 23 17  9 29  6 22 15 21 31    0.000000038
 -16256289.250 9 -12365540.73748  21925280.020    21925279.6054   21925288.7734
  -4054816.469 9  -2932800.25845  24226288.955    24226288.9694   24226299.3844
 -20497494.224 9 -15946676.13849  21071029.569    21071028.9104   21071037.0584
 -21891764.705 9 -16579985.91648  21375167.090    21375166.3404   21375175.2794
  -6896984.458 9  -5366268.60646  23999192.661    23999192.2564   23999202.8224
 -13661576.537 9 -10629657.58247  21854346.710    21854346.4914   21854356.4644
  -4219441.888 8  -3277263.97745  24464266.191    24464266.1014   24464281.3374
   3125713.447 9   2444804.98545  25437692.119    25437691.2724   25437712.3104
  -3935099.196 8  -3054641.30345  24424217.994    24424217.1374   24424231.7484
 -20164040.610 9 -14537289.25648  21671184.081    21671183.4824   21671192.5064
  -4739955.438 9  -3682297.37545  24405185.482    24405184.7334   24405196.9584
 00  4 17  1 48 30.0000000  0 11  3 26 23 17  9 29  6 22 15 21 31    0.000000036
 -16301598.480 9 -12400846.57748  21916657.941    21916657.5144   21916666.6444
  -3950046.388 9  -2851161.23745  24246226.131    24246226.1074   24246236.5584
 -20468224.927 9 -15923868.88849  21076599.307    21076598.6544   21076606.7924
 -21848531.908 9 -16546298.02648  21383394.042    21383393.2854   21383402.1774
  -6946393.637 8  -5404769.17345  23989790.116    23989789.6354   23989800.2824
 -13747815.857 9 -10696856.87748  21837935.827    21837935.6224   21837945.4894
  -4105545.210 8  -3188513.66345  24485940.238    24485940.1374   24485955.4494
   3191644.083 8   2496179.28645  25450238.596    25450237.6574   25450258.8074
  -4027262.437 8  -3126456.54445  24406679.769    24406678.9484   24406693.4244
 -20199282.252 9 -14564750.21648  21664477.769    21664477.1554   21664486.1884
  -4830179.230 9  -3752601.52745  24388016.403    24388015.6284   24388027.7104
 00  4 17  1 49  0.0000000  0 11  3 26 23 17  9 29  6 22 15 21 31    0.000000045
 -16346393.145 9 -12435751.45248  21908133.762    21908133.3454   21908142.4084
  -3845072.945 8  -2769363.71145  24266201.966    24266201.8684   24266212.2224
 -20438775.312 9 -15900921.12549  21082203.379    21082202.7254   21082210.8644
 -21804970.120 9 -16512353.78148  21391683.571    21391682.8264   21391691.6974
  -6995451.578 9  -5442996.07145  23980454.440    23980454.0974   23980464.7114
 -13833729.528 9 -10763802.41748  21821586.880    21821586.6904   21821596.4654
  -3991598.899 8  -3099724.68145  24507623.747    24507623.5544   24507639.0074
   3257620.384 8   2547589.14345  25462793.551    25462792.5554   25462813.8294
  -4119458.087 8  -3198297.03945  24389135.316    24389134.4844   24389148.9024
 -20234291.220 9 -14592029.87348  21657815.705    21657815.0974   21657824.0964
  -4920074.265 8  -3822649.50945  24370909.886    24370909.2014   24370921.1084
 00  4 17  1 49 30.0000000  0 11  3 26 23 17  9 29  6 22 15 21 31    0.000000008
 -16390657.342 9 -12470242.98148  21899710.530    21899710.1064   21899719.1694
  -3739895.548 9  -2687407.32945  24286216.526    24286216.4924   24286226.8424
 -20409138.549 9 -15877827.53249  21087843.020    21087842.3614   21087850.5284
 -21761070.858 9 -16478146.56948  21400037.321    21400036.5734   21400045.4734
  -7044147.374 9  -5480940.76146  23971188.017    23971187.6424   23971198.2914
 -13919282.362 9 -10830466.78948  21805306.571    21805306.4114   21805316.1074
  -3877601.817 8  -3010896.15245  24529316.983    24529316.7674   24529332.4984
   3323651.204 8   2599041.47845  25475358.945    25475357.8864   25475379.0544
  -4211681.602 8  -3270159.24945  24371585.525    24371584.7234   24371599.2034
 -20269074.246 9 -14619133.47248  21651196.647    21651196.0494   21651205.0174
  -5009631.343 8  -3892434.16445  24353867.676    24353866.9694   24353878.8984
 00  4 17  1 50  0.0000000  0 11  3 26 23 17  9 29  6 22 15 21 31    0.000000026
 -16434381.774 9 -12504313.91748  21891390.019    21891389.5964   21891398.6224
  -3634523.608 9  -2605299.33145  24306268.158    24306268.0614   24306278.4154
 -20379311.469 9 -15854585.63849  21093518.865    21093518.2214   21093526.4004
 -21716833.644 9 -16443676.01848  21408455.358    21408454.6154   21408463.5444
  -7092479.466 9  -5518602.04746  23961990.685    23961990.3194   23962000.9744
 -14004458.382 9 -10896837.53548  21789097.994    21789097.8314   21789107.4804
  -3763554.645 8  -2922028.61245  24551019.628    24551019.3324   24551035.2224
   3389721.666 8   2650524.70345  25487931.848    25487931.1124   25487951.9724
  -4303933.828 8  -3342043.83345  24354030.293    24354029.5464   24354043.8624
 -20303649.366 9 -14646075.07048  21644617.168    21644616.5644   21644625.5364
  -5098854.657 8  -3961958.73545  24336888.958    24336888.3134   24336900.2124
 00  4 17  1 50 30.0000000  0 11  3 26 23 17  9 29  6 22 15 21 31    0.000000042
 -16477582.021 9 -12537976.39448  21883169.227    21883168.8374   21883177.8694
  -3528979.976 8  -2523057.50745  24326352.466    24326352.3784   24326362.5854
 -20349308.753 9 -15831206.88749  21099228.190    21099227.5594   21099235.7424
 -21672286.501 9 -16408963.96348  21416932.392    21416931.6574   21416940.5694
  -7140468.565 9  -5555996.06846  23952858.675    23952858.3314   23952868.8294
 -14089282.042 9 -10962933.71748  21772956.485    21772956.2964   21772965.8724
  -3649488.829 8  -2833146.53045  24572725.863    24572725.5954   24572741.5754
   3455803.086 8   2702016.47645  25500506.992    25500506.1974   25500526.8514
  -4396243.188 9  -3413972.95645  24336464.269    24336463.5174   24336477.7604
 -20338036.924 9 -14672870.50848  21638073.375    21638072.7744   21638081.7514
  -5187767.971 8  -4031241.72945  24319969.200    24319968.5774   24319980.4364
 00  4 17  1 51  0.0000000  0 11  3 26 23 17  9 29  6 22 15 21 31    0.000000056
 -16520244.573 9 -12571219.88748  21875050.784    21875050.3784   21875059.4384
  -3423244.913 8  -2440666.54445  24346473.087    24346472.9384   24346483.3274
 -20319128.133 9 -15807689.51149  21104971.370    21104970.7534   21104978.9474
 -21627428.733 9 -16374009.86648  21425468.507    21425467.7674   21425476.6924
  -7188092.824 9  -5593105.81546  23943796.056    23943795.7964   23943806.2294
 -14173753.161 9 -11028755.19348  21756882.015    21756881.8344   21756891.3664
  -3535416.358 8  -2744259.24645  24594433.445    24594433.0784   24594449.0614
   3521890.050 8   2753512.55945  25513083.015    25513082.1394   25513103.3164
  -4488609.401 8  -3485946.38245  24318887.362    24318886.5564   24318900.7274
 -20372241.608 9 -14699523.45848  21631564.343    21631563.7404   21631572.7474
  -5276385.637 9  -4100294.36145  24303105.679    24303105.0914   24303116.8354
 00  4 17  1 51 30.0000000  0 11  3 26 23 17  9 29  6 22 15 21 31    0.000000063
 -16562359.878 9 -12604036.94748  21867036.455    21867036.0464   21867045.1264
  -3317310.388 8  -2358120.10645  24366631.790    24366631.4124   24366641.8374
 -20288761.937 9 -15784027.52749  21110749.872    21110749.2324   21110757.4504
 -21582255.934 9 -16338810.29248  21434064.561    21434063.8364   21434072.7834
  -7235345.765 9  -5629926.23246  23934804.085    23934803.7794   23934814.1484
 -14257879.109 9 -11094307.70048  21740873.221    21740873.0474   21740882.5464
  -3421347.308 8  -2655374.61745  24616140.343    24616139.9004   24616155.9054
   3587991.97018   2805020.29145  25525662.086    25525661.1835   25525682.4174
  -4581026.242 9  -3557959.25045  24301300.845    24301299.9014   24301314.0524
 -20406266.419 9 -14726036.25248  21625089.602    21625088.9934   21625097.9984
  -5364716.450 9  -4169123.46145  24286296.797    24286296.1174   24286307.8624
 00  4 17  1 52  0.0000000  0 11  3 26 23 17  9 29  6 22 15 21 31    0.000000065
 -16603925.698 9 -12636425.84748  21859126.661    21859126.2624   21859135.3334
  -3211164.518 8  -2275409.07845  24386830.590    24386830.2584   24386840.7794
 -20258227.254 9 -15760234.25749  21116560.405    21116559.7804   21116567.9944
 -21536756.927 9 -16303356.52548  21442722.739    21442722.0424   21442730.9824
  -7282223.776 9  -5666454.48846  23925883.555    23925883.2764   23925893.5894
 -14341669.560 9 -11159598.79348  21724928.237    21724928.0554   21724937.5284
  -3307282.904 8  -2566493.67545  24637846.233    24637846.0634   24637862.2374
   3654116.249 8   2856545.45545  25538245.221    25538244.1324   25538265.5934
  -4673480.360 8  -3630001.18345  24283707.207    24283706.3014   24283720.3724
 -20440087.046 9 -14752389.93848  21618653.658    21618653.0584   21618662.0724
  -5452757.440 9  -4237726.71145  24269543.075    24269542.3864   24269554.1704
 00  4 17  1 52 30.0000000  0 11  3 26 23 17  9 29  6 22 15 21 31    0.000000023
 -16644944.845 9 -12668388.76848  21851320.942    21851320.5564   21851329.6014
  -3104809.817 8  -2192535.24045  24407069.175    24407068.9484   24407079.5374
 -20227540.642 9 -15736322.60049  21122399.907    21122399.2674   21122407.4624
 -21490937.133 9 -16267652.79548  21451441.937    21451441.2264   21451450.1514
  -7328719.872 9  -5702685.13046  23917035.586    23917035.1724   23917045.6134
 -14425130.719 9 -11224633.29248  21709045.978    21709045.8114   21709055.2534
  -3193223.560 8  -2477616.65045  24659551.399    24659551.1084   24659567.2954
   3720265.490 8   2908090.07945  25550833.212    25550831.9484   25550853.8054
  -4765970.319 8  -3702071.07045  24266106.828    24266105.9054   24266119.7534
 -20473698.658 9 -14778580.74948  21612257.507    21612256.9064   21612265.9434
  -5540501.177 8  -4306098.34745  24252845.940    24252845.2554   24252856.9314
 00  4 17  1 53  0.0000000  0 11  3 26 23 17  9 29  6 22 15 21 31    0.000000028
 -16685431.297 9 -12699936.60248  21843616.593    21843616.1894   21843625.2254
  -2998252.828 8  -2109503.80245  24427346.333    24427346.2104   24427356.5874
 -20196702.527 9 -15712292.88549  21128268.213    21128267.5654   21128275.7434
 -21444790.216 9 -16231694.17048  21460223.402    21460222.6874   21460231.6044
  -7374836.296 9  -5738619.92946  23908259.806    23908259.3964   23908269.7054
 -14508270.633 9 -11289417.47648  21693224.872    21693224.6934   21693234.0964
  -3079160.817 8  -2388736.98645  24681257.127    24681256.8304   24681272.9114
   3786430.698 8   2959647.12945  25563424.116    25563422.9804   25563444.9114
  -4858491.425 9  -3774165.21245  24248500.412    24248499.6244   24248513.2624
 -20507113.924 9 -14804618.56148  21605898.759    21605898.1684   21605907.1904
  -5627934.789 9  -4374228.33745  24236207.753    24236207.0434   24236218.6904
 00  4 17  1 53 30.0000000  0 11  3 26 23 17  9 29  6 22 15 21 31    0.000000031
 -16725390.670 9 -12731073.72548  21836012.536    21836012.1144   21836021.1254
  -2891517.911 9  -2026333.73345  24447657.292    24447657.0894   24447667.5944
 -20165717.045 9 -15688148.34549  21134164.580    21134163.9334   21134172.0844
 -21398318.470 9 -16195482.43248  21469066.695    21469065.9854   21469074.9254
  -7420583.098 9  -5774266.74246  23899554.450    23899554.0734   23899564.2104
 -14591088.011 9 -11353950.33948  21677465.049    21677464.8944   21677474.2624
  -2965073.078 8  -2299837.85345  24702967.595    24702967.3714   24702983.6354
   3852608.325 8   3011213.85745  25576017.453    25576016.3424   25576038.3754
  -4951043.440 8  -3846283.44545  24230888.107    24230887.2564   24230900.8064
 -20540323.694 9 -14830496.25748  21599579.129    21599578.5134   21599587.5154
  -5715039.712 9  -4442102.18045  24219632.151    24219631.5484   24219643.1744
 00  4 17  1 54  0.0000000  0 11  3 26 23 17  9 29  6 22 15 21 31    0.000000038
 -16764823.650 9 -12761800.67148  21828508.612    21828508.1884   21828517.1924
  -2784619.925 8  -1943036.54945  24467999.276    24467998.9074   24468009.3274
 -20134594.245 9 -15663896.80449  21140087.023    21140086.3634   21140094.5114
 -21351533.768 9 -16159026.83148  21477969.580    21477968.8424   21477977.7824
  -7465955.219 9  -5809621.57546  23890920.366    23890919.9814   23890930.0894
 -14673572.349 9 -11418223.68948  21661768.671    21661768.5104   21661777.8314
  -2850953.879 8  -2210914.24545  24724683.986    24724683.8074   24724700.0384
   3918780.384 8   3062776.25845  25588609.817    25588608.7054   25588630.8304
  -5043633.111 9  -3918431.02845  24213268.568    24213267.7644   24213281.4284
 -20573324.418 9 -14856211.06048  21593299.288    21593298.6804   21593307.6374
  -5801804.921 9  -4509711.32145  24203121.227    24203120.6384   24203132.2054
 00  4 17  1 54 30.0000000  0 11  3 26 23 17  9 29  6 22 15 21 31    0.000000037
 -16803720.166 9 -12792109.59048  21821106.828    21821106.4034   21821115.4174
  -2677577.165 8  -1859626.55145  24488368.874    24488368.6654   24488378.9364
 -20103309.223 9 -15639518.85749  21146040.375    21146039.7214   21146047.8344
 -21304445.184 9 -16122334.43548  21486930.167    21486929.4784   21486938.3964
  -7510956.533 9  -5844687.43946  23882356.811    23882356.3694   23882366.7964
 -14755715.056 9 -11482230.83748  21646137.276    21646137.1114   21646146.4474
  -2736810.261 8  -2121971.59645  24746405.209    24746404.9404   24746421.3794
   3984923.484 9   3114316.05845  25601196.669    25601195.6114   25601217.5804
  -5136269.982 8  -3990615.38845  24195640.098    24195639.4384   24195652.9614
 -20606139.920 9 -14881781.53148  21587054.694    21587054.0934   21587062.9814
  -5888223.491 9  -4577050.33245  24186676.241    24186675.6734   24186687.2094
 00  4 17  1 55  0.0000000  0 11  3 26 23 17  9 29  6 22 15 21 31    0.000000027
 -16842073.902 9 -12821995.56748  21813808.293    21813807.8854   21813816.9164
  -2570398.874 9  -1776110.96545  24508764.194    24508763.8754   24508774.1544
 -20071848.694 9 -15615004.15049  21152027.135    21152026.4974   21152034.5684
 -21257034.890 9 -16085391.36148  21495952.098    21495951.3734   21495960.3284
  -7555586.583 9  -5879464.03746  23873864.052    23873863.6784   23873873.9314
 -14837501.487 9 -11545960.37048  21630573.718    21630573.5164   21630582.8414
  -2622651.211 8  -2033016.88445  24768129.231    24768129.0414   24768145.1994
   4051037.970 8   3165833.61745  25613778.031    25613777.0704   25613799.1144
  -5228949.560 9  -4062833.03945  24178003.664    24178002.9974   24178016.3304
 -20638757.295 9 -14907197.61748  21580847.823    21580847.2204   21580856.0604
  -5974299.996 9  -4644122.82245  24170296.400    24170295.9024   24170307.3034
 00  4 17  1 55 30.0000000  0 11  3 26 23 17  9 29  6 22 15 21 31    0.000000013
 -16879869.212 9 -12851446.40948  21806616.011    21806615.6144   21806624.6684
  -2463090.447 8  -1692494.03545  24529184.132    24529183.9494   24529194.5134
 -20040220.286 9 -15590358.63049  21158045.838    21158045.1904   21158053.2794
 -21209301.431 9 -16048196.46648  21505035.469    21505034.7344   21505043.7114
  -7599832.355 9  -5913941.21346  23865444.432    23865444.0764   23865454.0604
 -14918908.214 9 -11609394.02948  21615082.388    21615082.2204   21615091.5284
  -2508486.839 8  -1944058.11945  24789854.130    24789853.9404   24789870.6214
   4117130.03618   3217333.62745  25626355.382    25626353.7565   25626376.0754
  -5321665.527 8  -4135079.05045  24160360.237    24160359.6224   24160372.8594
 -20671157.306 9 -14932444.32948  21574682.288    21574681.6694   21574690.5194
  -6060038.633 9  -4710932.02645  24153980.803    24153980.2874   24153991.6334
 00  4 17  1 56  0.0000000  0 11  3 26 23 17  9 29  6 22 15 21 31   -0.000000002
 -16917115.419 9 -12880469.37848  21799528.222    21799527.8214   21799536.8774
  -2355635.334 8  -1608762.68145  24549632.276    24549632.1434   24549642.2534
 -20008412.262 9 -15565573.15049  21164098.669    21164098.0204   21164106.0984
 -21161240.240 9 -16010746.18848  21514181.213    21514180.4834   21514189.4614
  -7643686.457 9  -5948113.15146  23857099.220    23857098.8844   23857108.8784
 -14999932.044 9 -11672529.33948  21599663.945    21599663.7644   21599673.0274
  -2394349.359 8  -1855120.24945  24811574.172    24811573.9144   24811590.3114
   4183190.45118   3268808.72145  25638927.154    25638924.4915   25638947.7524
  -5414415.355 8  -4207351.44645  24142710.371    24142709.5804   24142722.9534
 -20703360.463 9 -14957537.64248  21568554.200    21568553.6014   21568562.4274
  -6145437.316 9  -4777476.33845  24137729.925    24137729.3084   24137740.6554
 00  4 17  1 56 30.0000000  0 11  3 26 23 17  9 29  6 22 15 21 31   -0.000000012
 -16953814.332 9 -12909065.88448  21792544.617    21792544.2164   21792553.2604
  -2248024.096 9  -1524909.78345  24570109.910    24570109.9864   24570120.2434
 -19976417.473 9 -15540642.13749  21170187.074    21170186.4354   21170194.5294
 -21112829.334 9 -15973023.40548  21523393.507    21523392.7854   21523401.7474
  -7687143.511 9  -5981975.70946  23848829.475    23848829.1594   23848839.1684
 -15080569.567 9 -11735363.63448  21584319.039    21584318.8574   21584328.0924
  -2280249.561 8  -1766211.80745  24833286.922    24833286.6234   24833303.4064
   4249229.23018   3320267.14445  25651494.036    25651491.9105   25651514.6434
  -5507188.657 9  -4279642.14245  24125056.033    24125055.2024   24125068.5784
 -20735373.490 9 -14982482.80848  21562462.276    21562461.6494   21562470.4774
  -6230495.908 9  -4843755.63845  24121543.813    24121543.1734   24121554.5724
 00  4 17  1 57  0.0000000  0 11  3 26 23 17  9 29  6 22 15 21 31   -0.000000010
 -16989983.814 9 -12937249.84848  21785661.804    21785661.3904   21785670.4194
  -2140239.929 9  -1440922.02345  24590620.486    24590620.5384   24590630.5554
 -19944265.650 9 -15515588.75949  21176305.324    21176304.6904   21176312.7964
 -21064068.065 9 -15935027.61648  21532672.490    21532671.7714   21532680.7424
  -7730197.778 9  -6015524.42446  23840636.402    23840636.1214   23840646.0714
 -15160817.620 9 -11797894.44648  21569048.252    21569048.0694   21569057.2404
  -2166181.794 8  -1677328.31945  24854993.625    24854993.2664   24855009.9024
   4315259.47418   3371719.09545  25664058.955    25664057.5325   25664079.9184
  -5599977.354 9  -4351944.82145  24107398.830    24107397.9864   24107411.2644
 -20767190.674 9 -15007275.37048  21556407.586    21556406.9704   21556415.7824
  -6315215.105 9  -4909770.48646  24105422.243    24105421.5344   24105432.9614
 00  4 17  1 57 30.0000000  0 11  3 26 23 17  9 29  6 22 15 21 31    0.000000034
 -17025636.352 9 -12965031.00648  21778877.289    21778876.8674   21778885.8634
  -2032277.915 8  -1356795.70045  24611165.042    24611165.1254   24611175.1674
 -19911975.376 9 -15490427.49848  21182449.957    21182449.3454   21182457.4494
 -21014978.646 9 -15896776.11648  21542013.938    21542013.1954   21542022.1494
  -7772850.851 9  -6048760.50846  23832519.656    23832519.3704   23832529.4414
 -15240692.917 9 -11860134.80448  21553848.443    21553848.2514   21553857.3554
  -2052152.700 8  -1588474.95845  24876693.123    24876692.7534   24876709.4144
   4381268.748 7   3423154.64645  25676620.304    25676618.7064   25676641.3354
  -5692791.523 8  -4424267.35745  24089736.760    24089735.9234   24089749.0584
 -20798844.888 9 -15031940.94248  21550383.961    21550383.3604   21550392.1154
  -6399589.715 9  -4975516.82146  24089366.240    24089365.5894   24089376.8654
 00  4 17  1 58  0.0000000  0 11  3 26 23 17  9 29  6 22 15 21 31    0.000000041
 -17060807.599 9 -12992437.12848  21772184.365    21772183.9514   21772192.9144
  -1924174.188 9  -1272558.95045  24631736.480    24631736.5234   24631746.5524
 -19879577.889 9 -15465182.69448  21188614.963    21188614.3474   21188622.4354
 -20965597.897 9 -15858297.61248  21551410.787    21551410.0394   21551419.0024
  -7815151.393 9  -6081721.89346  23824470.050    23824469.7534   23824479.9354
 -15320243.235 9 -11922121.93548  21538710.438    21538710.2424   21538719.2744
  -1938195.059 8  -1499677.27245  24898378.875    24898378.5594   24898395.2194
   4447212.087 8   3474538.85745  25689168.978    25689167.6604   25689189.9404
  -5785676.833 8  -4496645.33645  24072061.011    24072060.1814   24072073.4754
 -20830385.054 9 -15056517.63948  21544382.049    21544381.4454   21544390.1744
  -6483659.021 9  -5041025.25346  24073368.252    24073367.5944   24073378.8734
 00  4 17  1 58 30.0000000  0 11  3 26 23 17  9 29  6 22 15 21 31    0.000000044
 -17095440.223 9 -13019423.54848  21765593.968    21765593.5434   21765602.4734
  -1815901.937 8  -1188190.93545  24652339.874    24652339.8414   24652350.1864
 -19847041.396 9 -15439829.57148  21194806.457    21194805.8414   21194813.9344
 -20915896.924 9 -15819569.58248  21560868.569    21560867.8424   21560876.8124
  -7857071.542 9  -6114386.86946  23816492.888    23816492.6654   23816502.6604
 -15399422.144 9 -11983819.65848  21523643.089    21523642.8924   21523651.9064
  -1824244.586 8  -1410885.17945  24920063.398    24920063.0394   24920079.8844
   4513130.045 8   3525903.25845  25701713.015    25701711.6244   25701733.8434
  -5878594.424 9  -4569048.47045  24054379.201    24054378.1914   24054391.6024
 -20861748.558 9 -15080956.68048  21538413.759    21538413.1574   21538421.8534
  -6567395.185 9  -5106274.10246  24057433.676    24057433.0664   24057444.3904
 00  4 17  1 59  0.0000000  0 11  3 26 23 17  9 29  6 22 15 21 31    0.000000042
 -17129526.433 9 -13045984.19348  21759107.511    21759107.0844   21759116.0154
  -1707469.874 8  -1103698.28845  24672973.886    24672973.9554   24672983.9044
 -19814357.646 9 -15414361.70248  21201025.941    21201025.3164   21201033.3864
 -20865893.962 9 -15780606.23048  21570383.803    21570383.0754   21570392.0564
  -7898606.073 9  -6146751.37146  23808589.024    23808588.7174   23808598.6974
 -15478219.823 9 -12045220.31748  21508648.328    21508648.1134   21508657.1174
  -1710280.973 8  -1322082.87645  24941750.333    24941749.8844   24941766.8614
   4579019.696 8   3577245.59645  25714251.293    25714249.9454   25714272.3754
  -5971546.786 9  -4641478.70945  24036690.845    24036689.9364   24036703.2104
 -20892922.304 9 -15105247.85048  21532481.538    21532480.9344   21532489.6344
  -6650791.507 9  -5171258.13146  24041563.722    24041563.1224   24041574.5754
 00  4 17  1 59 30.0000000  0 11  3 26 23 17  9 29  6 22 15 21 31    0.000000024
 -17163043.006 9 -13072100.96648  21752729.477    21752729.0794   21752737.9874
  -1598885.930 8  -1019087.41445  24693636.499    24693636.5024   24693646.9034
 -19781491.586 9 -15388751.77248  21207280.127    21207279.4964   21207287.5634
 -20815588.058 9 -15741406.82648  21579956.732    21579955.9974   21579964.9544
  -7939737.982 9  -6178802.15146  23800761.793    23800761.5554   23800771.5294
 -15556640.407 9 -12106327.14048  21493725.265    21493725.0544   21493734.0224
  -1596305.775 8  -1233271.57145  24963439.492    24963438.9304   24963456.3004
   4644883.260 8   3628567.63745  25726785.072    25726783.5674   25726806.2104
  -6064535.094 9  -4713936.95345  24018995.578    24018994.8264   24019007.9094
 -20923892.964 9 -15129380.77348  21526587.951    21526587.3544   21526596.0614
  -6733847.808 9  -5235977.20846  24025758.479    24025757.9144   24025769.2714
 00  4 17  2  0  0.0000000  0 11  3 26 23 17  9 29  6 22 15 21 31   -0.000000004
 -17195975.594 9 -13097762.68748  21746462.627    21746462.2374   21746471.1154
  -1490139.906 8   -934350.10845  24714330.061    24714330.1854   24714340.2884
 -19748428.634 9 -15362988.42348  21213571.767    21213571.1204   21213579.2214
 -20764970.554 9 -15701964.60548  21589588.928    21589588.1894   21589597.1334
  -7980455.282 9  -6210529.84846  23793013.695    23793013.3404   23793023.2804
 -15634653.801 9 -12167116.67548  21478879.750    21478879.5314   21478888.4434
  -1482307.145 8  -1144442.02945  24985133.043    24985132.5434   24985150.1054
   4710729.543 8   3679876.19345  25739315.470    25739313.6544   25739336.7184
  -6157546.026 9  -4786412.83845  24001296.057    24001295.3094   24001308.2504
 -20954629.760 9 -15153331.46048  21520738.876    21520738.2734   21520746.9984
  -6816546.965 9  -5300418.01046  24010021.270    24010020.6694   24010032.0774
 00  4 17  2  0 30.0000000  0 11  3 26 23 17  9 29  6 22 15 21 31   -0.000000027
 -17228317.073 9 -13122963.80948  21740308.248    21740307.8484   21740316.7104
  -1381225.644 8   -849481.83145  24735055.754    24735055.8774   24735066.1554
 -19715176.388 9 -15337077.56448  21219899.454    21219898.8104   21219906.9004
 -20714034.686 9 -15662274.31148  21599281.701    21599280.9494   21599289.9314
  -8020734.632 9  -6241916.27446  23785348.673    23785348.3264   23785358.3674
 -15712247.475 9 -12227579.15748  21464114.067    21464113.8634   21464122.7324
  -1368279.191 8  -1055589.58645  25006832.249    25006831.6104   25006849.5314
   4776566.073 8   3731177.15245  25751843.789    25751842.4904   25751864.8284
  -6250567.199 9  -4858896.69645  23983594.579    23983593.8734   23983606.8454
 -20985120.857 9 -15177090.69748  21514936.605    21514936.0004   21514944.7034
  -6898871.257 9  -5364566.70246  23994355.411    23994354.7944   23994366.1804
 00  4 17  2  1  0.0000000  0 11  3 26 23 17  9 29  6 22 15 21 31   -0.000000036
 -17260087.135 9 -13147719.67948  21734262.665    21734262.2434   21734271.0584
  -1272143.159 8   -764482.41245  24755813.386    24755813.6164   24755823.3244
 -19681742.080 9 -15311024.84848  21226261.803    21226261.1554   21226269.2344
 -20662759.938 9 -15622319.95748  21609038.959    21609038.2344   21609047.2154
  -8060554.252 9  -6272944.48646  23777771.296    23777770.9224   23777780.9684
 -15789436.505 9 -12287726.33248  21449425.355    21449425.1524   21449434.0124
  -1254241.657 8   -966729.75745  25028533.233    25028532.8774   25028550.7944
   4842392.946 8   3782470.55845  25764370.402    25764368.9894   25764391.7094
  -6343599.592 9  -4931389.28845  23965891.038    23965890.3294   23965903.3224
 -21015377.389 9 -15200667.15548  21509178.937    21509178.3264   21509186.9994
  -6980809.561 9  -5428414.63146  23978763.009    23978762.3894   23978773.6514
 00  4 17  2  1 30.0000000  0 11  3 26 23 17  9 29  6 22 15 21 31   -0.000000032
 -17291289.047 9 -13172032.83148  21728325.133    21728324.7144   21728333.5244
  -1162902.013 8   -679359.29445  24776601.434    24776601.4264   24776611.2454
 -19648144.986 9 -15284845.28148  21232655.090    21232654.4594   21232662.5344
 -20611144.696 9 -15582100.27948  21618861.056    21618860.3144   21618869.2844
  -8099921.927 9  -6303620.51346  23770279.720    23770279.3084   23770289.4374
 -15866241.401 9 -12347574.18548  21434809.730    21434809.5204   21434818.3844
  -1140227.636 8   -877888.22545  25050229.946    25050229.4454   25050247.3524
   4908188.435 8   3833739.50745  25776891.046    25776889.7404   25776912.6274
  -6436645.870 9  -5003892.71445  23948184.841    23948184.1574   23948196.9614
 -21045417.128 9 -15224074.67648  21503462.518    21503461.9034   21503470.5604
  -7062354.428 9  -5491955.99146  23963245.404    23963244.9214   23963256.0564
 00  4 17  2  2  0.0000000  0 11  3 26 23 17  9 29  6 22 15 21 31   -0.000000011
 -17321939.864 9 -13195916.55148  21722492.463    21722492.0514   21722500.8514
  -1053520.515 8   -594127.02145  24797415.722    24797415.7664   24797426.2974
 -19614421.375 9 -15258567.13148  21239072.468    21239071.8274   21239079.9024
 -20559189.148 9 -15541615.43448  21628747.887    21628747.1304   21628756.0814
  -8138858.980 9  -6333960.99846  23762870.139    23762869.7484   23762879.8884
 -15942670.125 9 -12407128.92148  21420265.678    21420265.4794   21420274.3384
  -1026249.941 8   -789075.06545  25071919.552    25071918.9404   25071937.2084
   4973925.970 8   3884963.31445  25789400.550    25789399.4004   25789421.8484
  -6529711.021 9  -5076410.83245  23930475.035    23930474.3374   23930487.0544
 -21075260.255 9 -15247329.00748  21497783.559    21497782.9354   21497791.5614
  -7143497.138 9  -5555183.97646  23947804.362    23947803.8314   23947815.0054
 00  4 17  2  2 30.0000000  0 11  3 26 23 17  9 29  6 22 15 21 31    0.000000011
 -17352049.155 9 -13219378.30948  21716762.807    21716762.4084   21716771.2014
   -944030.363 8   -508809.86645  24818250.999    24818251.2334   24818261.3704
 -19580582.089 9 -15232198.84848  21245511.901    21245511.2594   21245519.3144
 -20506893.016 9 -15500865.19348  21638699.516    21638698.7814   21638707.6764
  -8177374.893 9  -6363973.32646  23755540.847    23755540.4824   23755550.4484
 -16018754.127 9 -12466415.04248  21405787.256    21405787.0624   21405795.8944
   -912327.373 8   -700304.87245  25093598.705    25093598.5224   25093616.2294
   5039577.34618   3936120.00145  25801893.833    25801892.4905   25801914.7144
  -6622804.211 9  -5148950.81045  23912759.876    23912759.1024   23912771.8104
 -21104922.854 9 -15270442.66448  21492138.890    21492138.2624   21492146.8694
  -7224263.866 9  -5618118.99546  23932434.875    23932434.2914   23932445.5334
 00  4 17  2  3  0.0000000  0 11  3 26 23 17  9 29  6 22 15 21 31    0.000000032
 -17381615.840 9 -13242417.25548  21711136.425    21711136.0134   21711144.8164
   -834437.412 8   -423412.71945  24839105.895    24839105.9144   24839116.2794
 -19546617.415 9 -15205732.85648  21251975.162    21251974.5144   21251982.5824
 -20454265.590 9 -15459856.80748  21648714.166    21648713.4584   21648722.3734
  -8215469.219 9  -6393657.14946  23748291.644    23748291.3504   23748301.1894
 -16094500.459 9 -12525438.03548  21391373.114    21391372.9214   21391381.7424
   -798477.522 8   -611591.22945  25115264.115    25115263.8224   25115281.4124
   5105135.827 8   3987204.28745  25814369.430    25814368.4044   25814390.8284
  -6715924.478 9  -5221511.87445  23895039.582    23895038.8094   23895051.4824
 -21134417.858 9 -15293425.72348  21486526.155    21486525.5284   21486534.1154
  -7304649.515 9  -5680757.06546  23917137.945    23917137.3404   23917148.5794
 00  4 17  2  3 30.0000000  0 11  3 26 23 17  9 29  6 22 15 21 31    0.000000046
 -17410615.839 9 -13265014.63148  21705617.868    21705617.4544   21705626.2954
   -724753.225 8   -337944.36145  24859978.083    24859978.3164   24859988.2864
 -19512534.624 9 -15179174.83048  21258460.880    21258460.2544   21258468.2964
 -20401324.045 9 -15418603.65648  21658788.585    21658787.8534   21658796.8074
  -8253157.013 9  -6423024.20546  23741119.849    23741119.5354   23741129.3104
 -16169897.975 9 -12584189.22848  21377025.359    21377025.1644   21377033.9634
   -684698.725 7   -522933.16345  25136915.931    25136915.8144   25136933.7554
   5170591.000 8   4038208.13345  25826825.335    25826824.2914   25826846.8164
  -6809071.696 9  -5294093.93646  23877314.211    23877313.4404   23877325.9714
 -21163752.584 9 -15316283.89848  21480943.897    21480943.2634   21480951.8504
  -7384660.866 9  -5743103.44846  23901912.153    23901911.5514   23901922.7574
 00  4 17  2  4  0.0000000  0 11  3 26 23 17  9 29  6 22 15 21 31    0.000000049
 -17439043.582 9 -13287166.09248  21700208.179    21700207.7894   21700216.6424
   -614975.924 8   -252403.62045  24880867.778    24880867.9444   24880878.2544
 -19478332.012 9 -15152523.43848  21264969.416    21264968.7984   21264976.8324
 -20348064.056 9 -15377102.36248  21668923.657    21668922.9174   21668931.8394
  -8290443.110 9  -6452078.21846  23734024.360    23734024.0674   23734033.9964
 -16244929.988 9 -12642655.61548  21362747.166    21362746.9684   21362755.7064
   -570980.34517   -434322.13345  25158556.373    25158555.8045   25158573.8734
   5235951.98818   4089138.51845  25839263.340    25839262.1505   25839285.2354
  -6902244.633 9  -5366696.04146  23859583.849    23859583.1654   23859595.5114
 -21192926.184 9 -15339016.51848  21475392.264    21475391.6364   21475400.2154
  -7464315.476 9  -5805171.86946  23886754.308    23886753.7454   23886764.8514
 00  4 17  2  4 30.0000000  0 11  3 26 23 17  9 29  6 22 15 21 31    0.000000040
 -17466889.772 9 -13308864.39448  21694909.173    21694908.7774   21694917.6364
   -505090.082 8   -166778.16845  24901778.336    24901778.2904   24901788.0174
 -19443987.306 9 -15125761.32148  21271504.960    21271504.3444   21271512.3784
 -20294490.652 9 -15335356.85248  21679118.337    21679117.5994   21679126.5114
  -8327310.761 9  -6480806.16046  23727008.581    23727008.1944   23727018.2494
 -16319580.215 9 -12700824.50448  21348541.633    21348541.4424   21348550.1314
   -457321.35717   -345757.64245  25180185.436    25180184.4585   25180203.5164
   5301236.35618   4140009.26545  25851686.683    25851685.7205   25851708.6464
  -6995435.105 9  -5439311.80446  23841850.151    23841849.3924   23841861.8574
 -21221936.702 9 -15361622.06048  21469871.695    21469871.0974   21469879.6714
  -7543627.089 9  -5866973.00746  23871661.702    23871661.0644   23871672.2024
 00  4 17  2  5  0.0000000  0 11  3 26 23 17  9 29  6 22 15 21 31    0.000000027
 -17494147.589 9 -13330104.21748  21689722.201    21689721.7984   21689730.6164
   -395079.606 8    -81055.63745  24922712.523    24922712.4954   24922722.5464
 -19409488.690 9 -15098879.28048  21278069.825    21278069.1994   21278077.2404
 -20240603.976 9 -15293367.24148  21689372.636    21689371.8614   21689380.7694
  -8363749.417 9  -6509199.83446  23720074.535    23720074.1944   23720084.1034
 -16393827.880 9 -12758679.71448  21334412.665    21334412.4844   21334421.1424
   -343717.30818   -257235.63945  25201804.184    25201803.2565   25201822.0044
   5366466.745 7   4190837.93845  25864099.625    25864098.4494   25864121.6194
  -7088636.217 9  -5511935.87646  23824114.423    23824113.5804   23824126.0144
 -21250783.774 9 -15384100.25548  21464382.252    21464381.6284   21464390.2084
  -7622578.754 9  -5928493.67246  23856637.645    23856636.9444   23856648.0154
 00  4 17  2  5 30.0000000  0 11  3 26 23 17  9 29  6 22 15 21 31    0.000000008
 -17520822.155 9 -13350889.55948  21684646.165    21684645.7524   21684654.5694
   -284944.959 8      4763.66945  24943670.527    24943670.5064   24943680.5894
 -19374839.578 9 -15071879.96148  21284663.351    21284662.7254   21284670.7424
 -20186392.352 9 -15251124.41848  21699688.743    21699687.9694   21699696.8974
  -8399768.170 9  -6537266.31946  23713220.470    23713220.0494   23713229.8734
 -16467652.138 9 -12816204.99548  21320364.307    21320364.1094   21320372.7254
   -230154.457 8   -168745.79144  25223414.916    25223413.9324   25223432.6564
   5431644.669 9   4241625.73645  25876502.739    25876501.5904   25876524.7714
  -7181846.903 9  -5584567.40746  23806376.889    23806376.0494   23806388.3874
 -21279456.786 9 -15406442.81448  21458925.891    21458925.2854   21458933.8424
  -7701177.935 9  -5989739.67346  23841680.621    23841679.9284   23841690.9914
 00  4 17  2  6  0.0000000  0 11  3 26 23 17  9 29  6 22 15 21 31   -0.000000015
 -17546929.144 9 -13371232.63748  21679678.131    21679677.7224   21679686.5444
   -174668.483 8     90693.56045  24964655.439    24964655.4594   24964665.4354
 -19340016.168 9 -15044744.82748  21291290.039    21291289.4174   21291297.4414
 -20131850.832 9 -15208624.53548  21710067.688    21710066.8944   21710075.8104
  -8435343.887 9  -6564987.56946  23706450.623    23706450.2764   23706459.9684
 -16541046.490 9 -12873395.28348  21306397.758    21306397.5584   21306406.1304
   -116629.014 8    -80285.10245  25245018.558    25245018.0254   25245036.5344
   5496790.84017   4292388.72945  25888899.825    25888898.8295   25888922.4744
  -7275058.576 9  -5657199.69946  23788639.206    23788638.2884   23788650.6414
 -21307946.323 9 -15428642.40648  21453504.509    21453503.9084   21453512.4344
  -7779412.786 9  -6050701.78746  23826792.920    23826792.2054   23826803.2504
 00  4 17  2  6 30.0000000  0 11  3 26 23 17  9 29  6 22 15 21 31   -0.000000031
 -17572475.805 9 -13391139.09148  21674816.720    21674816.3174   21674825.1234
    -64255.005 8    176730.04545  24985666.280    24985666.3434   24985676.6464
 -19305020.309 9 -15017475.32048  21297949.514    21297948.8874   21297956.9124
 -20076976.736 9 -15165865.51148  21720509.809    21720509.0354   21720517.9644
  -8470453.999 9  -6592346.02746  23699769.415    23699769.0114   23699778.6664
 -16614010.278 9 -12930250.06548  21292513.164    21292512.9604   21292521.4674
     -3147.637 8      8141.27745  25266613.988    25266613.2664   25266632.5474
   5561920.17918   4343138.44745  25901293.699    25901292.6495   25901316.6994
  -7368267.931 9  -5729830.19246  23770901.902    23770901.0574   23770913.3794
 -21336237.590 9 -15450687.50648  21448120.809    21448120.1954   21448128.7024
  -7857257.047 9  -6111359.53646  23811979.533    23811978.8514   23811989.8824
 00  4 17  2  7  0.0000000  0 11  3 26 23 17  9 29  6 22 15 21 31   -0.000000036
 -17597472.964 9 -13410617.35948  21670059.875    21670059.4904   21670068.2774
     46271.052 8    262854.43945  25006698.676    25006698.7324   25006708.7964
 -19269879.004 9 -14990092.48048  21304636.647    21304636.0374   21304644.0334
 -20021760.801 9 -15122840.11348  21731017.039    21731016.2414   21731025.1654
  -8505109.089 9  -6619349.91346  23693174.604    23693174.2664   23693183.9264
 -16686554.468 9 -12986777.89248  21278708.404    21278708.2174   21278716.7054
    110283.374 8     96528.43645  25288199.708    25288199.2234   25288218.2824
   5627017.510 8   4393863.50245  25913681.330    25913680.1614   25913703.9624
  -7461481.417 9  -5802463.90746  23753163.851    23753162.9684   23753175.3214
 -21364320.718 9 -15472570.42148  21442776.747    21442776.1154   21442784.6004
  -7934685.660 9  -6171693.40746  23797245.269    23797244.5704   23797255.6174
 00  4 17  2  7 30.0000000  0 11  3 26 23 17  9 29  6 22 15 21 31   -0.000000035
 -17621926.545 9 -13429672.06148  21665406.480    21665406.0924   21665414.8634
    156899.591 8    349058.45345  25027750.221    25027750.1504   25027760.7974
 -19234604.655 9 -14962605.96648  21311349.128    21311348.5004   21311356.5184
 -19966212.205 9 -15079555.50348  21741587.567    21741586.8034   21741595.7454
  -8539317.389 9  -6646005.65646  23686664.957    23686664.6544   23686674.1994
 -16758689.620 9 -13042986.98848  21264981.462    21264981.2604   21264989.7104
    223665.584 8    184877.51345  25309776.191    25309775.6264   25309794.9744
   5692075.69718   4444558.02144  25926061.746    25926059.9225   25926084.5534
  -7554703.554 9  -5875104.34946  23735424.210    23735423.2194   23735435.4974
 -21392196.361 9 -15494291.65848  21437472.143    21437471.5374   21437479.9884
  -8011692.241 9  -6231698.43246  23782591.352    23782590.6654   23782601.6104
 00  4 17  2  8  0.0000000  0 11  3 26 23 17  9 29  6 22 15 21 31   -0.000000029
 -17645841.580 9 -13448307.11848  21660855.598    21660855.2024   21660863.9214
    267629.218 8    435341.33645  25048821.509    25048821.4614   25048831.6524
 -19199195.080 9 -14935014.07748  21318087.341    21318086.7164   21318094.7134
 -19910344.505 9 -15036022.23648  21752218.841    21752218.0534   21752227.0194
  -8573066.530 9  -6672303.60946  23680242.536    23680242.1994   23680251.8764
 -16830431.357 9 -13098889.53048  21251329.368    21251329.1514   21251337.5914
    336985.476 8    273178.00945  25331340.626    25331340.1774   25331359.9304
   5757096.774 7   4495223.52244  25938435.039    25938433.8064   25938458.2054
  -7647935.230 9  -5947752.23446  23717682.711    23717681.7014   23717693.8604
 -21419861.804 9 -15515849.10748  21432207.557    21432206.9524   21432215.3944
  -8088262.929 9  -6291363.80046  23768020.369    23768019.7034   23768030.5474
 00  4 17  2  8 30.0000000  0 11  3 26 23 17  9 29  6 22 15 21 31   -0.000000024
 -17669209.078 9 -13466515.52448  21656408.916    21656408.5304   21656417.2004
    378444.266 8    521690.88245  25069908.646    25069908.7634   25069918.8124
 -19163658.563 9 -14907323.27448  21324849.714    21324849.0744   21324857.0714
 -19854155.566 9 -14992238.66248  21762911.247    21762910.5014   21762919.4694
  -8606371.344 9  -6698255.33346  23673904.776    23673904.4374   23673914.1784
 -16901778.725 9 -13154484.77048  21237752.325    21237752.1104   21237760.5174
    450241.393 8    361428.71445  25352893.094    25352892.3564   25352912.2294
   5822049.469 8   4545835.81354  25950795.204    25950793.8574   25950819.0325
  -7741181.413 9  -6020411.41746  23699938.444    23699937.4654   23699949.5064
 -21447315.255 9 -15537241.36448  21426983.292    21426982.6894   21426991.1204
  -8164396.312 9  -6350688.41346  23753532.525    23753531.9024   23753542.7544
 00  4 17  2  9  0.0000000  0 11  3 26 23 17  9 29  6 22 15 21 31   -0.000000027
 -17692016.672 9 -13484287.64248  21652068.781    21652068.3854   21652077.0214
    489353.693 9    608113.87945  25091014.230    25091014.2624   25091024.2944
 -19127977.040 9 -14879519.47848  21331639.658    21331639.0144   21331647.0184
 -19797638.714 9 -14948199.56548  21773666.048    21773665.2954   21773674.2514
  -8639233.649 9  -6723862.23646  23667651.334    23667651.0264   23667660.6524
 -16972721.584 9 -13209764.80748  21224252.256    21224252.0474   21224260.4354
    563447.787 8    449640.88945  25374436.045    25374435.5034   25374455.1214
   5886914.382 8   4596379.66944  25963138.814    25963137.7554   25963161.9794
  -7834436.774 9  -6093077.74946  23682192.358    23682191.4804   23682203.4444
 -21474563.839 9 -15558473.98448  21421798.015    21421797.4184   21421805.8334
  -8240104.809 9  -6409681.95046  23739125.628    23739124.9764   23739135.9204
 00  4 17  2  9 30.0000000  0 11  3 26 23 17  9 29  6 22 15 21 31   -0.000000037
 -17714243.083 9 -13501606.88648  21647839.242    21647838.8234   21647847.4814
    600380.487 8    694628.32445  25112141.740    25112141.7564   25112151.6064
 -19092128.297 9 -14851585.38648  21338461.382    21338460.7614   21338468.7674
 -19740799.275 9 -14903909.10648  21784482.229    21784481.4774   21784490.4624
  -8671633.582 9  -6749108.86546  23661485.590    23661485.2654   23661494.9574
 -17043240.426 9 -13264714.44748  21210832.786    21210832.6164   21210840.9794
    676618.893 8    537825.45345  25395972.390    25395971.7544   25395991.7034
   5951695.084 7   4646857.86845  25975466.402    25975465.3194   25975489.4244
  -7927690.321 9  -6165742.65046  23664446.673    23664445.7464   23664457.7664
 -21501618.676 9 -15579555.64048  21416649.634    21416649.0524   21416657.4334
  -8315396.927 9  -6468351.04346  23724797.966    23724797.2754   23724808.1784
 00  4 17  2 10  0.0000000  0 11  3 26 23 17  9 29  6 22 15 21 31   -0.000000046
 -17735877.245 9 -13518464.64148  21643722.334    21643721.9134   21643730.5874
    711526.028 9    781235.50345  25133292.052    25133292.1034   25133301.2264
 -19056119.005 9 -14823526.18848  21345313.729    21345313.1074   21345321.1264
 -19683623.786 9 -14859356.78948  21795362.387    21795361.6554   21795370.6014
  -8703556.605 9  -6773983.88146  23655410.692    23655410.4804   23655420.1104
 -17113321.900 9 -13319323.28148  21197496.592    21197496.4194   21197504.7724
    789749.995 9    625978.84645  25417500.987    25417500.5994   25417520.5824
   6016376.98517   4697259.03454  25987775.014    25987774.2285          0.0005
  -8020934.219 9  -6238400.03746  23646702.766    23646701.9404   23646713.8444
 -21528477.357 9 -15600484.43848  21411538.569    21411537.9914   21411546.3464
  -8390288.411 9  -6526707.95446  23710546.526    23710545.8904   23710556.8014
 00  4 17  2 10 30.0000000  0 10  3 26 23 17  9 29  6 15 21 31      -0.000000045
 -17756912.946 9 -13534856.06248  21639719.291    21639718.9044   21639727.5824
    822778.77617    867926.01945  25154462.683    25154462.7315   25154472.5034
 -19019969.775 9 -14795357.94548  21352192.662    21352192.0454   21352200.0884
 -19626096.366 9 -14814530.24048  21806309.523    21806308.7874   21806317.7274
  -8735011.102 9  -6798493.78746  23649425.166    23649424.8544   23649434.4074
 -17182959.530 9 -13373586.26648  21184244.924    21184244.7334   21184253.0794
    902844.101 8    714103.47545  25439022.647    25439022.0814   25439042.4504
  -8114165.012 9  -6311047.24046  23628961.392    23628960.5524   23628972.3884
 -21555155.662 9 -15621272.69248  21406461.828    21406461.2454   21406469.5924
  -8464792.057 9  -6584762.66646  23696368.976    23696368.3164   23696379.1704
 00  4 17  2 11  0.0000000  0 10  3 26 23 17  9 29  6 15 21 31      -0.000000029
 -17777358.606 9 -13550787.70948  21635828.608    21635828.1984   21635836.8914
    934130.748 9    954693.64245  25175651.956    25175652.0884   25175661.9974
 -18983705.848 9 -14767100.33048  21359093.460    21359092.8484   21359100.9074
 -19568224.538 9 -14769435.31548  21817322.193    21817321.4334   21817330.4014
  -8765995.092 9  -6822637.06646  23643529.095    23643528.8154   23643538.3024
 -17252167.943 9 -13427514.79548  21171074.941    21171074.7404   21171083.0554
   1015881.90017    802184.13145  25460533.546    25460533.0785   25460553.5534
  -8207384.894 9  -6383685.92346  23611222.066    23611221.2524   23611233.0314
 -21581675.573 9 -15641937.52048  21401415.242    21401414.6494   21401422.9754
  -8538906.320 9  -6642513.96346  23682265.515    23682264.8194   23682275.6384
 00  4 17  2 11 30.0000000  0 10  3 26 23 17  9 29  6 15 21 31       0.000000001
 -17797234.304 9 -13566275.23148  21632046.374    21632045.9464   21632054.6554
   1045563.319 8   1041524.60545  25196857.108    25196857.2794   25196866.2284
 -18947358.805 9 -14738777.95148  21366010.041    21366009.4204   21366017.5114
 -19510027.779 9 -14724087.19748  21828396.682    21828395.9064   21828404.8944
  -8796523.699 9  -6846425.54146  23637719.689    23637719.3984   23637728.8094
 -17320960.839 9 -13481119.54548  21157983.954    21157983.7734   21157992.0584
   1128829.29618    890194.25545  25482027.271    25482026.8195   25482047.6524
  -8300607.004 9  -6456326.33946  23593482.283    23593481.4634   23593493.2754
 -21608049.785 9 -15662488.81048  21396396.339    21396395.7544   21396404.1014
  -8612639.728 9  -6699968.48646  23668234.449    23668233.8224   23668244.4904
 00  4 17  2 12  0.0000000  0 10  3 26 23 17  9 29  6 15 21 31       0.000000037
 -17816558.861 9 -13581333.29348  21628369.019    21628368.6024   21628377.2914
   1157048.91618   1128396.37145  25218071.732    25218071.5535   25218081.6664
 -18910944.470 9 -14710403.13448  21372939.461    21372938.8324   21372946.9334
 -19451507.975 9 -14678487.35648  21839532.604    21839531.8774   21839540.8694
  -8826608.621 9  -6869868.26846  23631994.652    23631994.3614   23632003.7184
 -17389352.195 9 -13534411.40748  21144969.464    21144969.2734   21144977.5054
   1241660.87317    978114.12444  25503498.990    25503499.0335   25503519.1174
  -8393843.527 9  -6528977.99446  23575739.718    23575738.8864   23575750.7964
 -21634278.865 9 -15682927.01848  21391405.084    21391404.4794   21391412.8274
  -8685994.474 9  -6757127.95246  23654275.454    23654274.7864   23654285.3584
 00  4 17  2 12 30.0000000  0 10  3 26 23 17  9 29  6 15 21 31       0.000000074
 -17835347.706 9 -13595973.91348  21624793.624    21624793.2074   21624801.8654
   1268575.861 9   1215300.59145  25239294.820    25239294.7194   25239304.5484
 -18874456.589 9 -14681971.01448  21379882.836    21379882.2364   21379890.3444
 -19392676.479 9 -14632644.63848  21850727.890    21850727.1564   21850736.1394
  -8856251.500 9  -6892966.55346  23626353.696    23626353.4764   23626362.7624
 -17457358.813 9 -13587403.47548  21132028.156    21132027.9724   21132036.1834
   1354366.53018   1065935.83245  25524946.950    25524947.4365   25524967.3784
  -8487103.307 9  -6601647.77246  23557992.758    23557991.9924   23558003.8284
 -21660368.913 9 -15703256.89148  21386440.251    21386439.6564   21386448.0054
  -8758945.844 9  -6813973.11446  23640393.198    23640392.5774   23640403.1354
 00  4 17  2 13  0.0000000  0  9  3 26 23 17  9 29 15 21 31          0.000000097
 -17853595.415 9 -13610192.87848  21621321.155    21621320.7414   21621329.3844
   1380151.552 8   1302242.98845  25260526.963    25260526.8824   25260536.2854
 -18837880.499 9 -14653470.15848  21386843.051    21386842.4174   21386850.5524
 -19333546.666 9 -14586569.45448  21861979.956    21861979.2174   21861988.1784
  -8885454.406 9  -6915721.99846  23620796.518    23620796.3634   23620805.5934
 -17524982.064 9 -13640096.81048  21119159.829    21119159.6404   21119167.8254
  -8580393.511 9  -6674341.27446  23540240.067    23540239.3024   23540251.1694
 -21686310.606 9 -15723471.15748  21381503.674    21381503.0944   21381511.4424
  -8831486.750 9  -6870498.41946  23626589.045    23626588.4444   23626598.9094
 00  4 17  2 13 30.0000000  0  9  3 26 23 17  9 29 15 21 31          0.000000103
 -17871284.596 9 -13623976.62548  21617954.969    21617954.5614   21617963.1714
   1491779.781 8   1389225.98845  25281768.926    25281768.7664   25281778.7914
 -18801190.206 9 -14624880.31148  21393824.973    21393824.3444   21393832.4574
 -19274122.604 9 -14540264.98947  21873287.978    21873287.2194   21873296.1804
  -8914201.482 9  -6938122.24846  23615326.004    23615325.7614   23615335.1724
 -17592204.291 9 -13692477.66848  21106367.777    21106367.5864   21106375.7654
  -8673703.007 9  -6747049.81946  23522483.770    23522482.9154   23522494.8294
 -21712076.648 9 -15743548.55548  21376600.554    21376599.9684   21376608.2924
  -8903613.047 9  -6926700.66746  23612863.844    23612863.2454   23612873.5794
 00  4 17  2 14  0.0000000  0  9  3 26 23 17  9 29 15 21 31          0.000000097
 -17888403.133 9 -13637315.72248  21614697.387    21614696.9874   21614705.5684
   1603463.563 8   1476252.38645  25303021.632    25303021.4934   25303031.3544
 -18764357.222 9 -14596179.28448  21400834.080    21400833.4614   21400841.5614
 -19214389.883 9 -14493720.01347  21884654.626    21884653.8994   21884662.9094
  -8942472.193 9  -6960151.30946  23609946.154    23609945.9244   23609955.3494
 -17659020.727 9 -13744542.32148  21093652.958    21093652.7584   21093660.9254
  -8767008.981 9  -6819755.61546  23504728.036    23504727.2664   23504739.0784
 -21737650.780 9 -15763476.41648  21371733.970    21371733.3674   21371741.6704
  -8975289.609 9  -6982552.47146  23599224.118    23599223.5084   23599233.8494
 00  4 17  2 14 30.0000000  0  9  3 26 23 17  9 29 15 21 31          0.000000084
 -17904931.782 9 -13650195.16348  21611552.018    21611551.6344   21611560.2054
   1715221.087 8   1563336.39645  25324288.164    25324288.0104   25324298.1474
 -18727371.067 9 -14567358.89848  21407872.288    21407871.6694   21407879.7834
 -19154342.239 9 -14446929.63547  21896081.281    21896080.5494   21896089.5744
  -8970262.579 9  -6981806.08946  23604657.798    23604657.5264   23604666.9774
 -17725420.981 9 -13796282.67648  21081017.282    21081017.0964   21081025.2564
  -8860297.094 9  -6892447.51646  23486975.746    23486975.0064   23486986.7954
 -21763029.017 9 -15783251.62548  21366904.618    21366904.0304   21366912.3164
  -9046510.973 9  -7038049.56446  23585671.042    23585670.5204   23585680.8344
 00  4 17  2 15  0.0000000  0  9  3 26 23 17  9 29 15 21 31          0.000000068
 -17920855.736 9 -13662603.41848  21608521.763    21608521.4024   21608529.9304
   1827053.910 8   1650479.09245  25345569.203    25345569.2184   25345578.9784
 -18690229.045 9 -14538417.05948  21414940.192    21414939.5764   21414947.6894
 -19093973.373 9 -14399888.95447  21907569.103    21907568.3564   21907577.3974
  -8997565.143 9  -7003080.75846  23599462.237    23599461.9734   23599471.3564
 -17791378.323 9 -13847677.91348  21068465.944    21068465.7654   21068473.9034
  -8953556.307 9  -6965116.90146  23469228.998    23469228.2414   23469239.9924
 -21788213.389 9 -15802875.77548  21362112.129    21362111.5384   21362119.8474
  -9117291.774 9  -7093203.36046  23572201.767    23572201.2254   23572211.5664
 00  4 17  2 15 30.0000000  0  9  3 26 23 17  9 29 15 21 31          0.000000065
 -17936186.896 9 -13674549.75748  21605604.386    21605604.0114   21605612.4864
   1938945.127 8   1737667.11945  25366861.412    25366861.3374   25366871.3674
 -18652936.266 9 -14509357.74648  21422036.765    21422036.1434   21422044.2504
 -19033275.678 9 -14352592.04847  21919119.494    21919118.7594   21919127.8024
  -9024357.336 9  -7023957.73046  23594363.833    23594363.4924   23594372.8574
 -17856892.037 9 -13898727.46548  21055999.021    21055998.8254   21056006.9224
  -9046779.091 9  -7037757.90946  23451489.218    23451488.3834   23451500.2274
 -21813220.302 9 -15822361.64748  21357353.434    21357352.8324   21357361.1554
  -9187632.357 9  -7148014.12246  23558816.280    23558815.7514   23558826.1354
 00  4 17  2 16  0.0000000  0  9  3 26 23 17  9 29 15 21 31          0.000000073
 -17950945.686 9 -13686050.09348  21602795.871    21602795.4864   21602803.9794
   2050889.161 8   1824896.21845  25388163.471    25388163.4324   25388173.4744
 -18615513.111 9 -14480196.84248  21429158.191    21429157.5734   21429165.6324
 -18972227.255 9 -14305021.85347  21930736.604    21930735.8784   21930744.9134
  -9050652.960 9  -7044447.76246  23589360.000    23589359.5864   23589368.9974
 -17921971.648 9 -13949438.75448  21043614.719    21043614.5294   21043622.6184
  -9139981.977 9  -7110383.42746  23433753.228    23433752.3914   23433764.0754
 -21838071.927 9 -15841726.50948  21352624.276    21352623.6864   21352632.0324
  -9257544.023 9  -7202490.66046  23545512.414    23545511.8714   23545522.3114
 00  4 17  2 16 30.0000000  0  9  3 26 23 17  9 29 15 21 31          0.000000082
 -17965125.488 9 -13697099.26948  21600097.493    21600097.1244   21600105.6224
   2162872.799 9   1912156.41945  25409473.178    25409472.9784   25409482.6784
 -18577981.517 9 -14450951.44348  21436300.250    21436299.5994   21436307.6174
 -18910830.589 9 -14257180.28947  21942420.064    21942419.3294   21942428.3244
  -9076466.840 9  -7064562.42846  23584447.709    23584447.3074   23584456.6714
 -17986611.614 9 -13999807.46448  21031314.042    21031313.8454   21031321.9364
  -9233187.785 9  -7183011.20546  23416016.666    23416015.8294   23416027.3964
 -21862774.413 9 -15860975.15848  21347923.524    21347922.9404   21347931.2584
  -9327059.342 9  -7256658.34646  23532283.998    23532283.4294   23532293.9884
 00  4 17  2 17  0.0000000  0  9  3 26 23 17  9 29 15 21 31          0.000000087
 -17978730.132 9 -13707700.27148  21597508.590    21597508.2264   21597516.7374
   2274882.413 8   1999436.93845  25430787.927    25430787.9924   25430797.2064
 -18540344.130 9 -14421623.60048  21443462.446    21443461.7904   21443469.7894
 -18849084.426 9 -14209066.38947  21954169.958    21954169.1954   21954178.1814
  -9101801.536 9  -7084303.69046  23579626.640    23579626.2944   23579635.5814
 -18050811.977 9 -14049833.63248  21019097.035    21019096.8524   21019104.9274
  -9326399.895 9  -7255643.92446  23398278.812    23398278.0794   23398289.6114
 -21887321.391 9 -15880102.63648  21343252.368    21343251.7644   21343260.0444
  -9396173.421 9  -7310513.38246  23519131.986    23519131.3844   23519142.0224
 00  4 17  2 17 30.0000000  0  9  3 26 23 17  9 29 15 21 31          0.000000085
 -17991761.880 9 -13717854.86148  21595028.690    21595028.3334   21595036.8304
   2386917.983 8   2086737.45445  25452107.425    25452107.6834   25452117.0574
 -18502607.309 9 -14392218.27948  21450643.516    21450642.8494   21450650.8264
 -18786983.948 9 -14160676.40747  21965987.317    21965986.5344   21965995.5014
  -9126666.297 9  -7103678.78346  23574894.817    23574894.5304   23574903.8754
 -18114583.056 9 -14099525.29348  21006961.713    21006961.5334   21006969.5794
  -9419618.688 9  -7328281.84646  23380539.774    23380538.9804   23380550.5384
 -21911695.375 9 -15899095.30848  21338614.149    21338613.5354   21338621.7814
  -9464870.732 9  -7364043.65846  23506059.269    23506058.6254   23506069.2784
 00  4 17  2 18  0.0000000  0  9  3 26 23 17  9 29 15 21 31          0.000000064
 -18004204.354 9 -13727550.27648  21592660.954    21592660.5924   21592669.1104
   2498998.467 8   2174072.89145  25473435.367    25473435.9074   25473444.9664
 -18464761.193 9 -14362727.78648  21457845.399    21457844.7434   21457852.7024
 -18724536.170 9 -14112015.78847  21977870.684    21977869.9174   21977878.9044
  -9151071.345 9  -7122695.63946  23570250.432    23570250.1554   23570259.8374
 -18177913.261 9 -14148873.41448  20994910.313    20994910.1464   20994918.1584
  -9512839.351 9  -7400921.23246  23362800.413    23362799.5114   23362811.1694
 -21935870.230 9 -15917932.81448  21334013.811    21334013.1904   21334021.4124
  -9533137.392 9  -7417238.35446  23493068.447    23493067.7984   23493078.4834
 00  4 17  2 18 30.0000000  0  9  3 26 23 17  9 29 15 21 31          0.000000035
 -18016042.152 9 -13736774.51648  21590408.301    21590407.9224   21590416.4274
   2611136.575 8   2261453.42745  25494774.437    25494774.9064   25494783.8664
 -18426793.973 9 -14333142.92948  21465070.326    21465069.6624   21465077.6364
 -18661755.630 9 -14063095.89047  21989817.449    21989816.6664   21989825.6434
  -9175002.818 9  -7141343.48746  23565696.314    23565696.0384   23565705.7724
 -18240782.707 9 -14197862.50848  20982946.594    20982946.4294   20982954.4024
  -9606036.049 9  -7473541.94446  23345065.581    23345064.6994   23345076.3464
 -21959828.411 9 -15936601.48348  21329454.714    21329454.1064   21329462.2824
  -9600949.059 9  -7470078.52346  23480164.346    23480163.7614   23480174.3354
 00  4 17  2 19  0.0000000  0  9  3 26 23 17  9 29 15 21 31          0.000000010
 -18027295.257 9 -13745543.15548  21588266.864    21588266.4944   21588274.9994
   2723361.817 8   2348901.86245  25516130.240    25516130.5114   25516139.8044
 -18388682.288 9 -14303445.50548  21472322.712    21472322.0414   21472330.0094
 -18598642.282 9 -14013916.65947  22001827.537    22001826.7824   22001835.7184
  -9198435.191 9  -7159602.43146  23561237.358    23561237.0754   23561246.7364
 -18303193.464 9 -14246494.17948  20971070.198    20971070.0204   20971077.9564
  -9699187.704 9  -7546127.55946  23327339.337    23327338.5394   23327350.0284
 -21983582.302 9 -15955110.96148  21324934.447    21324933.8364   21324942.0234
  -9668280.757 9  -7522544.67346  23467351.601    23467351.0114   23467361.4364
 00  4 17  2 19 30.0000000  0  9  3 26 23 17  9 29 15 21 31         -0.000000009
 -18037978.808 9 -13753867.98148  21586233.876    21586233.4724   21586241.9774
   2835684.596 8   2436426.20845  25537504.474    25537504.8924   25537514.0414
 -18350418.038 9 -14273629.19648  21479604.100    21479603.4504   21479611.4404
 -18535199.635 9 -13964480.82747  22013900.293    22013899.5544   22013908.4604
  -9221355.051 9  -7177462.00746  23556875.802    23556875.4554   23556885.2174
 -18365144.492 9 -14294767.62148  20959281.257    20959281.0724   20959288.9684
  -9792290.560 9  -7618675.13946  23309622.370    23309621.5654   23309633.0144
 -22007144.758 9 -15973471.26548  21320450.628    21320450.0104   21320458.2134
  -9735130.114 9  -7574634.98646  23454630.612    23454629.9684   23454640.3794
 00  4 17  2 20  0.0000000  0  9  3 26 23 17  9 29 15 21 31         -0.000000021
 -18048088.723 9 -13761745.82548  21584310.054    21584309.6334   21584318.1564
   2948103.604 8   2524025.58944  25558896.922    25558897.0354   25558906.4284
 -18311997.509 9 -14243691.11448  21486915.238    21486914.5894   21486922.6054
 -18471427.966 9 -13914788.61147  22026035.608    22026034.9034   22026043.8034
  -9243756.704 9  -7194917.80646  23552612.897    23552612.5654   23552622.1514
 -18426636.321 9 -14342683.25048  20947579.711    20947579.5234   20947587.3444
  -9885342.509 9  -7691183.05246  23291915.082    23291914.3134   23291925.6584
 -22030534.241 9 -15991696.79648  21315999.710    21315999.0914   21316007.2914
  -9801501.117 9  -7626352.55346  23442000.599    23441999.9014   23442010.2744
 00  4 17  2 20 30.0000000  0  9  3 26 23 17  9 29 15 21 31         -0.000000019
 -18057629.043 9 -13769179.82348  21582494.554    21582494.1604   21582502.7084
   3060599.458 8   2611684.99254  25580304.000    25580303.9744          0.0005
 -18273431.052 9 -14213639.31848  21494254.178    21494253.5384   21494261.5664
 -18407328.828 9 -13864841.22947  22038233.314    22038232.5694   22038241.5004
  -9265640.100 9  -7211969.74746  23548448.605    23548448.2984   23548457.8124
 -18487680.992 9 -14390250.43948  20935963.245    20935963.0344   20935970.8144
  -9978348.468 9  -7763655.12246  23274216.613    23274215.7964   23274227.1574
 -22053776.732 9 -16009807.78348  21311576.771    21311576.1634   21311584.3714
  -9867396.092 9  -7677699.20046  23429461.124    23429460.4134   23429470.6404
 00  4 17  2 21  0.0000000  0  9  3 26 23 17  9 29 15 21 31         -0.000000014
 -18066591.495 9 -13776163.53948  21580789.046    21580788.6314   21580797.1914
   3173151.016 8   2699387.60054  25601721.692    25601721.2374   25601730.8325
 -18234728.609 9 -14183481.56448  21501619.011    21501618.3594   21501626.3794
 -18342914.683 9 -13814648.38847  22050490.954    22050490.2134   22050499.1264
  -9287010.807 9  -7228622.20246  23544381.914    23544381.6244   23544391.1324
 -18548293.569 9 -14437480.93648  20924428.990    20924428.7804   20924436.5104
 -10071322.338 9  -7836102.18646  23256524.142    23256523.3444   23256534.7224
 -22076885.154 9 -16027814.30548  21307179.361    21307178.7474   21307186.9694
  -9932830.033 9  -7728686.59446  23417009.328    23417008.6134   23417018.7794
 00  4 17  2 21 30.0000000  0  9  3 26 23 17  9 29 15 21 31         -0.000000010
 -18074946.194 9 -13782673.68048  21579199.172    21579198.7624   21579207.3124
   3285723.580 8   2787106.55545  25623143.516    25623142.9584   25623152.6924
 -18195922.729 9 -14153243.20348  21509003.495    21509002.8474   21509010.8794
 -18278202.125 9 -13764223.01447  22062805.320    22062804.5684   22062813.4814
  -9307888.739 9  -7244890.67646  23540409.001    23540408.7144   23540417.9924
 -18608475.562 9 -14484375.91148  20912976.691    20912976.4984   20912984.2004
 -10164272.830 9  -7908531.02146  23238836.099    23238835.4004   23238846.6694
 -22099839.843 9 -16045701.02548  21302811.195    21302810.5914   21302818.8044
  -9997805.536 9  -7779316.76846  23404644.845    23404644.1024   23404654.2534
 00  4 17  2 22  0.0000000  0  9  3 26 23 17  9 29 15 21 31         -0.000000006
 -18082677.023 9 -13788697.69048  21577728.039    21577727.6304   21577736.1584
   3398300.075 8   2874828.66145  25644566.009    25644565.7454   25644575.2174
 -18157033.694 9 -14122940.04648  21516403.813    21516403.1844   21516411.2024
 -18213200.907 9 -13713572.70647  22075174.592    22075173.8654   22075182.7794
  -9328275.344 9  -7260776.28846  23536529.524    23536529.1904   23536538.4494
 -18668230.210 9 -14530937.89148  20901605.688    20901605.5104   20901613.1744
 -10257202.026 9  -7980943.26446  23221152.118    23221151.4124   23221162.7534
 -22122636.412 9 -16063464.54148  21298473.094    21298472.4944   21298480.7104
 -10062321.784 9  -7829589.08246  23392367.670    23392366.9914   23392377.1064
 00  4 17  2 22 30.0000000  0  9  3 26 23 17  9 29 15 21 31         -0.000000007
 -18089795.872 9 -13794244.83648  21576373.309    21576372.9284   21576381.4404
   3510870.832 8   2962546.26645  25665987.432    25665988.0354   25665996.8634
 -18118069.627 9 -14092578.42548  21523818.453    21523817.8314   21523825.8254
 -18147929.142 9 -13662711.58747  22087595.367    22087594.6374   22087603.5784
  -9348170.734 9  -7276279.14046  23532743.497    23532743.1814   23532752.4124
 -18727557.749 9 -14577167.05948  20890315.965    20890315.7764   20890323.4664
 -10350114.938 9  -8053342.79946  23203471.298    23203470.5924   23203481.9324
 -22145270.105 9 -16081101.14448  21294165.990    21294165.3864   21294173.5934
 -10126385.055 9  -7879508.42446  23380176.732    23380176.0514   23380186.2014
 00  4 17  2 23  0.0000000  0  9  3 26 23 17  9 29 15 21 31         -0.000000018
 -18096322.067 9 -13799330.16848  21575131.413    21575131.0374   21575139.5384
   3623438.56417   3050261.61954  25687408.182    25687410.0905          0.0005
 -18079034.145 9 -14062161.15748  21531246.658    21531246.0294   21531254.0284
 -18082378.911 9 -13611633.48047  22100069.148    22100068.4314   22100077.3984
  -9367573.160 9  -7291397.86846  23529051.395    23529051.0864   23529060.1734
 -18786449.786 9 -14623056.87448  20879109.062    20879108.8844   20879116.5974
 -10443011.270 9  -8125729.42446  23185793.682    23185792.9004   23185804.2264
 -22167727.972 9 -16098600.73448  21289892.336    21289891.7354   21289899.9544
 -10190002.011 9  -7929079.99746  23368070.797    23368070.1224   23368080.2744
 00  4 17  2 23 30.0000000  0  9  3 26 23 17  9 29 15 21 31         -0.000000027
 -18102269.987 9 -13803964.90048  21573999.553    21573999.1614   21574007.6854
   3736027.30617   3137993.29154         0.000           0.0005          0.0005
 -18039905.319 9 -14031671.15048  21538692.627    21538691.9844   21538699.9944
 -18016511.471 9 -13560308.20247  22112603.276    22112602.5544   22112611.5464
  -9386460.334 9  -7306115.11546  23525457.217    23525456.9554   23525465.9584
 -18844884.092 9 -14668590.01548  20867989.316    20867989.1524   20867996.8794
 -10535871.150 9  -8198087.63746  23168122.952    23168122.1134   23168133.4354
 -22189990.801 9 -16115948.35448  21285655.801    21285655.1984   21285663.4394
 -10253146.821 9  -7978283.66446  23356054.700    23356053.9704   23356064.1414
 00  4 17  2 24  0.0000000  0  9  3 26 23 17  9 29 15 21 31         -0.000000019
 -18107656.502 9 -13808162.17548  21572974.480    21572974.0814   21572982.6364
   3848662.48418   3225761.10754  25730266.606    25730268.4385   25730274.7975
 -18000661.698 9 -14001091.69948  21546160.404    21546159.7544   21546167.8194
 -17950287.920 9 -13508705.43147  22125205.183    22125204.4504   22125213.4764
  -9404814.534 9  -7320417.03446  23521964.569    23521964.2834   23521973.2924
 -18902837.742 9 -14713748.62748  20856961.037    20856960.8474   20856968.5334
 -10628679.050 9  -8270405.34846  23150462.112    23150461.2704   23150472.5384
 -22212063.876 9 -16133148.10648  21281455.376    21281454.7864   21281463.0264
 -10315816.485 9  -8027117.08446  23344128.963    23344128.2374   23344138.4334
 00  4 17  2 24 30.0000000  0  9  3 26 23 17  9 29 15 21 31         -0.000000011
 -18112505.266 9 -13811940.42048  21572051.734    21572051.3604   21572059.9334
   3961333.048 8   3313556.48744  25751707.056    25751708.4744   25751715.7044
 -17961307.383 9 -13970425.98748  21553649.241    21553648.5904   21553656.6364
 -17883709.028 9 -13456825.77947  22137874.717    22137873.9894   22137883.0334
  -9422656.518 9  -7334319.82546  23518569.303    23518569.0044   23518578.0324
 -18960310.285 9 -14758532.34548  20846024.304    20846024.1284   20846031.7954
 -10721446.346 9  -8342691.42446  23132809.006    23132808.1314   23132819.3894
 -22233958.894 9 -16150209.11548  21277288.862    21277288.2804   21277296.5124
 -10378029.466 9  -8075594.64646  23332290.105    23332289.4124   23332299.6624
 00  4 17  2 25  0.0000000  0  8  3 23 17  9 29 15 21 31            -0.000000005
 -18116823.784 9 -13815305.49048  21571229.932    21571229.5594   21571238.1604
 -17921846.354 9 -13939677.12248  21561158.403    21561157.7614   21561165.8034
 -17816766.711 9 -13404662.93647  22150613.397    22150612.6804   22150621.7264
  -9439994.228 9  -7347829.68546  23515270.006    23515269.7674   23515278.8104
 -19017305.828 9 -14802944.37948  20835178.344    20835178.1674   20835185.8194
 -10814178.886 9  -8414950.41446  23115162.488    23115161.7064   23115172.8634
 -22255689.778 9 -16167142.23448  21273153.576    21273152.9934   21273161.2024
 -10439792.572 9  -8123721.66946  23320536.839    23320536.2194   23320546.4424
 00  4 17  2 25 30.0000000  0  8  3 23 17  9 29 15 21 31             0.000000001
 -18120597.891 9 -13818246.33948  21570511.753    21570511.3764   21570519.9474
 -17882280.117 9 -13908846.27348  21568687.613    21568686.9694   21568695.0084
 -17749462.286 9 -13352217.93047  22163421.033    22163420.3234   22163429.3134
  -9456822.602 9  -7360942.64646  23512067.663    23512067.4154   23512076.4224
 -19073822.071 9 -14846982.92948  20824423.604    20824423.4324   20824431.0664
 -10906873.672 9  -8487179.98546  23097523.157    23097522.3684   23097533.5224
 -22277257.312 9 -16183948.06748  21269049.399    21269048.8044   21269057.0084
 -10501106.810 9  -8171498.91546  23308869.014    23308868.4164   23308878.6824
 00  4 17  2 26  0.0000000  0  8  3 23 17  9 29 15 21 31             0.000000003
 -18123802.941 9 -13820743.76448  21569901.853    21569901.4684   21569910.0574
 -17842607.194 9 -13877932.29548  21576237.110    21576236.4724   21576244.5014
 -17681814.144 9 -13299505.08747  22176294.077    22176293.3514   22176302.2824
  -9473137.677 9  -7373655.63746  23508962.953    23508962.6154   23508971.7544
 -19129859.674 9 -14890648.51248  20813759.964    20813759.7744   20813767.3694
 -10999529.637 9  -8559379.29846  23079891.210    23079890.4444   23079901.5374
 -22298664.356 9 -16200628.84148  21264975.762    21264975.1744   21264983.3274
 -10561977.000 9  -8218930.15246  23297285.781    23297285.1354   23297295.4604
 00  4 17  2 26 30.0000000  0  8  3 23 17  9 29 15 21 31            -0.000000002
 -18126424.271 9 -13822786.34448  21569403.009    21569402.6134   21569411.2034
 -17802812.409 9 -13846923.36248  21583809.810    21583809.1704   21583817.2054
 -17613832.379 9 -13246532.28447  22189230.595    22189229.8964   22189238.7814
  -9488926.800 9  -7385958.78846  23505958.329    23505958.0144   23505967.2144
 -19185425.258 9 -14933946.29348  20803186.128    20803185.9444   20803193.5114
 -11092138.896 9  -8631542.22746  23062268.117    23062267.3754   23062278.4284
 -22319896.696 9 -16217173.48448  21260935.346    21260934.7614   21260942.8674
 -10622379.376 9  -8265996.86646  23285791.550    23285790.9224   23285801.1974
 00  4 17  2 27  0.0000000  0  8  3 23 17  9 29 15 21 31            -0.000000001
 -18128453.236 9 -13824367.33448  21569016.925    21569016.5404   21569025.0794
 -17762898.183 9 -13815821.36148  21591405.253    21591404.6114   21591412.6354
 -17545524.659 9 -13193305.48947  22202229.140    22202228.4174   22202237.3224
  -9504170.249 9  -7397836.74246  23503057.488    23503057.1624   23503066.3714
 -19240534.898 9 -14976888.78948  20792699.035    20792698.8644   20792706.3964
 -11184695.710 9  -8703664.27946  23044655.116    23044654.3084   23044665.3184
 -22340955.722 9 -16233583.07248  21256927.944    21256927.3754   21256935.4364
 -10682291.341 9  -8312681.43446  23274390.605    23274390.0154   23274400.2564
 00  4 17  2 27 30.0000000  0  8  3 23 17  9 29 15 21 31             0.000000006
 -18129881.470 9 -13825480.23148  21568745.154    21568744.7694   21568753.2814
 -17722873.862 9 -13784633.56848  21599021.608    21599020.9394   21599028.9664
 -17476903.556 9 -13139834.51947  22215287.322    22215286.5574   22215295.4624
  -9518871.501 9  -7409292.20646  23500259.850    23500259.5594   23500268.7104
 -19295201.782 9 -15019486.28348  20782296.196    20782296.0064   20782303.5534
 -11277201.276 9  -8775746.39346  23027051.770    23027050.9944   23027061.9214
 -22361847.683 9 -16249862.48848  21252952.354    21252951.7684   21252959.8054
 -10741706.753 9  -8358979.08446  23263084.175    23263083.6224   23263093.8294
 00  4 17  2 28  0.0000000  0  8  3 23 17  9 29 15 21 31             0.000000020
 -18130711.287 9 -13826126.82748  21568587.255    21568586.8484   21568595.3494
 -17682747.207 9 -13753366.03348  21606657.451    21606656.8134   21606664.8224
 -17407981.955 9 -13086129.38647  22228402.633    22228401.8984   22228410.8164
  -9533042.793 9  -7420334.72646  23497563.006    23497562.7264   23497571.8384
 -19349439.211 9 -15061749.13348  20771975.124    20771974.9414   20771982.4744
 -11369661.000 9  -8847792.79646  23009457.210    23009456.3854   23009467.2814
 -22382586.555 9 -16266022.60648  21249005.857    21249005.2504   21249013.2874
 -10800611.875 9  -8404879.10046  23251874.830    23251874.2424   23251884.4074
 00  4 17  2 28 30.0000000  0  8  3 23 17  9 29 15 21 31             0.000000040
 -18130949.530 9 -13826312.45848  21568541.901    21568541.4994   21568550.0214
 -17642536.413 9 -13722032.93948  21614309.331    21614308.6754   21614316.6574
 -17338759.468 9 -13032189.79347  22241575.284    22241574.5384   22241583.4764
  -9546699.069 9  -7430975.91346  23494964.342    23494964.0654   23494972.9624
 -19403255.346 9 -15103683.70648  20761734.187    20761734.0014   20761741.5154
 -11462080.366 9  -8919807.73246  22991870.328    22991869.4504   22991880.3404
 -22403177.133 9 -16282067.17148  21245087.555    21245086.9624   21245094.9684
 -10859010.069 9  -8450384.10146  23240761.997    23240761.4064   23240771.5694
 00  4 17  2 29  0.0000000  0  8  3 23 17  9 29 15 21 31             0.000000063
 -18130595.988 9 -13826036.95948  21568609.179    21568608.7734   21568617.3304
 -17602261.499 9 -13690649.88348  21621973.371    21621972.7304   21621980.7124
 -17269244.792 9 -12978022.52547  22254803.409    22254802.6614   22254811.6354
  -9559850.152 9  -7441223.46946  23492461.729    23492461.4584   23492470.1934
 -19456646.028 9 -15145286.75548  20751574.239    20751574.0544   20751581.5404
 -11554466.565 9  -8991796.83246  22974289.723    22974288.8614   22974299.6664
 -22423625.933 9 -16298001.26148  21241196.276    21241195.6564   21241203.6614
 -10916923.905 9  -8495511.68546  23229741.291    23229740.7154   23229750.8444
 00  4 17  2 29 30.0000000  0  8  3 23 17  9 29 15 21 31             0.000000077
 -18129653.933 9 -13825302.87348  21568788.375    21568787.9894   21568796.5614
 -17561925.602 9 -13659219.30348  21629649.026    21629648.3964   21629656.3414
 -17199433.935 9 -12923624.46647  22268088.004    22268087.2444   22268096.1584
  -9572515.623 9  -7451092.59446  23490051.378    23490051.1164   23490060.0424
 -19509593.267 9 -15186544.26648  20741498.622    20741498.4494   20741505.9084
 -11646818.789 9  -9063759.44746  22956715.552    22956714.6784   22956725.4554
 -22443921.964 9 -16313816.31748  21237334.015    21237333.4104   21237341.3994
 -10974359.884 9  -8540266.90146  23218811.527    23218810.9624   23218821.0124
 00  4 17  2 30  0.0000000  0  8  3 23 17  9 29 15 21 31             0.000000079
 -18128135.288 9 -13824119.50048  21569077.336    21569076.9594   21569085.5264
 -17521518.734 9 -13627733.42348  21637338.175    21637337.5334   21637345.4964
 -17129314.244 9 -12868985.74247  22281431.293    22281430.5574   22281439.4524
  -9584685.943 9  -7460575.88946  23487735.422    23487735.1394   23487744.1484
 -19562076.385 9 -15227440.12548  20731511.377    20731511.1944   20731518.6514
 -11739129.739 9  -9135689.89746  22939149.236    22939148.3584   22939159.1384
 -22464047.980 9 -16329498.89148  21233504.118    21233503.5214   21233511.5094
 -11031319.412 9  -8584650.85946  23207972.391    23207971.8154   23207981.8434
 00  4 17  2 30 30.0000000  0  8  3 23 17  9 29 15 21 31             0.000000067
 -18126035.807 9 -13822483.53148  21569476.838    21569476.4724   21569485.0354
 -17481019.815 9 -13596175.81648  21645044.862    21645044.2484   21645052.2134
 -17058871.339 9 -12814095.17147  22294836.075    22294835.3374   22294844.2844
  -9596345.592 9  -7469661.29346  23485516.766    23485516.4654   23485525.3784
 -19614073.953 9 -15267957.63548  20721616.486    20721616.3044   20721623.7584
 -11831385.268 9  -9207577.15946  22921593.405    22921592.5624   22921603.3354
 -22483989.128 9 -16345037.40948  21229709.434    21229708.8384   21229716.7944
 -11087802.160 9  -8628663.28246  23197224.016    23197223.4464   23197233.4384
 00  4 17  2 31  0.0000000  0  8  3 23 17  9 29 15 21 31             0.000000048
 -18123357.367 9 -13820396.41848  21569986.526    21569986.1494   21569994.7104
 -17440404.137 9 -13564527.23048  21652773.762    21652773.1174   21652781.0984
 -16988093.942 9 -12758943.94947  22308304.633    22308303.8424   22308312.7564
  -9607478.276 9  -7478336.05646  23483398.217    23483397.9524   23483406.9494
 -19665563.254 9 -15308079.09148  20711818.339    20711818.1574   20711825.6124
 -11923572.123 9  -9279410.91446  22904050.683    22904049.8464   22904060.6104
 -22503741.056 9 -16360428.48048  21225950.747    21225950.1404   21225958.0954
 -11143787.375 9  -8672288.02846  23186570.335    23186569.7824   23186579.7274
 00  4 17  2 31 30.0000000  0  8  3 23 17  9 29 15 21 31             0.000000034
 -18120104.815 9 -13817861.95348  21570605.436    21570605.0814   21570613.6194
 -17399660.823 9 -13532779.18548  21660526.952    21660526.3204   21660534.2704
 -16916966.388 9 -12703519.88147  22321839.701    22321838.9524   22321847.8994
  -9618071.445 9  -7486590.42046  23481382.345    23481382.0284   23481391.1514
 -19716541.080 9 -15347801.99848  20702117.537    20702117.3424   20702124.7854
 -12015681.570 9  -9351184.34246  22886522.714    22886521.8714   22886532.6364
 -22523319.312 9 -16375684.22248  21222225.090    21222224.5004   21222232.4384
 -11199260.208 9  -8715513.50746  23176014.202    23176013.6104   23176023.5474
 00  4 17  2 32  0.0000000  0  8  3 23 17  9 29 15 21 31             0.000000035
 -18116279.894 9 -13814881.48148  21571333.302    21571332.9274   21571341.4594
 -17358792.161 9 -13500933.46548  21668303.998    21668303.3664   21668311.3234
 -16845490.212 9 -12647824.15247  22335441.122    22335440.3964   22335449.3884
  -9628109.811 9  -7494412.46746  23479471.995    23479471.6904   23479480.8394
 -19767027.046 9 -15387141.63649  20692510.309    20692510.1134   20692517.5504
 -12107720.845 9  -9422903.09946  22869008.072    22869007.2764   22869017.9484
 -22542755.326 9 -16390829.12948  21218526.499    21218525.9004   21218533.8474
 -11254233.958 9  -8758350.08646  23165552.985    23165552.3024   23165562.2024
 00  4 17  2 32 30.0000000  0  8  3 23 17  9 29 15 21 31             0.000000047
 -18111883.869 9 -13811456.00148  21572169.865    21572169.4884   21572177.9924
 -17317812.299 9 -13469001.09648  21676102.228    21676101.5774   21676109.5374
 -16773689.987 9 -12591875.92647  22349104.261    22349103.5574   22349112.5384
  -9637605.193 9  -7501811.42946  23477665.075    23477664.8314   23477673.8344
 -19817043.483 9 -15426115.40949  20682992.431    20682992.2324   20682999.6594
 -12199702.750 9  -9494577.14346  22851504.422    22851503.6244   22851514.2464
 -22562074.000 9 -16405882.60148  21214850.217    21214849.6154   21214857.5774
 -11308708.844 9  -8800797.94146  23155186.705    23155186.0194   23155195.9084
 00  4 17  2 33  0.0000000  0  8  3 23 17  9 29 15 21 31             0.000000070
 -18106924.706 9 -13807591.70948  21573113.557    21573113.1744   21573121.6714
 -17276742.131 9 -13436998.36148  21683917.605    21683916.9574   21683924.9194
 -16701569.264 9 -12535677.95647  22362828.401    22362827.6864   22362836.6744
  -9646560.906 9  -7508789.85046  23475960.836    23475960.6104   23475969.6094
 -19866612.902 9 -15464740.86049  20673559.650    20673559.4534   20673566.8724
 -12291636.804 9  -9566213.89746  22834009.854    22834009.0454   22834019.5924
 -22581279.707 9 -16420848.05048  21211195.445    21211194.8264   21211202.7944
 -11362699.275 9  -8842868.29346  23144912.560    23144911.8614   23144921.7354
 00  4 17  2 33 30.0000000  0  8  3 23 17  9 29 15 21 31             0.000000091
 -18101409.960 9 -13803294.49448  21574163.006    21574162.6284   21574171.0784
 -17235597.034 9 -13404937.23948  21691747.215    21691746.6064   21691754.5614
 -16629134.495 9 -12479235.29047  22376612.271    22376611.5844   22376620.5494
  -9654990.530 9  -7515358.35446  23474356.793    23474356.5414   23474365.5714
 -19915757.480 9 -15503035.26149  20664207.629    20664207.4474   20664214.8724
 -12383527.930 9  -9637817.20746  22816523.449    22816522.6104   22816533.1484
 -22600368.110 9 -16435722.09048  21207563.028    21207562.4304   21207570.3804
 -11416222.854 9  -8884574.87246  23134727.280    23134726.6424   23134736.4534
 00  4 17  2 34  0.0000000  0  8  3 23 17  9 29 15 21 31             0.000000092
 -18095336.738 9 -13798562.10448  21575318.683    21575318.3184   21575326.7674
 -17194366.969 9 -13372809.90948  21699593.037    21699592.4154   21699600.3644
 -16556401.150 9 -12422559.96147  22390452.982    22390452.3124   22390461.2394
  -9662894.711 9  -7521517.40446  23472852.634    23472852.3334   23472861.3874
 -19964465.053 9 -15540989.14149  20654938.830    20654938.6444   20654946.0904
 -12475368.351 9  -9709381.01147  22799046.679    22799045.8304   22799056.3814
 -22619305.692 9 -16450478.60348  21203959.263    21203958.6554   21203966.6254
 -11469275.193 9  -8925914.23946  23124631.672    23124631.0414   23124640.8094
 00  4 17  2 34 30.0000000  0  8  3 23 17  9 29 15 21 31             0.000000067
 -18088695.530 9 -13793387.13248  21576582.398    21576582.0334   21576590.5484
 -17153024.294 9 -13340594.83348  21707460.280    21707459.6284   21707467.6344
 -16483364.714 9 -12365648.45347  22404351.412    22404350.7104   22404359.6874
  -9670261.793 9  -7527257.93646  23471450.661    23471450.3834   23471459.4624
 -20012702.187 9 -15578576.44449  20645759.537    20645759.3484   20645766.7744
 -12567132.727 9  -9780885.55747  22781584.363    22781583.5294   22781594.0104
 -22638054.351 9 -16465087.90948  21200391.478    21200390.8754   21200398.8174
 -11521832.732 9  -8966868.06746  23114630.195    23114629.5854   23114639.3794
 00  4 17  2 35  0.0000000  0  8  3 23 17  9 29 15 21 31             0.000000027
 -18081462.043 9 -13787750.63748  21577958.838    21577958.4704   21577967.0134
 -17111554.504 9 -13308280.70448  21715351.688    21715351.0354   21715359.0384
 -16410008.862 9 -12308488.06147  22418310.559    22418309.8574   22418318.8634
  -9677066.491 9  -7532560.23846  23470155.752    23470155.4104   23470164.5694
 -20060439.389 9 -15615774.19449  20636675.409    20636675.2274   20636682.6114
 -12658795.584 9  -9852310.99947  22764141.332    22764140.5334   22764150.9654
 -22656589.349 9 -16479530.72448  21196864.348    21196863.7574   21196871.6874
 -11573881.688 9  -9007425.58446  23104725.516    23104724.9424   23104734.6864
 00  4 17  2 35 30.0000000  0  8  3 23 17  9 29 15 21 31            -0.000000023
 -18073629.957 9 -13781647.70848  21579449.186    21579448.8384   21579457.4064
 -17069942.782 9 -13275855.98348  21723270.128    21723269.4844   21723277.4844
 -16336339.311 9 -12251083.23947  22432329.392    22432328.7124   22432337.7014
  -9683297.966 9  -7537415.89046  23468969.981    23468969.6714   23468978.5954
 -20107643.170 9 -15652556.29049  20627692.788    20627692.6064   20627699.9624
 -12750344.105 9  -9923647.32847  22746720.071    22746719.2844   22746729.7184
 -22674907.221 9 -16493804.35048  21193378.528    21193377.9604   21193385.8894
 -11625395.686 9  -9047566.25347  23094922.678    23094922.0984   23094931.8644
 00  4 17  2 36  0.0000000  0  8  3 23 17  9 29 15 21 31            -0.000000067
 -18065186.057 9 -13775068.03848  21581056.009    21581055.6364   21581064.2184
 -17028185.930 9 -13243318.17148  21731216.176    21731215.5434   21731223.5534
 -16262351.226 9 -12193430.18747  22446408.876    22446408.1954   22446417.1564
  -9688940.688 9  -7541812.76946  23467896.215    23467895.9434   23467904.8004
 -20154301.137 9 -15688913.07949  20618813.967    20618813.7824   20618821.1034
 -12841776.505 9  -9994893.18847  22729320.890    22729320.1294   22729330.5484
 -22693021.011 9 -16507918.95048  21189931.581    21189930.9864   21189938.9344
 -11676357.192 9  -9087276.41547  23085225.004    23085224.3924   23085234.1674
 00  4 17  2 36 30.0000000  0  8  3 23 17  9 29 15 21 31            -0.000000091
 -18056130.726 9 -13768011.92848  21582779.178    21582778.8134   21582787.3884
 -16986308.498 9 -13210686.39848  21739185.154    21739184.5164   21739192.4984
 -16188038.121 9 -12135523.87547  22460550.227    22460549.5054   22460558.4244
  -9694002.683 9  -7545757.12046  23466933.045    23466932.6914   23466941.5724
 -20200437.435 9 -15724863.36749  20610034.474    20610034.2904   20610041.5844
 -12933105.608 9 -10066058.55547  22711941.417    22711940.6714   22711951.0664
 -22710949.646 9 -16521889.27548  21186519.833    21186519.2384   21186527.1874
 -11726761.500 9  -9126552.39047  23075633.277    23075632.7124   23075642.4154
 00  4 17  2 37  0.0000000  0  8  3 23 17  9 29 15 21 31            -0.000000087
 -18046485.045 9 -13760495.80248  21584614.711    21584614.3234   21584622.8804
 -16944345.008 9 -13177987.56848  21747170.509    21747169.8774   21747177.8394
 -16113397.248 9 -12077362.18247  22474753.973    22474753.1824   22474762.1634
  -9698504.140 9  -7549264.69746  23466076.351    23466076.0434   23466084.9084
 -20246078.727 9 -15760427.94249  20601349.197    20601349.0134   20601356.2714
 -13024351.634 9 -10137159.19347  22694577.721    22694577.0214   22694587.3524
 -22728723.931 9 -16535739.32648  21183137.457    21183136.8604   21183144.8114
 -11776618.702 9  -9165402.05547  23066145.688    23066145.1394   23066154.8324
 00  4 17  2 37 30.0000000  0  8  3 23 17  9 29 15 21 31            -0.000000059
 -18036284.557 9 -13752547.36348  21586555.774    21586555.3894   21586563.9434
 -16902315.761 9 -13145237.50348  21755168.441    21755167.8014   21755175.7684
 -16038429.763 9 -12018945.97147  22489019.800    22489019.0164   22489027.9474
  -9702471.705 9  -7552356.25146  23465321.139    23465320.7774   23465329.7974
 -20291252.903 9 -15795628.52949  20592752.799    20592752.6044   20592759.8414
 -13115536.210 9 -10208211.94547  22677225.778    22677225.0944   22677235.3784
 -22746376.301 9 -16549494.37848  21179778.279    21179777.6854   21179785.6154
 -11825940.726 9  -9203834.70547  23056759.924    23056759.3984   23056769.0864
 00  4 17  2 38  0.0000000  0  8  3 23 17  9 29 15 21 31            -0.000000017
 -18025539.955 9 -13744174.93648  21588600.401    21588600.0234   21588608.5644
 -16860240.174 9 -13112451.32648  21763175.147    21763174.5284   21763182.4804
 -15963151.948 9 -11960287.93947  22503344.648    22503343.8894   22503352.8564
  -9705923.651 9  -7555046.02546  23464664.162    23464663.7924   23464672.8814
 -20335993.376 9 -15830491.17049  20584238.913    20584238.7384   20584245.9324
 -13206675.686 9 -10279229.56547  22659882.380    22659881.7014   22659891.9354
 -22763925.205 9 -16563168.80548  21176438.785    21176438.1874   21176446.1264
 -11874751.686 9  -9241869.12247  23047471.427    23047470.8684   23047480.5084
 00  4 17  2 38 30.0000000  0  8  3 23 17  9 29 15 21 31             0.000000029
 -18014257.960 9 -13735383.76448  21590747.301    21590746.9074   21590755.4484
 -16818123.876 9 -13079633.42148  21771189.630    21771188.9994   21771196.9454
 -15887578.364 9 -11901399.44647  22517725.743    22517725.0334   22517733.9894
  -9708858.767 9  -7557333.09146  23464105.656    23464105.2884   23464114.1984
 -20380307.973 9 -15865021.95549  20575806.147    20575805.9664   20575813.1154
 -13297765.556 9 -10350208.53647  22642548.445    22642547.7814   22642557.9704
 -22781362.987 9 -16576756.64848  21173120.462    21173119.8644   21173127.7944
 -11923059.936 9  -9279511.82047  23038278.591    23038278.0434   23038287.6234
 00  4 17  2 39  0.0000000  0  8  3 23 17  9 29 15 21 31             0.000000065
 -18002452.120 9 -13726184.39748  21592993.865    21592993.4814   21593002.0014
 -16775962.026 9 -13046780.02748  21779212.741    21779212.1254   21779220.0794
 -15811719.645 9 -11842288.75947  22532161.224    22532160.4704   22532169.4774
  -9711276.447 9  -7559216.95146  23463645.453    23463645.0674   23463654.0534
 -20424186.880 9 -15899213.24349  20567456.225    20567456.0274   20567463.1464
 -13388804.482 9 -10421147.82047  22625224.245    22625223.5244   22625233.6894
 -22798702.957 9 -16590268.27448  21169820.752    21169820.1494   21169828.0564
 -11970885.319 9  -9316778.26547  23029177.640    23029177.0734   23029186.6344
 00  4 17  2 39 30.0000000  0  8  3 23 17  9 29 15 21 31             0.000000085
 -17990108.984 9 -13716566.36048  21595342.686    21595342.3064   21595350.8194
 -16733744.439 9 -13013883.19348  21787246.511    21787245.8744   21787253.8314
 -15735581.963 9 -11782960.70747  22546649.775    22546648.9804   22546658.0784
  -9713167.202 9  -7560690.21146  23463285.592    23463285.1864   23463294.2364
 -20467615.108 9 -15933053.35649  20559192.032    20559191.8484   20559198.9464
 -13479783.747 9 -10492040.61047  22607911.390    22607910.6194   22607920.7884
 -22815917.732 9 -16603682.34848  21166544.897    21166544.2964   21166552.1674
 -12018230.972 9  -9353670.89647  23020167.997    23020167.3904   23020176.9144
 00  4 17  2 40  0.0000000  0  8  3 23 17  9 29 15 21 31             0.000000083
 -17977205.542 9 -13706511.71748  21597798.134    21597797.7464   21597806.2554
 -16691455.030 9 -12980930.40048  21795293.905    21795293.2634   21795301.2434
 -15659163.195 9 -11723413.62947  22561191.746    22561190.9824   22561200.1004
  -9714510.265 9  -7561736.69746  23463029.938    23463029.5924   23463038.5574
 -20510569.942 9 -15966524.58749  20551017.949    20551017.7574   20551024.8544
 -13570681.466 9 -10562869.86747  22590614.035    22590613.2344   22590623.3724
 -22832969.242 9 -16616969.20448  21163300.120    21163299.5134   21163307.3494
 -12065086.617 9  -9390181.69547  23011251.561    23011250.9434   23011260.4414
 00  4 17  2 40 30.0000000  0  8  3 23 17  9 29 15 21 31             0.000000075
 -17963735.709 9 -13696015.73148  21600361.371    21600360.9814   21600369.4774
 -16649077.747 9 -12947909.12148  21803358.021    21803357.3904   21803365.3654
 -15582428.968 9 -11663620.74447  22575793.786    22575793.0144   22575802.1274
  -9715293.475 9  -7562346.94546  23462880.855    23462880.4864   23462889.5264
 -20553027.502 9 -15999608.33149  20542938.466    20542938.2804   20542945.3844
 -13661479.008 9 -10633621.06747  22573335.719    22573334.9064   22573344.9704
 -22849847.845 9 -16630121.31948  21160088.186    21160087.5764   21160095.4204
 -12111432.862 9  -9426295.56547  23002432.061    23002431.4494   23002440.8904
 00  4 17  2 41  0.0000000  0  8  3 23 17  9 29 15 21 31             0.000000062
 -17949701.674 9 -13685080.10748  21603031.952    21603031.5624   21603040.0234
 -16606610.141 9 -12914817.47148  21811439.310    21811438.6554   21811446.6374
 -15505363.428 9 -11603569.68947  22590458.916    22590458.1414   22590467.2584
  -9715526.451 9  -7562528.45746  23462836.464    23462836.1074   23462845.0924
 -20594968.358 9 -16032289.45249  20534957.339    20534957.1454   20534964.2274
 -13752172.591 9 -10704291.26747  22556077.193    22556076.4044   22556086.4084
 -22866554.000 9 -16643139.06648  21156909.061    21156908.4574   21156916.3174
 -12157264.045 9  -9462008.08047  22993710.558    22993709.9564   22993719.3964
 00  4 17  2 41 30.0000000  0  8  3 23 17  9 29 15 21 31             0.000000048
 -17935093.976 9 -13673697.47348  21605811.706    21605811.2984   21605819.7284
 -16564052.276 9 -12881655.48448  21819537.768    21819537.1594   21819545.1094
 -15427959.900 9 -11543255.26147  22605188.323    22605187.5544   22605196.5944
  -9715213.295 9  -7562284.38846  23462896.103    23462895.7554   23462904.7594
 -20636396.291 9 -16064570.89349  20527073.837    20527073.6434   20527080.6924
 -13842754.742 9 -10774874.64347  22538839.882    22538839.1474   22538849.0784
 -22883073.073 9 -16656011.03548  21153765.530    21153764.9334   21153772.7954
 -12202566.440 9  -9497308.54947  22985089.698    22985089.0344   22985098.5534
 00  4 17  2 42  0.0000000  0  8  3 23 17  9 29 15 21 31             0.000000042
 -17919914.652 9 -13661869.41248  21608700.228    21608699.8094   21608708.2154
 -16521395.842 9 -12848416.69048  21827655.031    21827654.4094   21827662.3574
 -15350217.683 9 -11482676.93147  22619982.201    22619981.4334   22619990.4474
  -9714351.019 9  -7561612.45046  23463060.284    23463059.9524   23463068.7944
 -20677316.661 9 -16096456.83049  20519286.900    20519286.7034   20519293.7204
 -13933221.386 9 -10845368.01847  22521624.558    22521623.7754   22521633.6374
 -22899422.910 9 -16668751.13748  21150654.240    21150653.6574   21150661.5004
 -12247326.693 9  -9532186.58247  22976571.958    22976571.3804   22976580.9074
 00  4 17  2 42 30.0000000  0  8  3 23 17  9 29 15 21 31             0.000000042
 -17904169.929 9 -13649600.78848  21611696.264    21611695.8844   21611704.3164
 -16478641.113 9 -12815101.31248  21835790.975    21835790.3574   21835798.3254
 -15272147.188 9 -11421842.79047  22634838.579    22634837.7884   22634846.7464
  -9712943.614 9  -7560515.72246  23463328.098    23463327.7264   23463336.6154
 -20717736.347 9 -16127952.62649  20511595.238    20511595.0384   20511602.0334
 -14023580.314 9 -10915777.46647  22504429.732    22504428.9884   22504438.7694
 -22915627.989 9 -16681378.44048  21147570.491    21147569.8924   21147577.7254
 -12291553.827 9  -9566649.19747  22968155.756    22968155.1684   22968164.6724
 00  4 17  2 43  0.0000000  0  8  3 23 17  9 29 15 21 31             0.000000036
 -17887855.172 9 -13636887.98048  21614800.866    21614800.4754   21614808.9304
 -16435795.849 9 -12781715.38048  21843944.147    21843943.5234   21843951.5354
 -15193772.133 9 -11360771.33747  22649752.847    22649752.0934   22649761.0694
  -9710986.112 9  -7558990.35846  23463700.579    23463700.2384   23463709.0844
 -20757655.365 9 -16159058.29349  20503998.859    20503998.6774   20504005.6424
 -14113829.416 9 -10986101.33647  22487255.822    22487255.0784   22487264.7554
 -22931672.155 9 -16693880.35448  21144517.362    21144516.7764   21144524.5844
 -12335251.372 9  -9600699.13747  22959840.336    22959839.7544   22959849.2494
 00  4 17  2 43 30.0000000  0  8  3 23 17  9 29 15 21 31             0.000000028
 -17870960.192 9 -13623723.04948  21618015.865    21618015.4894   21618023.9094
 -16392849.234 9 -12748250.47448  21852116.594    21852115.9654   21852123.9674
 -15115101.242 9 -11299469.36047  22664723.445    22664722.7094   22664731.6544
  -9708453.601 9  -7557016.93746  23464182.436    23464182.1164   23464190.8044
 -20797082.690 9 -16189780.81749  20496496.041    20496495.8514   20496502.7804
 -14203963.886 9 -11056335.88647  22470103.732    22470102.9614   22470112.6054
 -22947553.067 9 -16706255.05948  21141495.322    21141494.7084   21141502.5114
 -12378415.594 9  -9634333.50547  22951626.458    22951625.8504   22951635.3274
 00  4 17  2 44  0.0000000  0  8  3 23 17  9 29 15 21 31             0.000000020
 -17853484.973 9 -13610105.98348  21621341.313    21621340.9474   21621349.3524
 -16349795.913 9 -12714702.42148  21860309.335    21860308.7134   21860316.7174
 -15036144.411 9 -11237944.57147  22679748.453    22679747.6874   22679756.6504
  -9705333.368 9  -7554585.54846  23464776.116    23464775.8244   23464784.4604
 -20836013.674 9 -16220116.58649  20489087.687    20489087.5004   20489094.4214
 -14293981.562 9 -11126479.43647  22452973.847    22452973.0404   22452982.7034
 -22963281.464 9 -16718510.92848  21138502.268    21138501.6804   21138509.4654
 -12421044.022 9  -9667550.38647  22943514.508    22943513.9164   22943523.3394
 00  4 17  2 44 30.0000000  0  8  3 23 17  9 29 15 21 31             0.000000006
 -17835437.582 9 -13596043.06748  21624775.629    21624775.2404   21624783.6534
 -16306646.258 9 -12681079.29848  21868520.461    21868519.8494   21868527.8214
 -14956903.140 9 -11176198.14847  22694827.564    22694826.7784   22694835.7464
  -9701632.774 9  -7551701.94146  23465480.310    23465480.0274   23465488.7054
 -20874446.291 9 -16250064.01849  20481774.083    20481773.9034   20481780.8314
 -14383880.724 9 -11196530.63247  22435866.515    22435865.7234   22435875.3964
 -22978845.755 9 -16730638.91748  21135540.461    21135539.8704   21135547.6394
 -12463131.734 9  -9700345.92147  22935505.399    22935504.8414   22935514.2084
 00  4 17  2 45  0.0000000  0  8  3 23 17  9 29 15 21 31            -0.000000030
 -17816868.278 9 -13581573.46948  21628309.245    21628308.8644   21628317.2844
 -16263439.322 9 -12647411.54348  21876742.455    21876741.8274   21876749.8014
 -14877399.874 9 -11114247.57047  22709956.500    22709955.7554   22709964.6864
  -9697391.364 9  -7548396.90246  23466287.491    23466287.1984   23466295.7914
 -20912427.444 9 -16279659.66149  20474546.469    20474546.2874   20474553.1944
 -14473696.034 9 -11266516.50347  22418775.165    22418774.3754   22418784.0374
  -1097341.56419   -851446.43957         0.000           0.0005   21132612.3225
 -12504699.932 9  -9732736.64847  22927595.156    22927594.5574   22927603.9444
 00  4 17  2 45 30.0000000  0  8  3 23 17  9 29 15 21 31            -0.000000049
 -17797725.065 9 -13566656.67048  21631952.045    21631951.6624   21631960.0904
 -16220105.341 9 -12613644.79448  21884988.596    21884987.9784   21884995.9544
 -14797563.602 9 -11052037.49847  22725148.793    22725148.0474   22725156.9864
  -9692566.323 9  -7544637.09646  23467205.590    23467205.2724   23467214.0384
 -20949907.962 9 -16308865.20049  20467414.094    20467413.9344   20467420.8204
 -14563373.424 9 -11336394.89847  22401710.019    22401709.2404   22401718.8884
  -1112586.10719   -863325.27948  21129704.311    21129703.7115   21129711.4344
 -12545691.554 9  -9764678.09547  22919794.642    22919794.0374   22919803.4334
 00  4 17  2 46  0.0000000  0  8  3 23 17  9 29 15 21 31            -0.000000056
 -17778029.179 9 -13551309.21448  21635700.020    21635699.6574   21635708.0954
 -16176659.549 9 -12579790.91548  21893256.046    21893255.4254   21893263.4094
 -14717391.166 9 -10989565.49247  22740405.111    22740404.4264   22740413.3794
  -9687181.692 9  -7540441.24146  23468230.300    23468229.9934   23468238.6764
 -20986896.549 9 -16337687.41549  20460375.390    20460375.2174   20460382.1024
 -14652920.675 9 -11406171.88547  22384669.662    22384668.8764   22384678.5164
  -1127652.136 9   -875065.01548  21126837.376    21126836.7754   21126844.4624
 -12586105.538 9  -9796169.43947  22912104.038    22912103.4514   22912112.7844
 00  4 17  2 46 30.0000000  0  8  3 23 17  9 29 15 21 31            -0.000000051
 -17757794.017 9 -13535541.54748  21639550.684    21639550.2814   21639558.7254
 -16133121.384 9 -12545865.05748  21901541.087    21901540.4694   21901548.4424
 -14636878.977 9 -10926828.74347  22755726.158    22755725.4694   22755734.4514
  -9681251.408 9  -7535820.20646  23469358.725    23469358.4524   23469367.1844
 -21023406.262 9 -16366136.48449  20453427.745    20453427.5574   20453434.4554
 -14742353.397 9 -11475859.62647  22367651.093    22367650.3184   22367659.8864
  -1142554.030 9   -886676.85548  21124001.478    21124001.0484   21124008.7044
 -12625957.600 9  -9827222.92747  22904520.418    22904519.8214   22904529.0854
 00  4 17  2 47  0.0000000  0  8  3 23 17  9 29 15 21 31            -0.000000025
 -17737005.120 9 -13519342.40048  21643506.674    21643506.2624   21643514.6824
 -16089493.443 9 -12511869.25148  21909843.172    21909842.5624   21909850.5304
 -14556030.180 9 -10863829.71047  22771111.208    22771110.5094   22771119.4914
  -9674761.800 9  -7530763.33146  23470593.646    23470593.4074   23470601.9974
 -21059437.110 9 -16394212.41049  20446571.235    20446571.0444   20446577.9594
 -14831673.771 9 -11545459.83247  22350653.954    22350653.1954   22350662.6874
  -1157315.654 9   -898179.39549  21121192.431    21121191.9734   21121199.6374
 -12665258.799 9  -9857847.17547  22897041.661    22897041.0784   22897050.2134
 00  4 17  2 47 30.0000000  0  8  3 23 17  9 29 15 21 31             0.000000016
 -17715660.228 9 -13502710.01148  21647568.464    21647568.0614   21647576.4924
 -16045803.269 9 -12477824.95248  21918157.153    21918156.5564   21918164.4834
 -14474876.872 9 -10800593.40047  22786554.162    22786553.5074   22786562.4794
  -9667723.659 9  -7525279.03646  23471932.857    23471932.5794   23471941.2034
 -21094992.089 9 -16421917.53149  20439805.316    20439805.1184   20439812.0484
 -14920896.394 9 -11614983.86447  22333675.403    22333674.6394   22333684.0954
  -1171964.810 9   -909594.29449  21118404.832    21118404.3034   21118411.9804
 -12704025.405 9  -9888054.86547  22889664.600    22889663.9764   22889673.0804
 00  4 17  2 48  0.0000000  0  8  3 23 17  9 29 15 21 31             0.000000071
 -17693773.031 9 -13485655.04848  21651733.462    21651733.0774   21651741.4844
 -16002090.418 9 -12443762.98348  21926475.440    21926474.8174   21926482.7354
 -14393446.146 9 -10737140.90547  22802049.888    22802049.2504   22802058.2454
  -9660128.021 9  -7519360.33546  23473378.195    23473377.9484   23473386.5834
 -21130080.167 9 -16449258.83349  20433128.201    20433128.0104   20433134.9394
 -15010033.810 9 -11684441.50447  22316713.123    22316712.3324   22316721.7554
  -1186512.781 9   -920930.34749  21115636.464    21115635.9104   21115643.5824
 -12742269.849 9  -9917855.67147  22882386.844    22882386.2244   22882395.3234
 00  4 17  2 48 30.0000000  0  8  3 23 17  9 29 15 21 31             0.000000118
 -17671347.834 9 -13468180.86448  21656000.817    21656000.4534   21656008.8694
 -15958371.296 9 -12409696.12348  21934794.961    21934794.3384   21934802.2184
 -14311764.029 9 -10673492.52947  22817593.529    22817592.8894   22817601.8704
  -9651994.555 9  -7513022.52646  23474925.945    23474925.7374   23474934.2214
 -21164708.981 9 -16476242.27049  20426538.513    20426538.3224   20426545.2324
 -15099094.218 9 -11753839.13447  22299765.441    22299764.6244   22299774.0254
  -1200976.908 9   -932201.06449  21112884.017    21112883.4454   21112891.1054
 -12780027.622 9  -9947277.25447  22875201.750    22875201.1184   22875210.2064
 00  4 17  2 49  0.0000000  0  8  3 23 17  9 29 15 21 31             0.000000142
 -17648380.927 9 -13450284.56748  21660371.276    21660370.8874   21660379.2594
 -15914636.011 9 -12375616.67148  21943117.535    21943116.8864   21943124.7174
 -14229842.427 9 -10609657.54646  22833182.746    22833182.1074   22833191.0434
  -9643325.458 9  -7506267.35246  23476575.539    23476575.2664   23476583.8454
 -21198859.272 9 -16502852.83449  20420039.898    20420039.7014   20420046.5954
 -15188064.477 9 -11823166.51947  22282834.902    22282834.0954   22282843.4404
  -1215335.086 9   -943389.22249  21110151.756    21110151.1664   21110158.8214
 -12817296.683 9  -9976318.02347  22868109.652    22868109.0084   22868118.0434
 00  4 17  2 49 30.0000000  0  8  3 23 17  9 29 15 21 31             0.000000140
 -17624862.319 9 -13431958.37548  21664846.746    21664846.3494   21664854.7274
 -15870851.909 9 -12341499.17948  21951449.373    21951448.7484   21951456.5524
 -14147650.555 9 -10545611.95246  22848823.356    22848822.6894   22848831.5864
  -9634110.948 9  -7499087.19146  23478328.966    23478328.7114   23478337.3054
 -21232511.011 9 -16529074.91649  20413636.112    20413635.9244   20413642.8144
 -15276917.948 9 -11892402.89747  22265926.613    22265925.7904   22265935.1044
  -1229542.394 9   -954459.81949  21107448.183    21107447.5984   21107455.2524
 -12854058.628 9 -10004963.64347  22861114.068    22861113.4704   22861122.4454
 00  4 17  2 50  0.0000000  0  8  3 23 17  9 29 15 21 31             0.000000113
 -17600785.280 9 -13413197.04348  21669428.446    21669428.0474   21669436.4354
 -15826982.738 9 -12307315.39848  21959797.406    21959796.7694   21959804.5924
 -14065158.815 9 -10481332.68546  22864521.077    22864520.3924   22864529.2344
  -9624340.875 9  -7491474.11046  23480188.091    23480187.8654   23480196.5434
 -21265642.527 9 -16554891.62549  20407331.355    20407331.1594   20407338.0454
 -15365628.767 9 -11961528.11847  22249045.392    22249044.6074   22249053.8684
  -1243568.401 9   -965389.14249  21104779.070    21104778.4764   21104786.1674
 -12890304.421 9 -10033207.06447  22854216.668    22854216.0264   22854225.0064
 00  4 17  2 50 30.0000000  0  8  3 23 17  9 29 15 21 31             0.000000063
 -17576137.668 9 -13393991.10948  21674118.717    21674118.3104   21674126.7234
 -15782985.317 9 -12273031.68148  21968169.811    21968169.1734   21968177.0174
 -13982347.446 9 -10416804.37146  22880279.549    22880278.8534   22880287.7504
  -9614007.718 9  -7483422.25046  23482154.430    23482154.1534   23482162.8084
 -21298232.398 9 -16580286.28149  20401129.700    20401129.4924   20401136.3614
 -15454171.670 9 -12030522.48447  22232196.168    22232195.3524   22232204.6344
  -1257385.452 9   -976155.64449  21102149.740    21102149.1464   21102156.8714
 -12926004.258 9 -10061025.06547  22847423.109    22847422.4794   22847431.4704
 00  4 17  2 51  0.0000000  0  8  3 23 17  9 29 15 21 31             0.000000010
 -17550922.402 9 -13374342.84748  21678917.015    21678916.6284   21678925.0244
 -15738842.496 9 -12238634.67048  21976569.924    21976569.2884   21976577.1264
 -13899200.225 9 -10352014.35846  22896101.952    22896101.2394   22896110.2034
  -9603082.057 9  -7474908.72246  23484233.498    23484233.2034   23484241.7864
 -21330272.709 9 -16605252.70549  20395032.587    20395032.3834   20395039.2174
 -15542537.231 9 -12099378.66347  22215380.662    22215379.8634   22215389.1384
  -1270981.985 9   -986750.31149  21099562.365    21099561.7674   21099569.5204
 -12961118.792 9 -10088386.99447  22840740.965    22840740.3254   22840749.3714
 00  4 17  2 51 30.0000000  0  8  3 23 17  9 29 15 21 31            -0.000000029
 -17525152.573 9 -13354262.46448  21683820.838    21683820.4344   21683828.8584
 -15694554.483 9 -12204124.51448  21984997.668    21984997.0134   21985004.8314
 -13815711.565 9 -10286958.27346  22911989.335    22911988.5904   22911997.5924
  -9591550.052 9  -7465922.71346  23486428.093    23486427.7744   23486436.3104
 -21361775.816 9 -16629800.53149  20389037.717    20389037.5234   20389044.3134
 -15630723.975 9 -12168095.50547  22198599.174    22198598.3704   22198607.6244
  -1284378.374 9   -997189.02449  21097013.104    21097012.4924   21097020.2484
 -12995636.572 9 -10115283.91347  22834172.367    22834171.7924   22834180.7824
 00  4 17  2 52  0.0000000  0  8  3 23 17  9 29 15 21 31            -0.000000054
 -17498845.387 9 -13333763.36048  21688826.958    21688826.5684   21688834.9814
 -15650132.852 9 -12169510.24648  21993450.803    21993450.1814   21993457.9994
 -13731905.747 9 -10221655.06546  22927937.072    22927936.3104   22927945.3104
  -9579415.593 9  -7456467.23546  23488737.174    23488736.8564   23488745.3324
 -21392754.777 9 -16653939.93149  20383142.620    20383142.4144   20383149.1634
 -15718740.520 9 -12236679.72047  22181850.106    22181849.3054   22181858.5424
  -1297597.258 9  -1007489.41449  21094497.619    21094497.0144   21094504.7674
 -13029552.576 9 -10141711.92047  22827718.338    22827717.7704   22827726.7454
 00  4 17  2 52 30.0000000  0  8  3 23 17  9 29 15 21 31            -0.000000060
 -17472003.919 9 -13312847.93448  21693934.711    21693934.3124   21693942.7274
 -15605590.786 9 -12134802.13448  22001926.877    22001926.2344   22001934.0894
 -13647798.697 9 -10156117.12246  22943942.055    22943941.3504   22943950.3354
  -9566682.715 9  -7446545.47646  23491160.068    23491159.7094   23491168.2594
 -21423232.410 9 -16677688.68449  20377342.897    20377342.6994   20377349.4084
 -15806599.411 9 -12305141.08847  22165131.056    22165130.2204   22165139.4614
  -1310656.705 9  -1017665.57449  21092012.483    21092011.8844   21092019.6154
 -13062865.215 9 -10167669.77647  22821379.117    22821378.5784   22821387.4894
 00  4 17  2 53  0.0000000  0  8  3 23 17  9 29 15 21 31            -0.000000042
 -17444634.389 9 -13291521.03248  21699142.921    21699142.5164   21699150.9564
 -15560956.770 9 -12100022.36848  22010420.388    22010419.7644   22010427.6144
 -13563395.049 9 -10090348.06846  22960003.577    22960002.8714   22960011.8254
  -9553367.255 9  -7436169.76146  23493693.791    23493693.4254   23493702.0314
 -21453233.856 9 -16701066.38649  20371633.771    20371633.5724   20371640.2774
 -15894320.000 9 -12373494.69447  22148438.311    22148437.4764   22148446.7104
  -1323590.573 9  -1027743.87749  21089551.205    21089550.6084   21089558.3464
 -13095595.235 9 -10193173.64647  22815150.802    22815150.2704   22815159.1554
 00  4 17  2 53 30.0000000  0  8  3 23 17  9 29 15 21 31            -0.000000008
 -17416742.343 9 -13269786.97848  21704450.579    21704450.1924   21704458.6454
 -15516257.499 9 -12065191.75648  22018926.373    22018925.7554   22018933.5764
 -13478709.211 9 -10024359.11646  22976118.763    22976118.0454   22976127.0194
  -9539506.503 9  -7425369.13846  23496331.390    23496331.0684   23496339.6314
 -21482780.639 9 -16724089.80549  20366011.183    20366010.9744   20366017.6664
 -15981923.283 9 -12441756.87747  22131767.904    22131767.0774   22131776.2864
  -1336429.776 9  -1037748.41749  21087107.954    21087107.3694   21087115.0954
 -13127768.916 9 -10218243.99947  22809028.344    22809027.8094   22809036.6904
 00  4 17  2 54  0.0000000  0  8  3 23 17  9 29 15 21 31             0.000000029
 -17388325.440 9 -13247643.93948  21709858.129    21709857.7484   21709866.1944
 -15471513.766 9 -12030326.49048  22027440.826    22027440.1904   22027447.9864
 -13393755.162 9  -9958161.18046  22992284.916    22992284.2134   22992293.2634
  -9525125.450 9  -7414163.09446  23499068.091    23499067.7644   23499076.2414
 -21511889.034 9 -16746771.62649  20360471.993    20360471.7894   20360478.4514
 -16069425.146 9 -12509940.04547  22115116.747    22115115.9144   22115125.1014
  -1349177.050 9  -1047681.32849  21084682.193    21084681.6094   21084689.3314
 -13159404.213 9 -10242894.83047  22803008.309    22803007.7074   22803016.6174
 00  4 17  2 54 30.0000000  0  8  3 23 17  9 29 15 21 31             0.000000071
 -17359382.867 9 -13225091.29148  21715365.710    21715365.3254   21715373.7994
 -15426753.499 9 -11995448.34548  22035958.391    22035957.7844   22035965.5704
 -13308541.341 9  -9891760.82246  23008500.592    23008499.8874   23008508.9934
  -9510224.258 9  -7402551.73846  23501903.601    23501903.2714   23501911.8084
 -21540554.794 9 -16769108.53549  20355017.036    20355016.8454   20355023.4964
 -16156830.433 9 -12578047.95847  22098483.995    22098483.1484   22098492.3294
  -1361846.746 9  -1057553.78449  21082271.205    21082270.6184   21082278.3314
 -13190513.352 9 -10267135.67947  22797088.386    22797087.7854   22797096.6874
 00  4 17  2 55  0.0000000  0  8  3 23 17  9 29 15 21 31             0.000000108
 -17329930.075 9 -13202141.06948  21720970.390    21720970.0154   21720978.4814
 -15381991.471 9 -11960568.82748  22044476.284    22044475.6674   22044483.4264
 -13223071.236 9  -9825160.74846  23024765.088    23024764.3484   23024773.4054
  -9494811.876 9  -7390542.05546  23504836.405    23504836.0914   23504844.7504
 -21568767.428 9 -16791092.36149  20349648.329    20349648.1424   20349654.7674
 -16244138.070 9 -12646079.78147  22081869.830    22081869.0114   22081878.1334
  -1374439.097 9  -1067365.97249  21079874.907    21079874.3274   21079882.0384
 -13221102.788 9 -10290971.55747  22791267.398    22791266.8044   22791275.6664
 00  4 17  2 55 30.0000000  0  8  3 23 17  9 29 15 21 31             0.000000121
 -17299967.959 9 -13178793.97648  21726671.978    21726671.6284   21726680.0764
 -15337210.899 9 -11925674.85948  22052997.738    22052997.1084   22053004.8984
 -13137356.026 9  -9758369.69746  23041076.144    23041075.4464   23041084.5424
  -9478877.429 9  -7378125.57146  23507868.652    23507868.2924   23507876.9664
 -21596505.729 9 -16812706.57449  20344369.886    20344369.6964   20344376.3024
 -16331330.979 9 -12714022.20447  22065277.481    22065276.6674   22065285.7514
  -1386921.458 9  -1077092.45549  21077499.584    21077499.0114   21077506.7094
 -13251171.821 9 -10314401.93347  22785545.430    22785544.8264   22785553.6434
 00  4 17  2 56  0.0000000  0  8  3 23 17  9 29 15 21 31             0.000000114
 -17269488.670 9 -13155043.88748  21732472.040    21732471.6734   21732480.0704
 -15292381.134 9 -11890742.55948  22061528.532    22061527.9124   22061535.6994
 -13051386.273 9  -9691380.29946  23057435.707    23057434.8804   23057444.0514
  -9462384.558 9  -7365273.94846  23511007.121    23511006.7994   23511015.3984
 -21623743.745 9 -16833930.95849  20339186.634    20339186.4444   20339193.0384
 -16418375.047 9 -12781848.65647  22048713.493    22048712.6844   22048721.7364
  -1399261.306 9  -1086707.89149  21075151.351    21075150.7774   21075158.4654
 -13280704.151 9 -10337414.10147  22779925.545    22779924.9564   22779933.7394
 00  4 17  2 56 30.0000000  0  8  3 23 17  9 29 15 21 31             0.000000093
 -17238497.485 9 -13130894.92648  21738369.473    21738369.0904   21738377.4504
 -15247477.336 9 -11855752.56948  22070073.411    22070072.7874   22070080.5914
 -12965135.418 9  -9624171.85646  23073848.742    23073847.8874   23073857.0684
  -9445320.515 9  -7351977.25446  23514254.285    23514253.9414   23514262.5134
 -21650456.407 9 -16854745.97349  20334103.342    20334103.1634   20334109.7304
 -16505246.729 9 -12849540.78047  22032182.266    22032181.4484   22032190.4644
  -1411440.449 9  -1096198.10349  21072833.703    21072833.1214   21072840.7854
 -13309682.681 9 -10359994.72747  22774411.063    22774410.4644   22774419.2804
 00  4 17  2 57  0.0000000  0  8  3 23 17  9 29 15 21 31             0.000000055
 -17206993.448 9 -13106346.33848  21744364.525    21744364.1404   21744372.4814
 -15202463.226 9 -11820676.62948  22078639.281    22078638.6664   22078646.4844
 -12878575.209 9  -9556722.36246  23090320.601    23090319.7544   23090328.9724
  -9427674.909 9  -7338227.39046  23517612.085    23517611.8164   23517620.2374
 -21676631.413 9 -16875142.03549  20329122.344    20329122.1624   20329128.7254
 -16591930.377 9 -12917086.38047  22015686.842    22015686.0084   22015695.0044
  -1423423.396 9  -1105535.43649  21070553.440    21070552.8404   21070560.4794
 -13338098.534 9 -10382136.90647  22769003.667    22769003.0184   22769011.9024
 00  4 17  2 57 30.0000000  0  8  3 23 17  9 29 15 21 31             0.000000016
 -17174969.508 9 -13081392.63348  21750458.490    21750458.0814   21750466.4314
 -15157312.349 9 -11785494.10748  22087231.224    22087230.5884   22087238.4434
 -12791688.589 9  -9489018.52046  23106854.553    23106853.7584   23106862.9664
  -9409417.388 9  -7324000.71546  23521086.455    23521086.1714   23521094.6494
 -21702268.450 9 -16895118.90149  20324243.709    20324243.5494   20324250.1094
 -16678408.863 9 -12984472.12447  21999230.460    21999229.6504   21999238.6434
  -1435198.777 9  -1114711.02349  21068312.644    21068312.0514   21068319.6614
 -13365940.554 9 -10403831.93847  22763705.440    22763704.8064   22763713.7084
 00  4 17  2 58  0.0000000  0  8  3 23 17  9 29 15 21 31            -0.000000006
 -17142423.568 9 -13056032.17248  21756651.777    21756651.3844   21756659.7204
 -15112037.877 9 -11750215.28148  22095846.683    22095846.0544   22095853.8784
 -12704461.839 9  -9421049.65246  23123453.214    23123452.4674   23123461.7294
  -9390547.872 9  -7309297.17146  23524677.079    23524676.7864   23524685.3854
 -21727378.520 9 -16914685.14849  20319465.420    20319465.2474   20319471.7664
 -16764684.760 9 -13051700.00047  21982812.639    21982811.7964   21982820.7624
  -1446786.226 9  -1123740.17649  21066107.603    21066107.0184   21066114.6064
 -13393205.546 9 -10425077.35347  22758517.073    22758516.4374   22758525.3554
 00  4 17  2 58 30.0000000  0  8  3 23 17  9 29 15 21 31            -0.000000013
 -17109352.466 9 -13030262.49948  21762945.041    21762944.6774   21762952.9754
 -15066664.683 9 -11714859.52948  22104480.932    22104480.2874   22104488.0814
 -12616911.739 9  -9352828.82146  23140113.470    23140112.7234   23140121.9904
  -9371084.460 9  -7294130.84546  23528380.760    23528380.4314   23528389.0334
 -21751979.738 9 -16933854.88349  20314783.939    20314783.7684   20314790.2604
 -16850777.558 9 -13118785.20547  21966429.679    21966428.8484   21966437.8004
  -1458202.117 9  -1132635.64649  21063935.212    21063934.6224   21063942.2064
 -13419904.203 9 -10445881.46847  22753436.431    22753435.7744   22753444.7574
 00  4 17  2 59  0.0000000  0  8  3 23 17  9 29 15 21 31            -0.000000008
 -17075747.107 9 -13004076.52048  21769339.982    21769339.5904   21769347.8644
 -15021203.453 9 -11679435.18048  22113131.902    22113131.2384   22113139.0114
 -12529068.451 9  -9284379.53046  23156829.565    23156828.7914   23156838.0724
  -9351028.936 9  -7278503.15546  23532197.130    23532196.8494   23532205.4874
 -21776096.502 9 -16952647.12249  20310194.657    20310194.4854   20310200.9674
 -16936696.418 9 -13185734.87647  21950079.743    21950078.9474   21950087.8834
  -1469458.363 9  -1141406.72049  21061793.208    21061792.5944   21061800.1854
 -13446045.136 9 -10466250.97847  22748461.943    22748461.3184   22748470.2404
 00  4 17  2 59 30.0000000  0  8  3 23 17  9 29 15 21 31             0.000000010
 -17041599.624 9 -12977468.10348  21775838.051    21775837.6714   21775845.8974
 -14975676.736 9 -11643959.79848  22121795.356    22121794.6804   22121802.4204
 -12440959.959 9  -9215723.58046  23173596.073    23173595.3234   23173604.5894
  -9330409.908 9  -7262436.34046  23536120.796    23536120.4934   23536129.1374
 -21799747.826 9 -16971076.67749  20305693.936    20305693.7414   20305700.2304
 -17022450.440 9 -13252556.10647  21933761.196    21933760.4044   21933769.3364
  -1480580.846 9  -1150073.55949  21059676.652    21059676.0404   21059683.6334
 -13471625.330 9 -10486183.54747  22743594.206    22743593.5684   22743602.4614
 00  4 17  3  0  0.0000000  0  8  3 23 17  9 29 15 21 31             0.000000033
 -17006902.865 9 -12950431.67948  21782440.708    21782440.2904   21782448.5014
 -14930115.580 9 -11608457.58348  22130465.296    22130464.6684   22130472.3704
 -12352607.170 9  -9146877.27946  23190409.009    23190408.3044   23190417.5784
  -9309262.550 9  -7245957.86046  23540144.951    23540144.6274   23540153.1824
 -21822938.742 9 -16989147.47549  20301280.808    20301280.6264   20301287.0964
 -17108056.378 9 -13319261.94447  21917470.854    21917470.0614   21917478.9994
  -1491588.349 9  -1158650.80149  21057581.997    21057581.3804   21057588.9694
 -13496646.253 9 -10505680.33647  22738832.843    22738832.2344   22738841.1034
 00  4 17  3  0 30.0000000  0  8  3 23 17  9 29 15 21 31             0.000000051
 -16971677.947 9 -12922983.70548  21789143.784    21789143.3804   21789151.5734
 -14884518.588 9 -11572927.44448  22139142.068    22139141.4714   22139149.1654
 -12264021.555 9  -9077849.54446  23207266.276    23207265.5854   23207274.8174
  -9287601.660 9  -7229079.22046  23544266.892    23544266.6034   23544275.0164
 -21845672.322 9 -17006861.90949  20296954.723    20296954.5314   20296960.9964
 -17193518.683 9 -13385855.85947  21901207.818    21901207.0204   21901215.9624
  -1502477.265 9  -1167135.63749  21055509.861    21055509.2744   21055516.8314
 -13521097.412 9 -10524733.14147  22734179.908    22734179.3154   22734188.1514
 00  4 17  3  1  0.0000000  0  8  3 23 17  9 29 15 21 31             0.000000065
 -16935943.314 9 -12895138.55248  21795943.855    21795943.4524   21795951.6794
 -14838878.614 9 -11537363.81848  22147827.061    22147826.4594   22147834.1374
 -12175186.383 9  -9008627.35746  23224171.053    23224170.3124   23224179.6054
  -9265429.616 9  -7211802.27146  23548486.123    23548485.8424   23548494.1534
 -21867939.773 9 -17024213.12249  20292717.296    20292717.1044   20292723.5754
 -17278831.690 9 -13452333.44547  21884973.214    21884972.4494   21884981.3574
  -1513249.404 9  -1175529.48149  21053459.994    21053459.4034   21053466.9484
 -13544974.219 9 -10543338.39347  22729636.283    22729635.6814   22729644.5294
 00  4 17  3  1 30.0000000  0  8  3 23 17  9 29 15 21 31             0.000000080
 -16899706.285 9 -12866901.92348  21802839.532    21802839.1294   21802847.4054
 -14793206.999 9 -11501775.53748  22156518.067    22156517.4524   22156525.1274
 -12086092.370 9  -8939203.48446  23241125.104    23241124.3644   23241133.6734
  -9242737.827 9  -7194120.32446  23552804.248    23552803.9634   23552812.3834
 -21889730.383 9 -17041192.78049  20288570.639    20288570.4454   20288576.9274
 -17363993.233 9 -13518693.01047  21868767.425    21868766.6684   21868775.5644
  -1523907.560 9  -1183834.50949  21051431.773    21051431.1874   21051438.7184
 -13568274.385 9 -10561494.32647  22725202.465    22725201.8604   22725210.6204
 00  4 17  3  2  0.0000000  0  8  3 23 17  9 29 15 21 31             0.000000091
 -16862989.076 9 -12838291.12748  21809826.584    21809826.1624   21809834.4924
 -14747498.625 9 -11466158.61048  22165216.094    22165215.4714   22165223.1704
 -11996733.896 9  -8869573.52646  23258129.513    23258128.8024   23258138.0384
  -9219494.351 9  -7176008.50446  23557227.280    23557226.9814   23557235.5474
 -21911029.646 9 -17057789.56549  20284517.457    20284517.2714   20284523.7634
 -17448995.447 9 -13584928.41647  21852592.001    21852591.2364   21852600.1054
  -1534448.132 9  -1192047.91249  21049425.958    21049425.3764   21049432.8774
 -13591011.531 9 -10579211.53047  22720875.710    22720875.0864   22720883.8364
 00  4 17  3  2 30.0000000  0  8  3 23 17  9 29 15 21 31             0.000000093
 -16825797.347 9 -12809310.57548  21816903.853    21816903.4324   21816911.8554
 -14701727.773 9 -11430493.00148  22173926.001    22173925.4114   22173933.0884
 -11907098.757 9  -8799727.97846  23275186.606    23275185.8844   23275195.0714
  -9195678.339 9  -7157450.55946  23561759.277    23561759.0444   23561767.6094
 -21931822.334 9 -17073991.61849  20280560.681    20280560.4904   20280567.0024
 -17533819.957 9 -13651025.35647  21836450.397    21836449.6104   21836458.4504
  -1544855.293 9  -1200157.35749  21047445.531    21047444.9374   21047452.4194
 -13613200.787 9 -10596501.80847  22716653.157    22716652.5594   22716661.3364
 00  4 17  3  3  0.0000000  0  8  3 23 17  9 29 15 21 31             0.000000090
 -16788106.560 9 -12779941.14348  21824076.131    21824075.7374   21824084.2114
 -14655892.032 9 -11394776.83048  22182648.265    22182647.6534   22182655.3554
 -11817182.068 9  -8729663.06246  23292297.173    23292296.4694   23292305.6214
  -9171269.664 9  -7138430.78046  23566404.080    23566403.7784   23566412.3574
 -21952097.792 9 -17089790.63549  20276702.349    20276702.1614   20276708.6754
 -17618453.251 9 -13716973.28847  21820345.202    21820344.3904   21820353.2034
  -1555118.136 9  -1208154.34249  21045492.560    21045491.9594   21045499.4264
 -13634848.856 9 -10613370.38547  22712533.601    22712533.0014   22712541.8244
 00  4 17  3  3 30.0000000  0  8  3 23 17  9 29 15 21 31             0.000000079
 -16749909.428 9 -12750177.15048  21831344.824    21831344.4054   21831352.9124
 -14609975.079 9 -11358997.37148  22191385.938    22191385.3344   22191393.0394
 -11726994.541 9  -8659387.09146  23309459.226    23309458.4984   23309467.7164
  -9146261.115 9  -7118943.59446  23571162.977    23571162.7244   23571171.1944
 -21971851.056 9 -17105182.74949  20272943.392    20272943.2134   20272949.7104
 -17702883.762 9 -13782763.21147  21804278.514    21804277.7234   21804286.5294
  -1565222.498 9  -1216027.84449  21043569.743    21043569.1504   21043576.5954
 -13655953.803 9 -10629815.74947  22708517.401    22708516.8024   22708525.6264
 00  4 17  3  4  0.0000000  0  8  3 23 17  9 29 15 21 31             0.000000059
 -16711202.412 9 -12720015.85148  21838710.548    21838710.1554   21838718.6654
 -14563955.216 9 -11323137.72748  22200143.234    22200142.6414   22200150.3414
 -11636518.811 9  -8588886.55346  23326676.221    23326675.4184   23326684.6724
  -9120662.685 9  -7098996.73746  23576034.166    23576033.9124   23576042.3414
 -21991074.608 9 -17120162.09849  20269285.233    20269285.0664   20269291.5444
 -17787100.894 9 -13848386.86047  21788252.473    21788251.6574   21788260.4424
  -1575155.442 9  -1223767.76649  21041679.527    21041678.9294   21041686.3774
 -13676507.915 9 -10645831.89847  22704606.012    22704605.4194   22704614.2444
 00  4 17  3  4 30.0000000  0  8  3 23 17  9 29 15 21 31             0.000000040
 -16671972.875 9 -12689447.39148  21846175.741    21846175.3374   21846183.8324
 -14517819.901 9 -11287188.12448  22208922.471    22208921.8634   22208929.5754
 -11545749.133 9  -8518156.95546  23343949.059    23343948.2904   23343957.6014
  -9094493.822 9  -7078605.38746  23581013.934    23581013.6444   23581022.1484
 -22009789.758 9 -17134745.29049  20265723.869    20265723.6724   20265730.1234
 -17871104.207 9 -13913843.90947  21772267.144    21772266.3244   21772275.0684
  -1584906.400 9  -1231365.88049  21039823.927    21039823.3334   21039830.7724
 -13696489.701 9 -10661402.06847  22700803.560    22700802.9614   22700811.8194
 00  4 17  3  5  0.0000000  0  9  3 25 23 17  9 29 15 21 31          0.000000027
 -16632233.260 9 -12658481.46448  21853737.973    21853737.5624   21853746.0654
  -1256426.32918   -960799.58652         0.000           0.0005          0.0005
 -14471578.196 9 -11251155.61448  22217721.921    22217721.3324   22217729.0664
 -11454693.779 9  -8447204.76346  23361276.302    23361275.6354   23361284.8734
  -9067761.072 9  -7057774.64446  23586101.009    23586100.6834   23586109.2384
 -22028011.495 9 -17148944.00749  20262256.386    20262256.2124   20262262.6104
 -17954901.052 9 -13979140.07448  21756321.089    21756320.2734   21756328.9374
  -1594479.516 9  -1238825.41749  21038002.196    21038001.6054   21038009.0174
 -13715884.116 9 -10676514.55347  22697112.794    22697112.1874   22697121.0994
 00  4 17  3  5 30.0000000  0  9  3 25 23 17  9 29 15 21 31          0.000000019
 -16592002.873 9 -12627133.12348  21861393.582    21861393.1824   21861401.6804
  -1349463.961 8    960799.586 1         0.000           0.000           0.000
 -14425231.097 9 -11215040.98648  22226541.434    22226540.8664   22226548.5674
 -11363347.274 9  -8376025.69946  23378659.064    23378658.3614   23378667.5984
  -9040483.954 9  -7036519.74646  23591291.621    23591291.3294   23591299.8364
 -22045744.172 9 -17162761.63949  20258881.926    20258881.7584   20258888.1424
 -18038494.558 9 -14044277.78548  21740413.676    21740412.8854   21740421.5134
  -1603897.431 9  -1246164.01949  21036210.019    21036209.4254   21036216.8474
 -13734692.227 9 -10691170.17547  22693533.672    22693533.0644   22693541.9734
 00  4 17  3  6  0.0000000  0  9  3 25 23 17  9 29 15 21 31          0.000000021
 -16551292.190 9 -12595410.52948  21869140.548    21869140.1494   21869148.6584
  -1442658.95018   -880295.12152         0.000           0.0005          0.0005
 -14378798.109 9 -11178859.42948  22235377.339    22235376.7594   22235384.4384
 -11271708.394 9  -8304618.80446  23396097.407    23396096.7004   23396105.8814
  -9012668.469 9  -7014845.32946  23596584.735    23596584.4444   23596592.8784
 -22062998.181 9 -17176206.28449  20255598.571    20255598.3814   20255604.7654
 -18121890.716 9 -14109261.72648  21724543.843    21724543.0524   21724551.6764
  -1613173.526 9  -1253392.11749  21034444.784    21034444.1974   21034451.6414
 -13752917.414 9 -10705371.57347  22690065.477    22690064.8454   22690073.7524
 00  4 17  3  6 30.0000000  0  9  3 25 23 17  9 29 15 21 31          0.000000026
 -16510107.854 9 -12563318.85048  21876977.654    21876977.2544   21876985.7494
  -1536011.393 8   -953049.50552         0.000           0.0004          0.0005
 -14332298.145 9 -11142625.69147  22244225.996    22244225.3834   22244233.0934
 -11179803.990 9  -8233005.00346  23413586.233    23413585.5624   23413594.7594
  -8984307.055 9  -6992745.50846  23601981.712    23601981.4184   23601989.8064
 -22079768.784 9 -17189274.24749  20252407.219    20252407.0504   20252413.4014
 -18205096.097 9 -14174097.00048  21708710.281    21708709.5034   21708718.1294
  -1622325.744 9  -1260523.69049  21032703.161    21032702.5734   21032710.0364
 -13770565.886 9 -10719123.58947  22686707.053    22686706.4604   22686715.2444
 00  4 17  3  7  0.0000000  0  9  3 25 23 17  9 29 15 21 31          0.000000033
 -16468448.182 9 -12530856.77948  21884905.210    21884904.7864   21884913.2914
  -1629505.665 8  -1025914.47552         0.000           0.0004          0.0005
 -14285742.312 9 -11106348.41448  22253085.300    22253084.7104   22253092.3924
 -11087635.270 9  -8161185.23846  23431125.388    23431124.7604   23431133.8754
  -8955393.529 9  -6970215.47746  23607483.748    23607483.5194   23607491.7794
 -22096039.915 9 -17201953.01149  20249310.922    20249310.7344   20249317.0814
 -18288105.751 9 -14238779.76548  21692914.009    21692913.2294   21692921.8574
  -1631367.599 9  -1267569.25849  21030982.507    21030981.9144   21030989.3954
 -13787647.493 9 -10732433.89347  22683456.566    22683455.9604   22683464.6494
 00  4 17  3  7 30.0000000  0  9  3 25 23 17  9 29 15 21 31          0.000000038
 -16426310.003 9 -12498021.84448  21892923.819    21892923.4244   21892931.8974
  -1723149.92718   -873365.66652         0.000           0.0005          0.0005
 -14239124.944 9 -11070023.18447  22261956.303    22261955.6894   22261963.3724
 -10995212.332 9  -8089167.39346  23448712.902    23448712.2144   23448721.3014
  -8925922.833 9  -6947251.28546  23613091.862    23613091.5874   23613099.7214
 -22111815.991 9 -17214246.02149  20246308.776    20246308.5924   20246314.9374
 -18370917.924 9 -14303308.64548  21677155.255    21677154.4994   21677163.1244
  -1640297.670 9  -1274527.72949  21029283.152    21029282.5714   21029290.0554
 -13804169.719 9 -10745308.30747  22680312.515    22680311.8974   22680320.5104
 00  4 17  3  8  0.0000000  0  8  3 23 17  9 29 15 21 31             0.000000042
 -16383676.314 9 -12464800.79948  21901036.743    21901036.3384   21901044.7944
 -14192444.192 9 -11033648.56647  22270839.337    22270838.7294   22270846.4184
 -10902562.249 9  -8016972.54746  23466343.619    23466342.8894   23466352.0874
  -8895873.865 9  -6923836.49546  23618810.032    23618809.8494   23618817.8884
 -22127108.769 9 -17226162.43749  20243398.634    20243398.4574   20243404.8004
 -18453532.212 9 -14367683.33648  21661434.210    21661433.4524   21661442.0604
  -1649100.800 9  -1281387.28549  21027607.910    21027607.3304   21027614.8014
 -13820131.888 9 -10757746.32647  22677275.005    22677274.4204   22677282.9784
 00  4 17  3  8 30.0000000  0  9  3 25 23 17  9 29 15 21 31          0.000000047
 -16340536.570 9 -12431185.42148  21909245.958    21909245.5754   21909254.0134
  -1910889.19718  -1019653.47354         0.000           0.0005   25270565.7565
 -14145695.068 9 -10997220.66947  22279735.326    22279734.7214   22279742.4414
 -10809694.789 9  -7944608.31046  23484015.707    23484015.0244   23484024.2314
  -8865243.884 9  -6899968.96646  23624638.722    23624638.4434   23624646.6154
 -22141931.504 9 -17237712.58249  20240577.924    20240577.7504   20240584.0834
 -18535947.870 9 -14431903.25048  21645751.007    21645750.2394   21645758.8114
  -1657778.501 9  -1288149.10249  21025956.570    21025955.9944   21025963.4524
 -13835543.508 9 -10769755.33147  22674342.303    22674341.7304   22674350.2274
 00  4 17  3  9  0.0000000  0  9  3 25 23 17  9 29 15 21 31          0.000000048
 -16296902.302 9 -12397184.71148  21917549.265    21917548.8974   21917557.3604
  -2004975.20918  -1092966.09145  25252643.153    25252639.0025   25252661.1954
 -14098870.853 9 -10960734.25747  22288645.705    22288645.0824   22288652.8294
 -10716606.725 9  -7872072.18146  23501729.905    23501729.1424   23501738.3164
  -8834039.844 9  -6875654.11746  23630576.579    23630576.3024   23630584.5064
 -22156303.524 9 -17248911.51949  20237842.997    20237842.8134   20237849.1394
 -18618160.903 9 -14495965.27648  21630106.322    21630105.5304   21630114.0914
  -1666315.847 9  -1294801.55249  21024331.988    21024331.3984   21024338.8414
 -13850418.204 9 -10781345.96347  22671511.730    22671511.1494   22671519.6334
 00  4 17  3  9 30.0000000  0  9  3 25 23 17  9 29 15 21 31          0.000000037
 -16252789.139 9 -12362810.83248  21925943.683    21925943.3354   21925951.7944
  -2099211.699 8  -1166395.95145  25234709.670    25234705.9574   25234727.8114
 -14051982.367 9 -10924197.77347  22297568.274    22297567.6554   22297575.3964
 -10623300.282 9  -7799365.88046  23519485.488    23519484.7694   23519493.9604
  -8802261.091 9  -6850891.43046  23636623.868    23636623.4774   23636631.8354
 -22170214.845 9 -17259751.47349  20235195.735    20235195.5664   20235201.8774
 -18700169.403 9 -14559867.92348  21614500.568    21614499.7734   21614508.3204
  -1674701.440 9  -1301335.74949  21022736.251    21022735.6534   21022743.0884
 -13864754.803 9 -10792517.30347  22668783.574    22668782.9784   22668791.4374
 00  4 17  3 10  0.0000000  0  9  3 25 23 17  9 29 15 21 31          0.000000024
 -16208196.537 9 -12328063.36948  21934429.405    21934429.0214   21934437.5014
  -2193594.270 8  -1239939.64445  25216748.383    25216745.7914   25216766.8174
 -14005042.900 9 -10887621.56247  22306500.561    22306499.9314   22306507.6644
 -10529746.965 9  -7726467.23146  23537288.148    23537287.4454   23537296.6944
  -8769910.808 9  -6825683.41946  23642779.779    23642779.4154   23642787.9684
 -22183647.902 9 -17270218.75349  20232639.499    20232639.3054   20232645.6084
 -18781965.090 9 -14623604.74448  21598935.320    21598934.5394   21598943.0524
  -1682931.457 9  -1307748.72149  21021170.073    21021169.4774   21021176.8904
 -13878544.326 9 -10803262.34947  22666159.417    22666158.8554   22666167.3724
 00  4 17  3 10 30.0000000  0  9  3 25 23 17  9 29 15 21 31          0.000000005
 -16163142.635 9 -12292956.45548  21943002.888    21943002.5054   21943011.0054
  -2288134.030 8  -1313605.88745  25198757.072    25198754.9364   25198776.4244
 -13958051.638 9 -10851004.99047  22315442.690    22315442.0614   22315449.7764
 -10435916.887 9  -7653352.89546  23555143.454    23555142.7044   23555152.0304
  -8737007.122 9  -6800044.14746  23649041.124    23649040.8304   23649049.2984
 -22196577.997 9 -17280294.11549  20230178.944    20230178.7594   20230185.0554
 -18863542.889 9 -14687171.78648  21583411.518    21583410.7164   21583419.1934
  -1691005.072 9  -1314039.82149  21019633.674    21019633.0614   21019640.4814
 -13891777.503 9 -10813573.88047  22663641.167    22663640.5794   22663649.1604
 00  4 17  3 11  0.0000000  0  9  3 25 23 17  9 29 15 21 31         -0.000000019
 -16117635.511 9 -12257496.38448  21951662.626    21951662.2604   21951670.7264
  -2382842.496 8  -1387403.62945  25180733.754    25180732.1324   25180753.6644
 -13911011.409 9 -10814350.25347  22324394.195    22324393.5244   22324401.2164
 -10341795.029 9  -7580011.22246  23573054.180    23573053.3854   23573062.6974
  -8703550.478 9  -6773974.02946  23655407.747    23655407.4034   23655415.9274
 -22208978.193 9 -17289956.56949  20227819.259    20227819.0724   20227825.3604
 -18944891.062 9 -14750559.89148  21567931.407    21567930.5924   21567939.0744
  -1698903.160 9  -1320194.14349  21018130.731    21018130.1314   21018137.5364
 -13904424.310 9 -10823428.49047  22661234.561    22661233.9644   22661242.5884
 00  4 17  3 11 30.0000000  0  9  3 25 23 17  9 29 15 21 31         -0.000000036
 -16071656.752 9 -12221668.79848  21960412.156    21960411.7934   21960420.2154
  -2477718.394 8  -1461331.81445  25162678.636    25162677.3934   25162698.8514
 -13863912.513 9 -10777649.80747  22333356.786    22333356.1294   22333363.8304
 -10247377.337 9  -7506439.03246  23591021.277    23591020.5264   23591029.8414
  -8669540.560 9  -6747472.77446  23661879.576    23661879.2824   23661887.8664
 -22220838.773 9 -17299198.54549  20225562.219    20225562.0354   20225568.3414
 -19025998.451 9 -14813760.37948  21552497.110    21552496.3084   21552504.7744
  -1706622.308 9  -1326209.03649  21016661.805    21016661.1984   21016668.5944
 -13916460.172 9 -10832807.05047  22658944.108    22658943.5604   22658952.1794
